GEFSMW_500_meanwind_006.txt.gz
Wind_Speed
28 28 27 27 28 28 26 24 21 23 24 23 21 22 25 26 28 29 30 29 29 32 35 38 41 42 42 43 43 41 40 39 38 38 40 43 45 48 51 54 56 59 63
27 28 27 27 27 27 27 25 23 23 24 23 23 25 27 27 28 27 27 28 30 34 38 42 43 43 43 42 39 37 37 39 41 42 44 45 47 51 55 58 61 64 66
27 27 27 27 28 28 28 27 25 24 26 26 27 28 28 27 27 27 29 32 35 39 42 43 42 42 40 37 37 38 40 43 46 48 50 52 53 54 56 60 64 66 67
26 25 26 27 27 28 28 28 27 27 27 29 30 30 29 28 28 30 33 36 38 40 41 41 40 39 38 39 40 42 44 46 49 53 58 61 65 67 66 63 63 64 66
26 25 26 27 27 28 28 28 29 29 30 32 32 30 29 30 31 34 37 39 40 40 40 39 39 39 40 41 44 46 48 51 54 57 60 64 68 72 74 73 69 66 66
26 25 25 26 28 29 29 29 29 29 30 32 31 30 31 32 34 37 39 40 40 39 38 39 39 40 41 43 46 49 52 56 59 62 64 66 68 68 70 72 73 73 72
26 25 25 27 29 30 30 29 29 29 30 30 31 31 33 35 37 38 38 38 38 38 38 39 40 42 43 46 49 52 56 59 62 65 67 68 68 69 70 72 75 77 79
27 26 26 28 30 30 31 29 29 29 29 30 31 33 35 37 38 38 37 37 37 38 39 41 43 45 47 50 53 57 60 63 65 66 66 66 66 69 73 78 82 84 85
26 26 27 29 29 29 30 29 30 29 29 31 33 35 36 36 37 37 37 37 38 39 41 43 45 48 51 54 58 62 64 65 65 65 65 67 70 74 79 84 90 95 96
25 25 26 28 28 29 29 29 29 29 30 32 34 35 34 35 36 36 37 38 40 42 44 46 48 51 55 59 63 65 66 65 65 66 68 71 76 80 85 90 96 102 107
23 24 26 26 27 28 27 28 29 30 31 33 34 33 33 34 35 36 38 40 42 45 47 50 52 56 60 64 66 67 65 64 66 69 73 78 82 87 92 98 103 108 114
23 24 24 24 25 25 27 28 29 30 32 32 32 32 33 33 35 38 40 43 46 48 50 53 56 60 64 67 67 65 64 66 69 74 79 84 89 94 100 106 111 116 119
20 20 20 21 22 24 26 27 28 29 31 31 32 32 33 35 38 41 43 46 48 51 53 57 61 65 67 67 65 64 66 70 75 81 87 92 98 103 109 115 118 120 116
17 18 19 20 22 23 24 26 27 29 30 31 31 32 35 38 41 43 46 49 51 53 56 61 65 68 68 66 64 66 70 76 82 88 94 100 106 112 117 119 119 113 102
14 15 17 18 19 21 23 25 27 28 29 30 32 35 38 41 44 46 48 51 53 56 61 65 68 69 67 65 66 70 76 82 88 94 101 107 113 118 119 116 108 99 90
11 12 14 16 18 20 23 25 27 28 29 31 35 38 41 43 45 47 49 52 56 61 65 68 68 66 65 66 70 76 82 88 94 100 107 113 117 116 110 102 95 90 86
12 13 15 17 19 21 23 25 26 28 31 34 37 40 43 45 47 49 51 55 60 64 67 67 65 65 67 70 76 82 87 94 101 107 113 116 113 106 98 91 87 83 77
17 18 18 19 20 22 23 25 27 30 33 37 40 43 46 47 48 50 54 58 62 65 65 63 63 66 71 76 81 86 93 99 106 112 114 110 102 93 88 85 80 72 63
17 17 18 19 20 22 24 26 29 32 36 39 42 44 46 47 50 54 57 60 63 62 60 62 65 70 75 80 86 91 97 104 109 110 106 98 91 85 80 76 68 57 46
15 17 18 19 21 23 26 29 31 34 37 39 41 42 45 49 53 56 58 59 58 57 60 64 69 74 79 85 91 98 103 107 107 101 92 86 81 76 70 63 52 40 31
17 18 19 20 23 25 28 30 33 36 38 40 42 45 49 52 54 56 56 55 55 58 62 66 72 79 85 91 97 103 107 106 100 90 82 76 72 64 56 46 37 29 24
18 19 20 23 25 28 31 33 35 37 39 42 45 47 50 52 53 53 52 54 57 61 65 69 76 83 90 95 101 105 103 97 89 81 74 68 60 49 40 33 28 25 23
20 22 24 27 28 30 31 34 36 39 41 44 45 48 50 51 50 51 53 57 60 64 68 74 81 87 93 100 104 102 94 85 78 71 64 56 46 35 29 25 24 23 21
23 25 26 27 28 30 33 35 37 39 41 43 46 48 48 48 50 52 56 59 63 68 74 80 86 92 98 102 101 94 83 75 68 59 51 42 34 28 25 25 23 21 19
19 21 24 26 29 31 33 35 36 38 41 44 45 46 46 48 51 54 58 63 68 75 81 86 91 96 99 99 95 83 74 65 57 47 39 32 27 27 28 25 22 20 20
19 22 25 27 29 31 33 35 37 40 42 43 44 45 47 49 53 56 62 68 75 81 86 91 95 98 97 91 81 72 64 55 46 38 30 26 25 25 22 20 20 20 21

GEFSMW_500_meanwind_012.txt.gz
Wind_Speed
39 39 36 35 35 35 34 33 32 32 31 29 28 28 28 27 25 24 24 25 26 28 30 31 30 31 32 35 38 40 41 40 39 38 39 40 40 42 43 45 47 50 52
40 39 36 34 34 35 35 34 34 33 31 30 29 28 27 27 26 26 26 27 28 30 32 32 32 34 36 38 40 42 42 41 40 39 40 41 43 45 48 50 52 55 58
43 41 37 35 34 35 36 36 35 34 33 32 30 28 28 28 28 29 29 30 32 33 35 35 36 37 39 41 42 43 43 43 42 42 43 44 44 45 47 52 56 59 61
45 42 38 36 36 36 37 38 36 35 34 32 31 30 30 30 31 32 33 34 36 37 38 39 40 41 43 43 43 43 43 43 44 45 47 50 52 53 52 53 57 60 61
47 43 39 37 38 38 38 39 38 35 33 33 32 32 31 31 32 33 35 37 39 40 41 42 43 44 44 44 44 43 43 44 47 49 52 54 57 60 62 60 60 61 61
47 44 40 39 39 39 38 39 38 36 34 33 33 33 32 32 34 35 37 39 40 42 43 44 45 44 44 44 44 43 45 48 51 54 57 60 62 64 66 66 65 65 64
47 45 41 40 39 39 38 38 37 36 34 33 33 32 32 33 35 37 38 39 41 42 43 45 45 43 44 44 44 45 48 52 56 59 62 65 67 69 71 72 70 69 69
47 45 42 41 40 39 38 37 36 36 35 34 32 32 32 34 35 37 38 40 41 42 44 45 44 43 44 44 46 49 52 56 60 63 66 69 71 74 75 75 75 74 73
45 43 42 42 41 39 38 36 36 35 35 33 32 32 33 34 35 37 39 40 41 42 43 43 43 44 44 46 49 52 56 59 63 66 69 72 75 76 76 76 77 79 80
43 40 40 41 40 39 38 37 35 34 34 33 32 33 33 35 36 37 39 39 40 41 42 42 43 45 47 49 52 56 59 63 66 69 72 75 77 76 76 77 79 83 86
39 37 39 39 39 38 38 36 35 34 33 33 33 33 34 35 36 37 38 38 39 41 41 43 45 48 51 53 56 59 63 65 69 72 76 76 76 75 77 80 84 89 95
36 36 39 40 39 38 37 36 35 35 34 34 34 34 34 35 35 36 36 38 40 41 42 44 48 51 54 57 60 62 64 68 72 75 76 75 75 77 80 85 91 97 103
35 36 38 40 39 37 36 35 35 35 35 35 34 34 34 34 34 35 37 39 40 41 44 48 51 54 57 59 60 63 67 72 74 74 74 75 77 81 86 92 98 103 109
38 37 37 37 36 35 35 35 35 35 35 34 34 33 32 33 34 35 37 38 40 44 48 51 54 56 57 60 64 68 71 73 72 72 74 77 81 86 92 98 104 110 112
36 36 35 34 33 33 33 33 33 33 33 33 31 30 31 32 34 35 36 39 43 47 51 54 55 56 60 64 68 70 71 70 71 73 76 81 87 92 98 105 110 110 106
33 33 32 32 32 31 31 30 30 30 29 28 28 29 30 31 33 35 38 42 46 50 52 54 56 60 64 67 70 70 69 71 73 76 81 87 93 98 104 109 108 100 90
29 29 28 28 28 27 27 26 25 24 24 24 26 27 29 30 33 37 41 45 49 51 54 57 60 63 66 69 69 68 70 72 76 82 87 93 98 104 107 105 94 81 70
21 21 21 20 20 20 19 19 19 19 20 22 24 26 29 33 37 41 44 48 51 54 56 59 62 65 66 66 67 69 71 76 82 88 93 98 102 105 103 92 78 63 54
15 15 14 14 13 14 14 15 16 18 20 22 25 28 32 36 40 43 47 50 52 54 57 60 63 64 63 65 67 71 75 81 87 93 98 102 104 100 90 76 61 49 43
12 12 11 11 11 12 13 14 16 18 21 24 28 32 35 39 42 45 48 50 52 55 58 61 61 61 63 66 70 75 80 86 91 96 100 102 97 85 72 59 47 39 38
11 11 11 11 12 13 14 16 18 21 24 28 31 34 37 40 43 45 48 50 53 56 58 58 59 62 65 70 75 81 86 91 95 98 98 93 81 69 57 47 39 36 35
12 12 12 13 14 15 17 19 22 25 28 30 33 36 38 41 43 46 48 52 54 54 55 57 60 65 70 74 79 85 90 95 97 96 89 77 65 54 45 38 35 34 34
13 13 14 15 16 18 20 23 25 27 29 31 34 36 38 41 44 47 49 51 52 53 55 58 62 67 73 78 84 89 93 96 95 86 74 62 52 43 37 35 33 32 31
14 14 15 16 18 19 21 23 25 27 30 32 35 37 40 42 45 47 48 49 51 53 57 61 66 71 77 82 88 92 95 93 84 71 59 50 42 37 34 34 32 31 31
14 14 14 15 16 18 21 24 27 29 32 34 36 38 41 43 45 46 47 49 52 56 60 65 70 76 81 87 93 96 92 83 71 58 47 40 35 33 33 33 33 33 33
12 13 14 16 19 21 24 27 29 31 33 35 37 39 41 43 44 45 48 51 55 60 65 71 76 82 87 93 95 90 80 68 57 47 39 34 32 31 31 31 32 33 33

GEFSMW_500_meanwind_018.txt.gz
Wind_Speed
46 44 42 40 41 42 42 41 43 44 45 44 42 41 40 40 39 37 35 35 35 36 36 36 35 34 34 35 34 34 34 36 38 40 42 43 43 44 44 44 44 45 47
51 49 47 44 43 43 43 41 42 44 45 45 44 43 42 41 39 37 35 35 36 37 38 37 36 36 37 37 36 37 38 39 41 43 46 47 46 46 47 47 47 48 51
51 52 51 47 44 44 44 43 42 43 44 45 44 43 42 40 37 36 36 36 36 38 38 38 38 39 39 39 39 40 42 43 44 46 47 48 48 47 48 50 51 53 56
49 51 52 50 46 44 45 43 43 43 44 43 42 41 41 38 37 36 36 36 36 37 38 39 40 42 42 42 42 44 45 46 47 48 49 49 50 50 48 49 53 56 58
49 50 52 52 49 46 45 44 44 44 43 42 40 40 40 37 36 36 36 37 37 38 39 40 42 43 44 44 45 46 47 49 50 50 50 50 52 53 53 53 55 58 60
50 50 51 53 51 49 46 44 44 44 43 41 39 39 39 37 36 36 37 38 39 40 40 41 43 44 45 46 47 48 49 50 51 51 51 52 53 54 57 59 60 61 63
53 50 51 52 52 49 46 44 44 43 42 41 39 39 39 38 37 37 38 39 40 41 42 43 44 46 47 47 48 48 50 51 51 51 52 53 55 58 61 64 65 66 67
54 52 50 51 51 49 45 43 43 43 43 41 40 40 40 38 37 37 38 39 40 41 42 43 45 46 47 47 48 49 51 51 51 52 54 56 59 62 64 66 68 70 71
54 52 50 50 50 49 45 43 43 43 43 41 40 40 40 38 37 37 37 39 40 41 42 43 44 45 46 47 48 49 51 51 52 54 57 60 62 64 66 69 72 74 74
53 52 50 49 49 48 46 45 44 44 44 42 41 40 40 38 37 36 37 38 39 41 42 42 43 44 45 47 48 50 51 52 54 57 60 62 64 66 69 72 73 74 75
51 51 50 48 47 46 46 45 44 44 44 42 41 40 39 38 37 36 37 38 39 40 41 42 43 44 46 48 49 50 51 54 57 60 62 64 67 70 71 72 74 75 77
47 49 48 46 45 44 44 44 44 44 44 42 40 40 39 38 37 37 37 38 39 40 41 42 43 45 47 48 49 51 54 57 60 62 65 67 69 70 72 73 75 76 79
44 46 46 44 42 41 41 42 43 44 43 41 39 39 39 38 38 38 38 39 39 40 41 42 44 46 47 48 51 54 57 60 62 64 66 68 69 71 73 74 76 79 83
41 43 42 41 40 39 40 41 42 42 41 39 38 38 38 38 38 38 39 39 40 41 41 43 45 46 48 51 54 57 60 62 64 66 68 69 71 72 74 76 80 85 90
37 39 38 38 37 37 37 39 39 39 38 37 37 37 37 37 38 39 39 40 40 40 41 44 45 47 51 54 57 59 61 63 65 67 69 70 71 73 77 81 87 92 98
33 34 34 34 34 34 34 35 35 35 34 34 35 35 36 37 38 39 39 38 39 40 42 44 47 50 53 56 58 61 63 65 67 68 69 71 73 77 82 88 94 100 104
30 31 30 30 30 31 31 31 31 32 31 32 33 34 36 37 36 36 36 36 37 40 43 46 49 53 55 57 60 62 64 66 68 69 70 73 77 83 88 94 100 103 101
26 27 27 27 27 27 27 28 28 28 29 31 32 33 33 32 32 32 33 35 38 42 45 49 51 54 56 59 61 63 65 66 68 70 73 78 83 90 95 99 101 96 86
22 23 23 23 23 23 23 23 25 26 27 28 28 28 28 29 30 32 34 37 41 44 47 50 52 54 57 60 62 63 64 66 69 73 78 84 90 95 100 99 93 80 67
20 20 21 21 21 21 21 22 23 23 24 24 25 26 27 28 30 33 36 40 43 46 48 50 53 55 58 60 61 63 64 67 72 78 84 90 95 99 97 89 76 61 52
17 18 18 18 18 18 19 19 19 20 21 22 23 25 27 29 32 35 39 41 43 46 48 51 54 56 58 59 60 63 68 72 77 83 89 94 96 93 84 71 58 49 43
13 13 13 14 14 15 15 16 16 17 19 20 23 25 28 31 34 37 39 41 44 46 49 52 54 56 56 58 62 67 72 77 82 88 93 94 89 78 66 54 46 41 39
8 9 9 10 11 12 13 14 15 17 19 21 24 27 29 32 35 37 39 42 44 47 49 51 52 54 57 61 66 71 76 82 87 91 91 84 73 61 51 43 39 38 37
7 8 9 10 10 11 13 14 16 17 19 22 25 28 30 33 35 37 40 42 45 47 48 49 51 55 60 64 69 74 80 85 89 87 78 66 56 47 39 36 35 34 33
7 8 9 9 10 11 12 14 16 18 21 24 27 30 32 34 36 39 41 43 45 45 46 49 53 58 63 68 73 79 84 87 84 74 62 51 43 37 34 33 33 32 32
7 8 9 9 10 11 13 16 19 22 25 27 29 31 33 35 37 40 41 42 43 45 48 52 57 62 67 72 78 84 86 82 72 59 47 39 34 32 31 30 30 31 31

GEFSMW_500_meanwind_024.txt.gz
Wind_Speed
35 35 35 35 36 38 40 41 40 38 38 36 36 38 40 40 39 38 39 39 39 39 39 39 39 40 40 39 39 40 40 40 40 40 40 41 41 41 42 43 44 45 46
38 38 38 38 38 39 41 43 43 41 40 39 38 40 40 39 39 39 40 40 40 40 40 40 40 41 40 40 40 40 41 41 42 42 43 44 44 45 46 46 47 48 48
43 43 42 42 41 41 42 44 45 46 44 42 42 41 40 40 40 40 40 40 40 40 39 40 40 40 40 40 40 41 41 42 44 45 46 47 47 47 47 48 49 50 50
48 48 47 47 46 45 45 46 47 49 48 46 44 43 42 42 41 41 40 40 39 38 38 39 40 40 40 40 41 42 42 43 45 47 48 49 50 50 49 48 50 50 51
53 54 53 52 51 50 48 48 49 50 50 48 47 46 44 43 43 42 40 39 39 38 38 39 39 39 40 41 42 43 44 45 46 48 49 50 51 51 50 49 50 51 53
59 58 59 58 56 55 53 51 50 50 50 50 49 48 46 44 43 42 41 40 40 39 38 39 39 39 39 40 42 44 45 46 48 49 50 51 51 51 52 52 51 52 52
64 62 61 61 61 59 57 56 53 50 49 50 49 49 48 45 44 43 42 41 39 39 38 38 38 38 39 41 42 44 46 47 48 49 50 51 51 52 54 55 54 53 53
63 63 61 60 60 60 60 58 55 51 49 49 49 49 48 46 45 44 42 40 39 38 38 38 38 39 40 41 43 44 46 47 47 48 49 50 52 53 55 56 56 55 56
58 59 59 58 58 60 60 59 57 53 51 49 49 49 47 46 45 44 42 40 39 39 39 38 38 39 40 41 43 44 45 46 47 48 49 51 53 54 55 56 58 61 63
52 52 52 54 54 56 58 59 57 55 51 49 49 48 46 46 45 43 41 40 40 40 39 38 38 38 40 41 42 44 45 47 48 49 51 53 55 55 56 59 62 65 67
48 46 46 48 50 52 55 56 56 55 51 49 47 46 46 45 44 42 41 40 40 39 38 37 37 38 40 41 43 44 46 48 50 52 53 55 55 57 60 62 64 66 68
44 43 41 41 44 47 50 52 53 52 49 46 44 44 44 44 42 40 40 39 39 38 37 37 38 39 40 42 44 46 48 50 52 54 56 56 58 60 63 64 65 67 68
40 40 38 37 39 41 45 49 50 48 45 43 42 42 42 41 39 38 38 38 38 38 37 37 39 40 41 43 46 48 51 52 54 56 57 59 61 63 64 66 67 68 69
36 36 35 34 35 38 42 45 45 42 41 40 41 40 39 38 36 36 36 36 37 37 37 38 39 41 43 45 48 50 52 54 56 58 60 62 63 64 65 66 67 68 71
28 28 28 29 31 34 37 40 39 38 38 39 38 37 35 34 34 34 34 35 35 36 37 38 41 43 46 47 49 50 53 55 58 60 61 62 64 64 65 66 68 72 76
15 15 17 20 25 29 32 35 35 36 35 34 33 31 31 31 31 32 33 34 35 36 37 41 43 45 46 48 49 51 55 57 59 60 61 62 63 63 65 68 72 77 82
1 5 10 16 22 26 29 31 31 30 28 27 27 26 26 27 29 31 33 33 34 37 40 42 44 45 46 48 51 54 56 58 59 60 61 61 62 64 68 72 77 83 89
10 12 15 18 22 24 25 25 24 23 22 21 22 23 25 27 29 30 30 33 36 38 41 43 44 45 47 50 53 55 56 57 59 59 60 62 64 68 72 76 81 87 93
17 17 18 20 20 21 21 20 19 19 19 20 21 23 26 26 27 29 32 35 37 39 41 42 43 46 48 51 53 54 55 57 57 59 61 65 68 72 77 82 87 91 91
18 18 18 18 18 18 17 16 16 17 18 20 22 25 26 27 28 31 33 35 36 38 39 41 44 47 49 51 52 54 54 55 57 61 65 69 73 78 83 87 89 88 82
16 16 15 15 15 14 13 13 14 16 18 19 21 23 24 26 27 29 31 32 34 37 40 43 45 47 49 51 52 52 54 56 59 63 68 72 77 82 86 88 86 78 67
10 10 11 10 10 11 11 11 13 15 16 17 18 20 21 23 25 27 29 32 35 38 41 43 45 47 49 50 51 53 56 59 63 67 72 77 81 85 86 83 74 63 53
7 6 6 7 7 7 8 9 10 11 12 13 14 17 19 21 24 28 31 34 37 39 41 43 45 46 48 49 52 56 60 64 68 73 77 81 84 84 79 70 59 48 41
6 6 5 5 4 3 2 3 4 6 8 11 13 16 20 23 27 30 33 35 37 39 41 43 44 46 49 52 56 60 65 69 73 77 80 83 82 76 65 54 44 37 35
4 4 3 3 2 1 1 3 5 8 10 13 16 19 23 26 29 31 33 35 37 39 40 42 45 48 52 56 61 65 69 73 76 79 81 78 71 59 48 39 33 32 34
1 1 1 0 1 2 3 6 8 10 13 16 20 23 25 28 30 32 34 36 37 38 41 45 49 53 57 61 66 71 74 78 80 80 76 66 54 42 33 28 28 31 33

GEFSMW_500_meanwind_030.txt.gz
Wind_Speed
40 40 39 38 38 38 39 39 39 37 36 36 36 36 36 36 35 34 33 32 32 33 33 33 34 34 34 35 35 36 36 36 36 36 37 37 37 37 38 38 39 40 42
42 42 42 42 42 41 42 42 42 41 40 39 38 39 40 40 39 36 34 33 33 34 34 34 34 33 34 34 35 35 35 35 35 36 37 37 37 38 39 40 41 42 44
45 45 46 46 45 45 44 44 45 45 44 43 42 42 43 42 40 38 36 36 38 38 36 35 34 33 34 34 34 34 34 35 35 36 37 37 38 39 40 41 42 44 45
46 46 46 47 48 47 47 47 47 47 47 47 46 45 44 43 42 42 42 42 42 40 38 36 35 35 35 35 35 35 35 36 36 37 37 38 39 40 41 42 43 45 46
45 46 47 48 50 50 51 50 50 50 50 50 50 48 46 45 45 46 46 45 45 44 42 40 38 38 38 37 36 36 36 36 37 38 38 39 39 40 41 43 44 45 47
46 48 50 52 53 55 56 56 55 55 55 54 53 52 50 48 47 48 49 48 48 47 46 44 42 41 40 39 38 37 36 37 38 39 40 40 40 41 42 43 44 46 47
50 53 55 56 58 59 61 62 62 61 61 60 59 57 55 52 50 50 51 51 50 50 48 47 45 44 42 40 39 38 38 38 39 40 41 41 41 42 43 45 46 47 48
52 54 57 59 60 62 63 64 65 66 65 65 64 62 60 57 54 53 52 52 51 51 50 48 46 45 44 42 40 40 40 40 41 41 42 42 43 44 46 48 49 50 51
50 53 55 57 59 60 61 62 63 65 66 66 66 66 64 61 58 55 53 52 51 51 50 48 47 46 44 42 41 41 41 41 42 42 43 44 44 46 48 51 53 55 56
49 52 55 56 57 58 59 59 60 62 63 63 64 64 64 63 61 58 55 53 51 50 49 47 46 45 43 42 42 42 42 43 43 44 44 45 46 49 51 54 57 59 60
49 52 55 55 55 55 55 55 56 57 58 59 60 61 61 61 61 58 55 52 50 48 47 46 45 44 42 42 42 43 43 44 44 44 45 46 49 52 55 58 60 62 63
49 51 52 53 53 52 50 50 51 51 53 55 56 57 58 58 58 57 54 51 48 46 45 44 43 42 41 41 42 44 45 45 45 45 47 49 52 56 59 61 62 64 65
45 47 48 47 46 45 43 42 44 45 47 50 51 53 55 54 54 53 51 48 46 44 42 41 40 40 40 41 43 44 45 45 45 47 50 54 57 59 60 62 64 66 67
40 41 39 36 34 34 34 34 36 37 39 42 45 47 49 50 50 49 47 44 42 41 40 39 39 39 40 41 43 44 45 46 48 51 54 57 58 60 62 64 66 67 67
35 33 29 24 22 23 25 26 27 29 32 35 38 41 43 44 44 43 42 40 39 37 37 37 37 38 40 41 42 44 46 48 51 54 56 58 60 62 64 66 67 67 68
29 26 21 16 13 13 15 18 20 22 25 28 31 34 36 38 39 38 37 35 35 34 34 34 36 38 40 40 42 45 48 51 53 55 57 59 61 63 65 67 67 69 70
26 23 17 11 6 4 8 12 15 18 21 23 25 27 30 32 33 32 31 31 32 32 32 34 38 40 41 42 45 48 50 51 53 56 58 60 63 64 66 67 68 70 73
22 20 17 12 7 4 7 11 13 16 18 21 23 25 27 28 28 28 29 29 30 31 33 36 37 39 42 44 45 47 49 52 54 57 59 61 63 65 66 68 70 73 76
19 18 16 14 12 11 10 12 15 17 19 20 22 23 24 24 25 26 26 28 30 32 34 34 36 39 40 42 44 47 50 53 56 58 60 62 64 66 69 71 74 76 79
17 16 15 15 14 13 14 15 16 16 18 19 20 21 21 21 22 23 25 27 30 31 32 33 35 37 39 42 45 48 51 54 56 59 61 64 66 70 73 75 77 79 81
14 13 13 14 14 14 14 14 14 15 15 15 15 16 16 18 20 21 23 24 25 25 28 31 33 36 40 43 46 49 52 54 57 60 63 67 70 73 75 78 80 80 79
12 11 11 10 11 11 11 10 8 7 7 7 9 11 13 14 16 16 17 18 21 24 28 31 34 38 42 45 47 50 53 56 59 63 67 71 73 76 78 80 80 77 71
10 9 9 9 8 8 8 7 6 5 4 4 4 4 5 7 10 12 14 18 22 26 29 33 36 39 42 45 48 52 56 60 64 68 72 74 76 79 80 78 73 65 56
8 7 6 7 7 6 6 6 5 4 3 3 3 4 6 9 12 15 18 22 25 28 32 34 37 40 43 47 51 56 60 65 69 72 75 77 78 77 73 66 57 46 39
6 5 4 4 5 5 5 5 5 5 5 6 7 9 11 14 17 20 22 25 28 30 33 35 39 42 46 51 56 61 65 69 72 74 75 75 72 66 56 46 37 31 28
5 4 4 4 4 5 6 6 7 8 9 11 12 14 16 19 21 23 25 27 29 31 34 37 41 45 50 55 60 65 69 71 72 72 69 65 57 47 37 29 25 23 22

GEFSMW_500_meanwind_036.txt.gz
Wind_Speed
42 43 44 44 43 42 41 41 42 42 43 43 44 44 43 43 43 43 42 41 39 38 36 36 36 35 35 35 34 35 35 36 36 35 34 34 34 34 34 34 34 34 34
44 44 45 46 46 45 45 44 44 45 45 46 46 46 46 46 46 46 46 43 41 40 39 39 39 39 38 37 36 36 37 37 37 36 36 35 36 36 36 35 35 35 35
45 46 46 47 47 47 47 47 47 48 48 49 49 49 49 48 49 48 47 45 44 43 43 43 43 42 41 40 39 38 38 38 38 38 37 37 38 38 37 37 36 36 36
44 45 46 47 48 48 48 49 49 50 50 52 53 53 51 50 49 49 49 49 48 47 47 46 46 45 44 43 42 41 40 40 40 39 39 40 40 40 39 39 39 39 39
42 43 44 45 47 48 49 50 51 52 53 54 55 56 56 54 53 52 51 50 50 49 49 48 48 47 47 46 45 44 43 43 42 42 42 42 42 42 41 41 41 41 41
39 40 41 43 44 46 48 50 51 52 54 55 57 58 58 58 57 56 54 53 52 51 50 50 50 49 49 49 48 47 46 45 45 44 44 44 44 44 44 43 43 43 43
38 39 40 42 44 45 48 50 52 54 56 57 59 60 61 61 61 60 58 57 55 53 52 51 51 51 51 51 50 49 48 47 46 46 46 46 46 45 46 46 45 45 45
37 39 41 43 45 47 49 52 54 57 59 61 63 64 64 65 65 65 64 62 59 57 55 54 54 54 53 52 51 51 50 49 48 48 47 47 47 47 47 47 48 47 47
36 38 41 43 45 48 51 54 56 59 61 64 66 68 69 69 69 69 68 66 64 62 59 58 57 56 55 53 53 52 51 50 49 49 48 48 48 48 48 49 50 49 50
35 37 40 43 45 48 51 54 57 59 62 65 67 69 70 71 72 72 71 70 68 66 64 61 59 57 56 55 54 53 52 51 50 50 50 50 51 50 50 51 52 52 52
32 34 37 40 43 46 50 54 57 59 62 64 66 67 69 70 72 72 72 71 70 69 66 63 61 59 58 57 56 53 52 51 51 50 50 51 52 52 51 53 54 55 55
30 32 35 38 41 45 49 53 56 59 61 61 62 63 64 66 67 68 68 68 68 67 65 64 61 60 58 57 55 53 52 51 51 50 51 51 52 53 55 55 56 57 59
28 31 33 36 40 44 48 51 53 53 53 53 54 54 55 57 59 61 62 63 63 63 62 61 59 58 56 55 53 52 51 50 50 50 50 52 53 56 57 58 58 61 64
28 30 31 34 38 42 45 45 43 42 41 40 41 42 43 45 47 50 53 55 56 58 57 56 55 54 53 52 51 50 49 49 48 49 51 53 55 57 60 61 62 64 66
26 27 28 31 36 38 39 38 35 33 30 27 26 28 30 33 36 39 42 44 46 48 49 49 49 49 49 48 48 47 47 47 48 49 51 54 56 58 61 62 64 66 68
23 25 26 29 32 33 33 32 29 25 21 17 16 17 19 22 25 28 30 33 35 37 39 42 42 43 43 44 44 44 45 46 47 49 52 54 56 59 61 62 64 66 68
21 23 23 25 28 29 28 27 24 20 15 11 10 10 12 15 16 17 20 23 25 28 31 34 36 38 39 40 41 41 43 44 47 49 52 53 55 56 59 61 63 66 68
20 20 21 22 24 25 25 24 22 17 13 9 5 5 6 8 11 12 15 17 20 23 25 28 30 33 35 36 36 38 40 42 46 47 49 51 53 55 58 61 64 66 69
18 19 19 20 21 21 22 22 20 17 13 10 5 1 2 4 7 9 13 16 18 18 20 23 26 27 29 32 34 37 39 41 44 46 47 50 53 56 59 62 64 67 70
17 18 18 18 18 18 19 20 18 17 14 11 8 5 2 3 5 6 8 10 12 15 18 19 22 25 28 30 32 33 34 37 41 43 47 50 54 57 60 63 66 68 70
17 17 17 16 16 16 17 18 17 16 14 12 10 8 5 3 2 3 4 6 9 12 14 17 19 22 24 25 27 30 33 36 40 44 48 52 57 60 63 66 67 68 68
16 16 15 14 14 14 15 16 15 15 13 11 9 8 6 4 2 1 3 5 7 10 12 15 17 18 21 24 27 31 34 38 42 47 51 55 59 62 64 64 65 64 62
15 14 13 12 12 12 13 13 14 14 14 12 11 9 7 6 4 3 3 5 7 9 12 14 17 19 22 26 29 33 36 41 45 50 54 57 60 61 61 60 58 55 52
14 13 12 10 10 10 11 12 12 12 12 12 11 10 9 8 7 7 7 8 10 12 14 16 19 22 25 28 32 35 40 45 49 53 56 58 59 58 56 53 50 48 44
14 13 11 10 9 9 10 10 11 11 12 12 11 11 10 10 10 10 11 12 13 15 17 19 22 25 28 31 35 39 43 48 52 54 56 56 55 52 49 47 44 41 36
14 12 11 10 9 9 10 10 11 12 13 13 13 13 13 13 13 13 14 15 16 18 20 22 25 28 32 35 38 43 47 50 52 53 53 53 50 48 46 43 40 36 32

GEFSMW_500_meanwind_042.txt.gz
Wind_Speed
40 39 39 38 38 38 38 38 39 39 41 42 42 44 45 46 46 46 47 47 46 46 45 44 44 43 43 43 42 41 40 38 38 37 36 36 34 33 33 32 32 32 32
41 41 40 40 40 40 40 41 41 41 42 43 44 45 47 48 49 49 50 49 49 49 49 48 47 47 47 46 46 45 43 42 41 40 39 38 37 36 36 35 34 35 35
42 42 41 41 41 41 42 42 43 43 44 44 45 46 48 49 50 51 51 51 52 52 52 51 51 51 50 49 49 48 47 46 45 43 42 41 40 39 38 37 37 37 38
42 42 43 43 43 43 43 43 43 43 44 45 45 46 47 49 49 51 52 53 54 55 55 54 54 54 53 52 51 51 50 49 48 47 46 45 43 42 41 40 40 41 41
42 43 43 43 43 43 42 42 42 43 43 44 45 46 47 48 49 51 52 54 55 56 57 57 57 57 55 55 54 53 53 52 51 50 49 48 46 45 44 43 43 43 44
41 41 41 41 41 41 41 41 41 42 42 43 44 46 47 48 50 51 53 54 55 57 58 59 60 60 59 58 57 56 56 55 54 53 52 51 49 47 47 46 45 46 46
37 37 37 38 38 39 39 40 40 42 43 44 45 47 49 50 52 54 55 56 57 58 59 61 62 62 62 62 61 59 58 58 57 56 54 54 52 50 50 49 48 48 48
32 33 34 35 36 36 37 38 40 42 43 45 47 49 51 53 55 57 59 60 61 62 63 63 63 64 64 64 63 62 61 60 59 58 57 57 56 54 52 52 51 51 51
29 30 31 32 33 34 36 37 39 41 43 46 48 50 52 55 57 60 63 65 67 67 67 67 67 66 65 65 65 63 63 62 61 61 60 59 58 56 55 54 54 54 54
27 28 29 31 32 33 35 36 39 41 43 45 47 49 52 55 58 61 64 67 69 70 70 70 70 69 67 66 65 64 64 63 62 62 61 60 59 59 58 57 56 56 56
26 27 28 30 31 32 33 35 37 38 40 42 45 48 51 55 58 61 63 65 67 69 69 70 69 68 67 66 64 63 63 63 62 62 61 61 61 61 59 59 58 57 57
25 26 27 28 29 30 31 32 34 35 38 40 43 46 49 51 54 56 58 60 62 63 64 65 65 65 64 63 62 61 60 60 61 61 61 61 61 61 60 59 58 58 59
24 25 26 27 28 29 30 31 31 33 35 38 40 42 44 46 47 47 48 50 51 52 54 56 57 57 57 57 57 56 55 55 56 57 58 59 59 59 59 58 58 58 59
22 22 23 24 26 27 27 28 28 30 32 34 35 38 40 41 41 40 39 38 39 40 42 45 47 47 48 48 49 48 48 48 49 50 52 53 54 55 55 56 56 58 59
19 20 21 23 24 24 24 24 25 26 28 30 31 33 35 35 34 32 30 29 29 31 33 34 35 36 37 39 39 40 40 41 42 43 45 47 49 49 50 53 55 56 59
17 19 20 21 21 22 22 22 23 23 25 26 27 27 28 28 28 26 24 23 22 22 23 25 25 26 28 29 30 31 33 34 36 38 39 42 44 44 48 50 52 55 58
16 18 19 20 20 21 21 20 20 21 21 22 23 23 23 23 22 21 20 19 17 16 16 16 17 18 19 20 22 24 26 28 30 33 36 39 40 43 46 49 52 54 55
15 17 17 18 18 18 18 18 19 18 18 19 19 20 20 19 19 17 16 15 13 12 10 10 11 12 13 15 17 20 22 24 27 30 34 36 38 41 44 46 48 50 52
14 15 16 17 17 17 17 16 16 16 16 16 17 17 17 16 16 15 14 12 11 8 6 6 8 9 11 13 15 17 20 23 26 28 31 33 36 38 41 44 46 50 53
13 14 15 15 15 15 15 14 14 14 14 14 15 15 15 15 14 14 13 12 11 8 6 5 5 6 7 10 12 15 17 20 22 25 28 32 35 38 41 44 47 50 53
14 14 14 14 14 14 14 13 13 12 13 13 13 13 14 14 14 13 13 13 11 10 8 6 6 6 7 9 12 14 17 19 22 25 29 33 36 39 42 45 48 50 52
14 14 14 14 13 13 13 12 12 12 12 12 13 13 13 14 13 13 13 12 11 10 9 8 8 9 10 11 13 16 19 22 25 28 31 34 38 41 44 47 49 50 52
15 14 14 14 13 13 13 13 12 12 12 12 13 13 14 14 14 13 12 11 11 10 10 11 11 12 13 15 17 19 22 25 28 31 34 37 40 43 46 48 50 51 53
15 15 14 14 13 13 13 13 13 13 13 13 13 14 14 14 14 13 13 12 12 12 12 13 14 15 17 19 21 23 25 28 31 33 36 40 43 46 47 49 51 53 54
17 16 15 14 14 13 13 13 13 13 13 14 14 14 14 14 14 14 13 13 14 14 15 16 17 19 20 22 24 27 29 31 34 37 40 43 46 48 49 51 52 52 51
18 18 17 16 15 14 14 15 15 14 15 15 15 15 15 15 15 15 15 15 16 17 18 19 21 22 24 26 28 30 32 34 37 39 42 45 47 49 50 51 50 49 47

GEFSMW_500_meanwind_048.txt.gz
Wind_Speed
40 39 37 36 35 36 36 35 35 34 34 35 35 35 35 36 38 39 40 41 42 43 44 44 44 45 45 45 46 46 46 46 47 47 46 46 44 42 41 40 39 38 37
39 38 38 37 37 37 37 37 36 36 36 36 37 38 38 39 40 41 42 43 45 46 47 47 48 48 48 48 49 49 50 50 50 51 51 50 48 46 45 44 43 42 41
39 38 38 37 37 37 37 37 37 37 38 38 39 40 40 41 42 43 43 44 46 47 49 50 50 51 52 52 52 52 53 54 54 54 55 54 52 51 49 48 47 46 44
38 37 37 37 37 37 37 38 38 38 39 39 40 41 41 42 43 44 45 45 46 48 49 51 52 54 55 55 55 55 56 57 57 57 57 57 57 55 52 51 50 49 47
37 36 36 36 36 36 36 37 37 38 39 40 41 42 42 42 43 44 45 46 47 48 50 51 53 54 56 58 58 59 59 60 60 60 59 60 60 58 57 55 53 52 51
35 35 34 35 35 36 37 37 38 39 40 40 41 41 42 43 43 44 45 46 48 49 50 51 53 55 57 59 60 62 63 63 63 63 63 62 62 61 60 59 57 55 53
35 35 35 35 36 36 37 38 39 39 40 40 40 41 42 42 43 44 45 46 47 48 50 51 53 55 58 60 62 64 65 66 66 66 65 64 63 63 62 61 59 57 56
36 36 36 36 36 37 38 38 39 39 39 39 40 41 41 42 42 43 44 45 46 48 49 51 53 55 58 61 63 64 66 67 67 67 66 65 64 63 62 61 61 60 57
35 35 36 36 37 37 37 37 37 38 38 38 39 39 40 41 41 41 42 43 44 46 48 50 53 55 58 61 63 64 64 65 66 66 66 65 64 62 61 60 60 59 58
35 35 36 36 36 36 36 36 36 37 37 37 38 38 39 39 39 39 40 42 43 45 48 51 53 55 57 59 60 61 61 62 62 63 63 63 62 61 60 59 58 58 58
35 35 35 35 35 35 35 35 35 35 36 36 36 37 37 37 37 38 39 40 42 44 46 49 50 51 53 54 55 56 56 56 57 57 58 59 58 58 58 58 58 58 58
35 35 34 34 34 33 33 33 33 34 34 34 34 35 35 35 36 37 37 38 40 42 44 46 46 47 48 49 50 50 49 49 49 49 50 51 53 53 54 55 55 56 57
33 33 32 32 31 31 31 31 31 32 32 32 33 33 33 34 34 34 36 37 38 40 41 42 43 43 45 45 44 43 42 42 42 42 43 44 46 48 49 51 51 52 53
30 30 29 29 28 28 28 28 28 29 30 30 31 31 32 32 32 33 34 35 37 38 38 39 39 39 40 40 38 37 36 35 35 34 36 37 39 40 42 44 46 46 48
26 26 26 26 26 26 26 26 27 28 28 29 29 30 30 31 32 32 33 33 34 35 35 35 35 35 35 35 32 31 30 29 28 28 29 31 32 34 36 38 40 41 43
24 24 24 23 24 24 24 25 25 26 27 27 28 29 29 30 30 31 31 31 31 32 32 31 31 31 31 30 28 27 25 25 24 23 23 24 25 27 29 32 34 36 40
22 22 22 21 21 22 22 23 24 24 25 26 27 27 28 29 29 29 29 30 30 29 29 28 27 27 27 26 26 25 23 21 20 19 19 20 21 24 26 28 30 33 36
20 19 19 19 19 20 20 21 22 22 23 24 25 25 26 26 27 27 27 27 27 27 26 25 25 24 23 23 23 22 20 19 17 17 17 16 18 19 21 24 26 30 33
18 17 17 17 17 18 19 19 20 20 21 22 22 23 23 24 24 24 25 25 25 25 24 24 23 22 22 21 21 20 19 18 17 16 16 17 18 20 21 24 27 30 33
17 16 16 16 17 17 17 18 18 18 19 20 20 21 21 21 22 22 22 23 23 23 22 22 21 20 20 20 20 19 19 18 18 18 18 19 20 22 24 26 29 32 35
17 17 16 16 16 16 17 17 17 18 18 19 19 20 20 20 21 21 22 22 22 21 21 20 20 20 20 20 20 20 20 20 21 21 22 23 24 26 28 30 33 36 38
18 17 16 16 16 16 16 16 17 17 18 18 19 19 20 20 21 21 22 21 21 21 20 20 20 21 21 22 22 22 22 22 23 24 25 26 28 30 32 34 37 39 42
19 18 17 17 17 17 17 17 18 18 18 18 19 19 19 20 21 21 21 21 21 21 21 21 21 22 23 23 24 24 25 25 26 27 28 30 31 34 36 38 40 43 45
20 19 19 18 18 18 18 18 19 19 19 19 19 19 20 20 21 21 21 21 22 22 22 22 23 23 24 25 25 26 27 28 29 30 32 33 35 37 39 41 44 46 48
22 21 20 20 19 19 19 19 19 20 20 20 20 20 21 21 22 22 22 22 23 23 23 24 24 25 26 27 27 28 29 30 32 33 35 36 38 40 42 44 46 49 51
23 23 22 21 21 20 21 21 21 21 21 21 21 22 22 22 23 23 23 24 24 25 25 26 26 27 28 28 29 31 32 33 35 36 37 39 41 43 45 47 49 50 52

GEFSMW_500_meanwind_054.txt.gz
Wind_Speed
43 44 44 43 42 40 39 38 37 36 36 35 35 34 33 33 33 34 34 34 35 36 36 37 38 39 40 41 42 42 43 44 45 46 47 48 48 48 48 48 48 47 47
44 44 44 43 42 40 40 39 39 38 37 37 36 36 35 35 36 36 37 37 38 39 39 39 40 41 42 43 44 45 46 47 48 49 50 50 50 49 51 51 51 50 50
44 44 44 43 42 42 41 41 40 40 39 38 38 38 38 38 38 38 39 39 40 40 41 42 43 44 45 45 46 47 48 49 50 50 52 52 52 52 52 53 53 53 53
43 43 44 44 43 43 42 42 42 42 41 40 40 40 39 40 40 40 40 40 41 42 43 44 45 46 47 47 48 49 50 50 50 51 52 54 54 55 55 54 55 56 56
43 43 43 43 43 43 43 43 43 42 42 41 41 41 41 41 41 41 41 42 43 43 44 45 46 47 48 48 49 50 50 50 51 52 53 55 56 57 58 58 58 58 58
43 43 42 42 42 43 43 43 43 42 42 42 41 41 41 42 42 42 43 43 44 45 45 46 47 47 47 48 48 48 49 50 51 53 54 55 57 58 59 60 60 60 60
43 44 43 42 42 42 42 42 42 42 42 42 42 41 42 42 43 43 44 44 45 46 46 47 47 47 46 47 47 47 48 50 51 52 54 56 57 59 60 61 61 61 60
42 43 44 44 43 43 43 42 42 42 42 42 41 41 42 42 43 44 45 45 45 45 46 46 46 46 46 45 45 46 47 48 49 51 53 54 55 56 57 58 59 60 59
41 42 43 43 43 42 42 42 42 42 42 42 42 42 43 43 44 44 44 44 44 44 44 44 45 45 44 44 44 44 46 47 49 50 51 51 52 54 55 55 56 56 55
40 40 42 42 42 42 42 41 41 42 42 42 43 43 43 43 43 43 43 43 43 43 43 43 43 42 42 42 43 44 45 46 47 48 48 48 49 50 51 51 52 52 51
39 39 39 40 40 40 41 41 41 41 41 42 42 42 42 42 42 42 41 41 41 41 41 41 40 40 41 41 42 43 43 44 44 44 44 45 47 47 47 47 46 46 46
38 38 38 38 39 39 40 40 40 40 40 40 40 40 40 40 39 39 39 39 39 39 39 39 39 39 39 39 40 41 41 41 40 40 41 42 42 42 42 42 42 41 40
36 37 37 37 37 37 38 38 38 38 38 37 37 37 37 36 37 37 37 37 37 37 37 37 37 37 37 38 39 38 38 37 37 37 37 38 38 38 37 37 36 35 35
33 34 35 35 36 36 36 36 36 35 35 34 34 34 34 34 34 35 35 35 35 35 35 35 35 36 36 37 37 36 35 35 34 35 35 35 35 34 33 33 32 30 29
29 31 32 32 33 33 33 32 32 32 32 32 32 32 32 32 32 32 32 32 33 33 33 33 34 34 35 35 35 34 34 33 33 33 32 32 31 30 30 29 28 26 25
27 27 28 28 28 28 28 28 28 28 28 28 29 29 29 29 29 29 29 30 30 31 31 31 32 32 33 33 33 32 31 31 30 30 29 29 28 28 27 26 25 24 24
25 25 25 25 25 25 25 25 25 25 26 26 27 27 27 27 27 27 27 27 28 29 29 30 30 30 31 31 30 30 29 28 28 27 28 27 27 27 26 26 26 25 25
23 23 23 23 23 23 23 23 23 24 24 24 25 24 23 23 24 24 24 25 26 27 27 28 28 28 29 28 28 28 27 27 27 27 27 27 27 27 26 26 26 26 26
22 22 22 22 22 22 22 22 22 22 22 22 21 21 21 21 21 22 22 23 24 25 25 26 27 27 27 27 27 27 26 26 27 27 27 27 27 27 27 28 28 28 28
21 22 22 22 21 21 21 21 21 20 20 20 20 19 20 20 20 21 22 23 23 24 24 25 25 26 26 26 26 26 26 27 27 28 28 28 28 29 29 30 30 31 32
21 22 22 22 21 21 20 20 20 20 19 19 19 19 19 19 20 20 21 22 23 23 24 24 25 25 25 26 26 27 27 28 28 29 29 30 30 31 31 32 33 34 35
21 22 22 22 21 21 21 20 19 19 19 19 19 19 19 19 20 20 21 22 23 24 24 24 25 25 26 26 27 27 28 29 30 30 31 32 33 33 34 35 35 36 37
22 22 23 23 22 22 21 21 20 20 20 20 20 20 20 20 21 21 22 22 23 24 25 25 26 26 27 28 28 29 30 31 31 32 33 34 34 35 36 37 38 39 40
22 23 24 24 23 23 23 22 22 21 21 21 21 21 21 21 22 23 23 24 24 25 26 26 27 27 28 29 30 30 31 32 33 34 34 35 36 37 38 39 41 42 43
22 23 24 25 25 25 24 24 23 23 23 22 22 22 23 23 23 24 25 25 26 27 27 27 28 29 29 30 31 31 32 33 34 35 36 37 38 39 40 41 43 44 46
25 25 25 25 25 26 26 26 25 25 25 24 24 24 25 25 25 26 26 27 28 28 28 29 29 30 31 31 32 33 33 34 35 36 37 38 39 40 42 43 45 47 48

GEFSMW_500_meanwind_060.txt.gz
Wind_Speed
48 48 48 47 47 46 45 43 42 41 41 40 40 39 39 38 37 36 35 35 35 35 35 34 35 36 37 38 39 40 41 42 44 45 45 45 45 45 46 46 46 46 46
46 47 47 47 46 47 46 45 44 43 43 43 42 41 41 40 39 38 37 37 37 37 37 37 38 39 40 41 42 43 44 44 46 47 47 46 45 45 46 46 45 45 46
43 43 44 45 45 45 45 45 45 44 44 44 43 42 42 41 40 39 39 39 39 39 39 40 40 41 42 43 44 45 46 47 48 48 49 49 47 46 45 44 45 45 46
43 42 42 42 43 44 44 45 45 45 44 43 43 43 43 42 41 41 41 41 41 41 42 42 43 43 44 45 46 47 48 49 49 49 49 49 48 47 45 44 44 45 46
40 40 41 42 42 43 43 44 45 45 45 45 44 44 44 43 42 42 42 43 43 43 44 44 45 45 46 47 48 49 49 50 50 49 49 48 48 47 46 45 44 46 47
40 40 40 41 42 43 43 44 45 45 45 46 46 46 45 45 44 44 45 45 45 45 45 46 46 46 47 48 49 49 50 50 49 48 48 48 47 46 46 45 45 46 47
43 42 42 42 43 43 44 44 45 45 46 47 47 47 47 46 47 47 46 46 46 46 46 47 47 47 48 49 49 49 49 48 48 47 47 46 46 46 46 46 46 46 46
42 43 44 44 45 45 45 45 45 45 46 46 47 47 47 47 47 47 47 47 47 47 47 47 47 48 49 49 49 48 47 47 47 46 45 45 44 45 46 46 46 46 45
43 44 45 46 47 47 47 46 46 46 46 47 47 47 47 47 47 47 47 47 47 47 47 48 49 49 49 48 47 46 46 46 45 44 44 44 43 44 45 46 45 44 43
44 45 45 47 48 48 49 48 48 48 47 47 47 47 47 47 47 47 47 47 47 48 48 48 49 48 47 46 45 45 44 44 43 43 43 43 43 44 44 44 43 42 41
41 43 44 46 47 49 49 49 48 48 48 48 48 47 47 47 47 47 47 47 47 48 48 47 47 46 45 44 44 43 43 43 43 43 43 43 43 43 43 42 41 41 40
38 40 42 44 45 47 48 48 48 48 47 47 47 47 47 47 47 47 47 47 46 46 46 45 45 44 43 42 42 42 42 42 42 41 41 42 42 41 41 40 39 38 37
36 37 40 42 43 44 45 46 46 46 46 46 46 46 46 46 46 45 45 45 45 45 44 43 42 41 40 40 40 40 40 40 40 39 40 40 40 39 39 38 37 36 36
34 35 37 39 40 42 43 43 44 44 45 44 44 44 44 44 44 45 45 44 43 42 41 40 38 38 38 38 38 38 38 38 38 38 38 38 38 37 36 35 35 34 34
32 34 35 37 38 39 40 41 41 42 42 42 42 42 42 42 42 42 41 41 40 39 38 37 36 36 36 36 36 36 36 36 36 36 36 36 36 35 34 34 34 34 34
31 32 33 34 35 35 36 37 39 39 39 39 40 41 40 40 40 39 38 37 36 35 35 34 34 34 34 34 34 34 34 34 34 35 35 34 34 33 33 34 33 33 33
31 31 32 33 34 34 34 34 35 36 37 37 37 37 36 36 36 35 34 33 33 33 32 32 31 31 31 31 31 32 32 33 33 33 33 33 33 32 33 33 33 33 33
30 31 31 32 32 33 32 32 32 33 33 33 33 33 33 32 32 31 31 31 31 30 29 29 29 28 28 29 30 30 30 31 32 32 32 31 31 32 33 33 33 33 34
28 29 29 29 30 30 30 30 30 30 30 30 30 30 30 29 29 29 28 28 28 27 27 27 26 27 27 27 28 28 29 30 31 31 31 31 31 32 33 33 34 34 34
26 27 27 26 27 27 27 27 27 27 27 27 27 27 27 27 27 26 26 26 26 25 25 25 25 25 26 26 27 28 29 30 30 31 31 32 32 33 33 34 34 35 35
23 24 25 25 25 25 25 26 25 25 25 26 26 26 26 26 26 25 25 25 24 24 24 24 25 25 26 27 28 29 30 30 31 31 32 33 33 34 34 35 35 36 37
22 22 23 23 23 24 24 25 25 25 25 25 25 25 25 25 25 25 25 24 24 24 24 25 25 26 27 28 29 30 30 31 32 32 33 34 34 35 35 36 37 37 38
21 21 21 22 23 23 23 24 25 25 25 24 24 25 25 25 25 25 25 25 25 25 25 26 26 27 28 29 30 30 31 32 33 34 34 35 36 36 37 37 38 38 39
20 21 21 22 23 23 23 24 25 26 26 26 25 25 25 26 26 26 26 26 26 26 27 27 28 29 29 30 31 32 32 33 34 35 35 36 37 37 38 38 39 40 41
22 22 22 23 23 23 25 25 25 25 26 27 27 27 27 27 26 27 27 27 27 28 28 29 29 30 31 32 33 33 34 35 35 36 37 37 38 38 39 40 41 41 42
23 23 24 25 24 25 25 25 25 26 26 27 27 28 28 28 28 28 29 29 30 30 31 31 31 32 33 33 34 35 35 36 37 37 38 38 39 40 40 41 42 42 43

GEFSMW_500_meanwind_066.txt.gz
Wind_Speed
51 50 49 48 47 46 45 44 43 44 44 44 43 42 41 40 39 38 37 37 36 35 35 35 35 35 35 36 36 37 38 38 39 40 41 41 42 42 44 44 45 45 45
51 51 51 51 50 49 48 47 46 46 45 45 45 44 44 43 42 41 40 40 39 39 38 38 38 38 38 38 39 40 40 40 41 43 43 43 43 43 44 45 46 46 45
53 52 51 51 52 51 50 50 50 49 47 47 46 46 46 45 45 44 43 42 42 41 41 41 40 40 40 40 41 42 42 43 44 44 45 46 46 45 44 44 44 45 44
53 53 53 52 52 52 52 51 51 51 50 49 49 48 48 47 47 46 46 45 44 44 43 43 43 42 42 42 43 43 44 45 45 45 46 47 48 48 47 44 43 43 43
53 54 54 53 52 52 53 53 52 52 51 51 51 50 50 49 49 49 48 47 47 46 46 45 44 44 44 44 45 45 46 46 47 47 47 48 48 48 48 46 44 43 42
49 51 53 54 53 51 51 51 51 51 51 51 51 51 50 50 50 49 49 49 48 48 47 46 46 46 46 46 46 46 47 47 48 48 48 48 48 47 46 45 44 43 42
47 48 49 50 51 51 51 51 51 50 50 50 50 50 49 49 49 49 49 49 49 49 48 48 47 47 47 48 48 48 48 48 48 48 48 48 47 46 45 45 43 42 41
43 45 47 48 48 49 50 50 50 49 49 49 48 48 48 48 48 49 49 49 49 49 49 48 48 48 48 48 48 48 48 48 48 47 47 47 46 45 44 44 43 42 41
39 41 43 45 46 47 48 48 48 48 47 47 47 47 48 48 49 49 49 49 49 49 49 48 48 48 48 48 47 47 47 47 47 47 46 45 44 44 43 43 42 42 41
36 38 40 42 45 46 47 48 48 48 48 47 48 48 49 49 49 50 50 50 50 50 49 49 49 49 48 48 47 47 47 47 46 46 45 44 43 43 42 42 42 41 40
34 36 37 39 41 44 46 47 48 49 49 49 49 50 50 50 50 51 51 51 51 50 50 49 49 49 48 47 47 46 46 46 45 44 43 43 42 41 41 41 39 39 38
32 33 36 38 39 41 43 45 47 49 50 50 51 51 51 52 52 52 52 52 52 51 50 50 49 48 47 46 46 46 45 44 44 43 42 41 41 40 40 38 38 37 37
31 32 33 36 37 39 41 42 44 46 47 48 49 50 51 51 52 52 52 52 51 50 49 48 47 47 46 45 45 45 44 43 42 41 40 40 39 38 38 37 36 36 36
31 32 33 34 35 37 38 40 41 42 44 45 46 47 48 49 49 49 49 49 48 48 46 46 45 44 44 43 43 43 42 42 41 40 39 38 37 36 36 35 35 34 34
32 33 34 34 35 36 37 38 39 41 42 43 43 44 45 45 45 45 45 45 45 44 44 44 43 43 43 42 42 41 40 39 38 38 37 36 35 35 34 33 33 33 33
32 33 34 34 35 36 37 38 39 40 41 41 41 42 42 42 42 42 43 43 43 42 42 42 42 41 41 41 40 39 38 37 36 35 34 34 33 32 31 31 31 31 32
31 32 33 33 34 34 35 36 37 38 39 40 40 40 40 40 40 40 40 40 40 40 40 40 40 39 39 38 37 36 35 35 34 33 32 31 30 30 30 30 31 31 31
31 31 32 32 33 33 34 35 36 37 37 38 38 38 38 38 38 37 37 37 37 37 37 36 36 36 36 35 34 34 33 32 31 30 30 30 29 29 30 30 30 31 31
30 31 31 32 32 32 33 34 34 35 36 36 36 37 37 37 36 35 35 35 35 34 34 33 33 33 32 32 32 31 30 30 29 29 29 29 29 30 30 30 31 31 32
28 29 29 30 30 31 31 32 32 33 33 33 33 34 34 34 34 34 33 32 32 31 31 31 31 30 30 30 29 29 29 29 29 29 29 29 29 30 30 31 31 32 33
26 26 27 28 29 29 30 30 29 29 29 29 29 30 30 30 31 31 31 30 30 29 29 30 29 29 29 29 29 29 28 28 29 29 29 29 30 30 31 31 32 33 33
24 24 25 25 26 27 28 28 28 27 27 27 28 28 28 28 28 28 28 28 28 28 28 29 29 28 28 28 28 28 29 29 30 30 30 30 31 31 32 32 33 34 35
22 23 24 25 25 26 26 26 26 26 26 26 26 26 26 27 27 28 28 28 28 28 28 28 28 29 29 29 29 29 30 30 31 31 31 31 32 32 33 33 34 36 36
22 22 23 24 24 24 25 25 25 25 25 25 26 26 26 27 27 27 27 27 27 28 28 28 29 29 29 29 30 30 31 32 32 32 32 33 33 34 35 36 36 37 38
23 23 23 23 23 24 25 25 25 25 26 26 26 26 26 26 27 27 27 28 28 29 29 29 30 30 30 31 31 32 32 33 33 33 34 34 35 36 37 38 38 39 40
24 24 24 24 24 25 25 26 26 26 26 26 27 27 28 28 28 27 28 28 28 29 30 30 30 31 32 32 33 33 33 34 34 34 35 36 37 38 38 39 39 40 41

GEFSMW_500_meanwind_072.txt.gz
Wind_Speed
52 50 49 49 48 48 47 46 45 44 43 42 41 40 39 38 38 38 39 39 38 38 37 37 36 35 35 35 34 35 35 35 36 37 37 37 38 38 39 39 41 42 42
51 50 49 48 48 47 47 48 47 45 44 43 42 41 41 40 40 40 40 41 41 40 40 40 39 39 39 38 38 39 39 39 39 40 40 40 39 40 40 40 41 42 43
49 49 49 48 48 48 47 47 47 48 46 45 45 44 43 42 42 42 43 43 43 43 43 43 43 42 42 42 42 42 42 42 42 43 44 44 43 42 41 42 41 42 43
48 48 48 48 47 47 48 49 48 48 48 48 47 47 46 46 45 45 45 45 45 45 45 45 45 45 45 45 45 45 45 45 44 45 45 46 46 46 44 44 44 44 44
47 47 47 48 48 47 46 48 49 49 49 50 49 49 49 48 48 48 48 48 48 47 47 48 48 48 48 48 48 47 47 47 47 47 47 46 46 46 46 45 45 45 45
46 46 46 46 47 47 48 49 49 49 49 50 50 51 51 50 50 51 50 50 49 49 49 49 50 50 50 49 49 49 49 49 48 48 48 47 47 46 46 45 45 45 45
43 44 44 45 46 47 48 50 50 50 51 51 51 51 51 52 51 52 52 51 52 51 51 51 51 51 51 51 51 50 50 49 49 48 48 47 47 46 46 45 45 45 45
40 41 43 44 45 46 48 49 50 51 52 52 52 52 53 53 53 53 53 53 53 52 52 51 51 51 51 51 51 50 50 49 49 48 48 47 46 46 46 46 46 45 45
38 39 40 41 42 44 46 47 49 50 51 51 51 52 52 52 53 53 53 54 53 52 51 50 50 51 51 51 50 49 49 48 48 48 48 47 47 47 47 46 46 46 44
35 37 38 39 41 42 44 45 47 49 50 51 51 51 52 52 52 53 53 53 52 52 51 50 50 50 50 50 49 49 49 49 48 48 48 48 48 48 47 47 46 45 44
31 32 34 36 37 39 42 44 46 46 48 49 49 50 51 52 52 52 51 51 51 51 50 50 50 50 50 50 50 50 50 49 49 49 48 48 47 47 47 46 45 44 43
29 30 31 32 33 34 36 39 41 43 45 46 47 47 48 49 49 49 50 50 50 50 50 51 51 51 51 51 51 51 51 50 50 49 49 48 47 47 46 44 43 43 42
29 29 30 30 31 31 33 34 35 37 39 41 43 44 46 47 47 48 49 50 51 51 51 51 51 52 52 52 52 51 51 50 50 49 48 47 46 45 44 43 42 41 40
27 27 28 28 29 30 31 32 33 35 36 38 39 41 42 43 45 46 47 48 49 50 51 51 51 51 51 51 50 50 49 48 48 47 46 45 45 44 43 42 41 39 37
26 27 27 28 29 29 31 32 33 34 36 37 38 39 40 42 43 44 45 46 46 47 47 48 48 48 48 48 47 47 46 46 45 44 44 43 42 41 40 39 38 36 35
28 28 29 29 30 31 32 32 33 34 35 36 37 38 39 40 42 43 44 44 44 45 45 45 45 45 45 45 45 44 44 43 42 42 41 40 39 38 37 35 34 33 32
29 30 30 30 31 32 32 33 33 34 35 36 37 38 38 39 40 41 42 42 42 42 43 42 42 42 42 42 42 42 41 41 40 39 39 38 37 36 34 33 33 32 31
30 31 31 31 32 32 32 33 34 34 35 35 36 37 37 38 39 40 40 40 41 41 41 41 40 40 40 40 40 39 39 38 37 37 36 35 33 33 32 32 31 31 31
31 31 32 32 32 33 33 34 34 35 35 35 36 36 37 37 38 38 38 38 38 38 39 39 39 38 38 37 37 36 35 35 34 33 32 31 31 30 30 30 30 31 31
31 31 32 32 33 33 33 34 34 35 35 35 35 35 35 35 36 36 36 36 36 36 35 35 35 35 35 35 34 33 32 32 31 30 30 30 29 29 29 30 30 31 31
30 31 31 32 32 32 32 32 33 33 33 33 34 34 34 34 33 33 33 32 32 32 32 32 32 32 32 32 31 31 30 30 30 30 30 30 29 29 30 30 30 31 31
30 30 30 30 30 31 31 32 32 31 31 32 32 32 32 32 32 31 31 30 30 30 29 29 29 29 29 29 29 29 29 29 29 29 29 29 29 30 30 31 31 32 32
30 29 29 29 29 29 30 30 31 31 31 31 31 31 31 31 31 30 29 29 28 28 28 28 28 28 29 29 29 28 28 28 28 28 29 29 29 30 31 32 32 33 33
30 30 30 30 30 30 30 30 30 31 31 31 31 31 31 30 30 29 28 28 28 27 27 27 27 28 28 28 28 28 28 29 29 29 30 30 31 32 33 33 33 34 35
31 31 31 31 31 30 30 30 30 30 30 30 30 29 29 29 29 29 29 29 28 27 27 27 27 28 28 28 29 29 29 30 30 31 31 32 32 33 33 34 34 35 36
31 32 32 31 31 31 31 31 31 30 30 30 29 29 28 28 28 28 28 28 28 28 28 28 28 29 29 29 29 30 31 31 31 31 32 33 33 34 35 35 36 36 37

GEFSMW_500_meanwind_078.txt.gz
Wind_Speed
49 49 48 46 44 43 43 41 41 39 39 38 37 36 35 34 33 33 33 34 34 34 34 34 34 34 35 35 35 35 35 35 36 35 35 35 36 37 38 39 39 40 40
48 48 48 47 46 45 43 42 41 41 40 40 39 39 39 38 37 35 35 36 37 36 36 36 37 37 37 37 38 38 38 39 39 39 39 38 38 39 40 41 41 42 42
45 46 46 46 45 44 44 43 43 43 41 41 42 41 41 40 40 39 39 39 40 39 38 39 39 39 39 39 40 41 41 41 41 42 42 42 41 40 40 41 42 43 43
44 44 44 44 44 44 44 44 44 44 43 43 43 43 43 42 42 43 43 43 42 42 42 42 42 42 42 42 43 43 43 43 42 43 44 45 45 44 43 42 43 43 43
41 41 42 43 43 44 45 44 44 44 44 44 44 44 44 44 44 45 45 45 44 44 44 44 45 44 45 45 45 44 44 44 44 44 45 45 46 46 47 45 44 44 44
39 40 41 42 43 43 44 44 44 44 44 45 45 45 45 46 46 47 47 47 47 47 47 47 47 46 46 46 47 47 47 47 47 47 47 47 47 48 48 47 47 45 44
36 38 40 41 41 42 43 43 44 45 45 45 46 46 46 46 47 47 48 48 48 49 49 49 49 49 49 49 49 49 49 49 48 48 48 48 49 49 49 48 47 46 45
35 36 37 39 40 41 42 43 43 44 45 45 46 47 47 48 48 49 49 49 50 50 50 50 51 51 51 51 51 51 51 50 49 49 49 49 49 49 48 47 46 45 44
34 36 37 38 40 41 42 43 44 45 45 45 45 46 46 47 48 49 50 50 51 51 51 51 52 52 52 53 52 52 51 51 51 50 50 49 49 48 47 47 46 46 45
34 34 35 36 38 40 42 42 43 43 44 45 46 47 48 48 49 50 51 52 52 52 52 51 52 52 52 52 52 52 51 51 51 50 50 49 49 48 48 47 47 47 46
33 34 35 36 37 38 39 41 42 43 44 45 46 47 48 48 49 50 51 51 52 52 53 53 53 53 52 52 52 52 52 51 51 50 50 50 49 49 48 48 48 47 47
32 33 34 35 36 37 38 39 40 42 43 44 44 45 46 47 48 49 49 50 51 52 52 53 53 53 53 53 52 52 52 51 51 50 50 50 50 49 48 48 48 48 47
31 32 33 34 35 36 37 37 38 40 41 42 43 44 45 45 46 47 48 49 50 50 51 52 52 52 52 52 51 50 50 50 49 49 49 49 48 48 47 47 47 46 45
30 32 33 34 34 35 35 36 37 38 38 39 40 41 41 42 44 45 46 47 47 47 48 48 49 49 49 48 47 47 47 47 47 47 47 47 46 46 45 45 44 44 43
29 31 33 34 34 35 35 35 35 36 36 37 37 38 39 40 40 41 42 42 43 45 45 45 45 45 45 45 45 45 45 45 46 45 45 45 44 44 43 43 42 41 40
30 31 32 33 34 34 34 34 35 35 36 37 37 38 38 39 40 41 41 41 42 43 43 43 43 43 43 44 44 44 44 44 44 44 43 43 42 42 41 40 39 38 38
31 32 33 33 34 35 35 35 35 36 36 36 37 38 39 39 39 40 40 41 41 42 42 42 42 43 43 44 44 44 43 43 43 42 41 40 40 39 39 38 37 36 35
32 33 34 34 35 36 36 36 37 37 37 38 38 38 39 39 40 41 41 41 42 42 42 42 42 42 42 42 42 42 41 41 40 40 39 39 38 38 37 36 35 34 34
35 35 36 36 37 37 38 38 38 39 39 40 40 40 41 41 42 42 42 42 42 42 42 41 41 41 41 40 39 39 38 38 37 37 37 36 36 35 35 34 33 33 32
36 37 37 37 38 38 38 38 39 39 39 40 40 40 41 41 41 41 42 42 42 42 41 41 40 39 39 38 37 36 35 35 34 34 34 34 33 33 32 32 31 30 30
36 36 37 37 38 38 38 39 38 38 39 39 39 40 40 40 41 41 41 41 41 40 40 39 38 37 36 36 34 34 33 33 32 32 31 31 30 30 30 30 30 29 29
36 36 36 37 37 37 37 38 38 38 38 38 38 38 39 39 39 39 39 39 38 38 38 37 36 36 35 34 33 32 31 31 30 30 29 29 29 29 29 29 29 28 28
36 37 37 37 37 37 37 37 37 37 37 37 37 37 37 37 37 38 38 37 37 36 36 35 34 34 33 33 32 31 31 30 30 29 28 28 28 28 28 28 28 28 28
35 36 36 37 37 37 37 37 37 37 36 36 36 36 36 36 36 36 36 36 36 35 34 33 33 32 32 31 30 30 30 30 29 28 28 28 28 28 28 28 28 28 29
36 36 36 36 36 36 37 36 36 36 36 36 36 36 36 36 36 36 35 35 34 34 33 32 32 31 31 30 30 30 30 29 28 28 28 28 28 28 28 29 29 29 30
36 37 37 37 37 37 36 36 37 37 37 37 36 36 36 36 36 35 35 34 34 33 32 31 31 31 31 30 30 30 30 29 29 28 28 28 29 29 30 30 30 30 31

GEFSMW_500_meanwind_084.txt.gz
Wind_Speed
47 45 42 40 37 36 38 39 37 35 35 36 35 35 34 34 33 31 30 28 28 29 29 30 30 30 30 31 32 33 34 35 36 36 36 37 38 39 40 40 41 41 42
47 45 43 41 37 36 35 34 35 35 35 35 35 33 33 34 34 33 32 31 31 31 31 32 33 33 33 33 34 35 36 37 38 38 39 39 39 40 41 42 43 44 44
46 46 43 40 39 37 36 34 34 35 35 35 34 34 34 34 34 35 34 34 35 34 34 34 34 34 34 34 36 36 38 38 39 40 41 42 41 41 41 42 43 44 44
45 44 42 41 40 39 37 35 35 36 36 36 35 35 35 34 34 34 35 35 35 35 34 34 35 35 35 36 37 38 39 40 41 43 44 44 45 44 42 41 43 44 45
44 43 41 41 41 41 39 38 37 36 36 36 36 35 35 35 35 35 36 36 36 36 36 36 37 37 38 39 40 40 40 41 42 43 44 44 44 45 45 44 44 45 46
43 43 42 41 41 40 40 39 39 39 38 37 36 37 37 36 37 37 36 37 37 37 37 38 39 40 41 41 41 42 42 43 44 44 45 46 46 47 48 48 47 47 47
40 40 40 40 40 40 40 39 39 39 39 39 39 40 39 39 38 38 38 38 39 40 40 40 41 42 42 43 44 45 45 46 46 47 48 49 49 50 50 50 49 48 48
37 37 37 38 38 38 39 39 40 40 40 41 41 41 40 40 40 40 40 41 42 42 43 44 44 45 45 47 48 48 48 48 49 49 50 50 50 50 50 50 50 49 48
35 34 34 36 38 38 38 39 39 40 41 41 42 42 42 42 41 42 42 43 44 45 46 47 47 47 48 49 49 49 49 49 49 50 50 50 51 50 50 50 50 50 49
32 35 35 34 35 36 37 38 39 40 40 41 42 42 42 42 43 43 43 44 45 46 46 47 48 48 49 50 50 51 51 51 50 51 51 51 51 51 51 51 51 51 50
30 32 33 34 34 35 36 37 38 39 40 41 41 42 43 44 44 45 45 46 47 47 48 48 49 49 49 50 50 51 51 51 52 51 51 52 52 52 51 51 51 50 50
27 29 32 33 34 35 37 38 39 40 41 41 42 43 44 45 46 46 47 47 48 49 49 50 50 50 51 51 52 52 52 51 51 51 51 51 51 51 51 50 50 49 49
27 29 31 34 35 36 38 39 40 41 42 43 43 44 45 46 47 47 48 49 49 50 50 51 51 51 51 51 51 51 51 50 51 51 51 50 50 50 49 49 48 48 47
27 29 32 34 36 38 39 41 42 43 43 44 45 46 47 47 47 48 48 49 49 50 50 50 50 49 49 49 48 48 48 48 48 48 48 48 48 48 48 47 46 46 45
29 31 33 36 37 39 41 42 44 45 45 46 46 47 47 48 48 48 48 48 49 49 48 48 47 47 47 46 46 46 46 46 46 47 47 48 48 47 46 46 45 45 44
30 32 34 37 39 40 42 43 45 45 46 46 46 47 47 47 47 46 46 47 47 46 46 46 46 46 46 46 46 46 45 45 46 46 46 45 45 45 45 44 44 43 42
32 35 37 38 40 41 42 44 45 46 46 47 47 47 47 47 47 47 46 46 46 46 46 45 45 45 45 45 45 45 44 45 45 44 44 44 43 43 42 42 41 41 40
34 35 37 39 41 42 43 44 45 46 46 47 47 47 47 47 47 47 47 47 46 46 45 45 45 45 45 45 45 45 45 45 45 44 44 43 42 41 41 40 39 38 37
36 38 39 40 41 43 44 45 46 47 47 47 48 48 48 48 48 47 47 47 47 46 45 45 45 45 45 45 45 45 45 45 44 44 43 42 41 40 39 37 36 35 34
38 40 41 42 43 44 45 46 46 47 47 48 48 48 48 48 48 48 48 47 47 46 46 46 46 46 45 45 45 45 44 44 43 43 42 41 40 38 37 36 34 33 32
40 41 42 43 44 45 45 46 46 47 47 48 48 48 48 48 48 48 47 47 46 46 46 46 46 45 45 45 45 44 43 43 42 41 40 38 37 35 34 34 32 31 31
40 41 43 44 44 45 46 46 46 47 47 47 47 47 48 48 48 47 47 46 46 46 46 45 45 44 44 44 43 43 42 41 40 39 37 36 34 34 33 32 32 31 30
40 41 42 44 45 46 46 46 46 46 46 46 47 47 47 47 47 46 46 46 46 45 45 44 44 44 43 43 42 41 40 39 38 37 36 35 33 33 32 32 31 30 30
41 42 43 44 45 46 46 47 46 46 46 46 46 46 46 46 46 46 45 45 45 44 44 44 43 42 42 41 40 39 39 38 37 36 34 34 33 32 31 31 30 30 29
42 43 43 43 44 45 45 46 46 46 46 46 45 45 45 45 45 45 45 45 44 43 43 43 43 42 41 41 40 39 38 37 36 35 34 33 33 32 32 31 30 30 29
43 44 44 44 45 45 45 46 46 46 46 45 45 44 44 44 44 44 44 44 44 44 43 42 42 42 41 40 40 39 38 37 35 34 33 33 33 32 32 31 31 30 30

GEFSMW_500_meanwind_090.txt.gz
Wind_Speed
47 47 44 44 41 39 40 44 47 48 49 49 50 50 50 50 48 46 45 44 42 40 37 37 36 35 34 34 33 33 33 32 32 32 33 33 33 34 35 36 36 37 38
49 46 43 44 42 39 40 43 44 46 46 48 46 45 47 47 47 46 45 44 43 40 38 37 37 37 37 36 35 35 34 34 34 33 33 33 34 35 36 36 37 38 39
48 45 41 41 41 38 37 40 43 43 43 44 43 43 45 46 46 46 45 44 43 41 40 40 40 39 37 36 36 36 35 35 35 34 33 34 35 35 36 37 38 39 40
44 42 40 38 38 37 37 39 39 40 41 43 44 42 43 44 45 46 45 45 44 43 41 40 40 39 37 36 36 36 36 36 34 34 34 35 35 36 36 36 37 39 40
40 39 37 35 34 35 35 37 39 39 41 43 43 42 41 41 42 44 43 42 42 43 42 41 40 39 37 36 36 36 34 33 33 34 34 35 36 36 37 37 39 41 42
35 35 33 33 32 32 34 35 34 34 35 38 39 41 41 41 40 40 40 39 40 41 40 40 40 39 38 37 37 36 34 33 34 35 36 37 38 39 40 40 42 43 43
32 31 30 29 29 28 30 32 31 31 31 33 34 35 36 38 37 38 39 39 40 40 41 41 40 39 37 37 36 36 35 34 35 37 38 39 40 40 41 42 43 44 45
29 30 28 27 28 27 27 28 29 29 30 31 31 32 33 34 35 35 36 36 36 36 37 37 37 37 37 36 36 35 35 36 37 38 39 40 41 42 43 44 45 46 46
24 26 27 27 27 28 28 28 27 28 28 29 29 30 33 34 35 36 36 36 35 35 36 36 36 37 38 38 37 37 38 39 40 41 42 43 44 45 45 46 47 47 47
20 22 23 24 24 25 26 28 29 29 28 28 29 30 30 32 33 34 34 34 34 34 35 36 37 37 38 39 40 41 41 42 43 44 44 45 46 46 47 47 47 47 47
16 17 20 23 24 25 25 27 28 29 30 30 31 32 32 32 33 34 34 35 35 36 36 37 37 38 40 41 42 42 44 44 44 45 45 46 46 46 47 47 47 47 48
14 16 18 20 22 25 26 28 29 30 31 31 32 33 34 35 36 37 37 37 38 38 40 41 41 41 42 43 43 44 45 46 46 47 46 46 46 47 47 47 47 47 46
14 15 17 20 22 24 26 28 30 32 33 34 34 35 37 37 38 39 40 41 42 42 43 44 44 44 44 45 45 45 45 45 46 46 46 46 46 46 46 46 45 45 45
16 18 20 22 24 26 28 30 32 33 35 36 37 37 38 39 40 41 42 43 44 44 45 45 46 45 45 45 45 46 46 45 45 45 45 45 45 45 44 44 44 44 44
17 20 22 24 27 29 32 34 35 37 38 40 41 42 43 43 43 44 45 46 46 46 47 47 47 47 47 47 46 46 46 45 45 45 44 44 44 43 43 43 43 43 42
19 21 24 26 29 32 35 37 39 40 42 43 44 45 46 47 47 47 48 48 48 48 48 48 48 48 48 47 47 46 46 45 44 44 44 43 43 43 43 42 42 42 41
21 23 25 28 31 33 36 39 41 43 45 46 47 48 48 49 50 50 50 49 49 49 49 49 48 48 47 47 46 46 46 45 44 44 44 43 43 42 42 42 42 41 41
23 26 28 31 33 36 38 40 42 44 46 47 48 49 50 50 51 51 50 50 50 50 49 49 49 48 47 47 47 46 46 45 45 45 44 43 42 42 42 41 41 41 40
27 29 31 34 36 38 40 43 45 46 47 49 50 50 51 51 52 51 51 51 50 50 50 49 49 48 48 48 47 47 46 46 45 45 44 44 43 42 41 41 41 40 39
30 33 35 38 40 42 44 46 47 49 50 51 52 52 52 52 52 52 51 51 51 50 50 50 49 49 48 48 47 47 46 46 46 45 44 44 43 42 41 41 40 39 38
31 34 36 39 42 44 47 49 50 52 53 54 54 55 54 54 54 53 52 52 51 51 51 51 50 49 49 48 48 47 46 46 45 45 44 43 42 41 41 40 39 38 37
33 36 38 40 42 45 47 49 51 53 54 55 56 56 55 55 54 54 53 52 52 52 51 50 50 49 48 48 47 47 46 45 45 44 43 42 41 40 39 39 38 38 36
35 38 40 42 44 46 48 49 51 52 53 54 55 55 55 55 54 54 53 52 52 51 51 51 50 49 49 48 47 47 46 45 44 43 42 41 40 39 39 38 38 37 36
38 40 41 43 45 48 49 51 52 53 54 54 54 54 53 53 52 52 52 52 51 50 50 50 49 49 49 48 48 47 47 46 45 43 42 41 40 39 39 38 37 36 35
41 42 44 46 47 49 50 52 52 53 53 53 53 53 53 53 52 51 51 50 50 49 49 49 49 48 48 48 48 46 45 45 44 43 42 41 41 40 38 37 36 36 35
43 45 46 47 49 50 51 51 52 52 52 52 52 52 52 52 52 51 50 49 49 49 49 48 48 48 48 47 47 46 45 44 44 43 42 41 40 39 38 37 36 35 34

GEFSMW_500_meanwind_096.txt.gz
Wind_Speed
39 41 45 50 52 52 51 52 54 52 50 52 52 51 50 50 54 55 54 53 51 49 48 46 46 45 43 41 41 39 38 36 35 34 34 34 33 33 34 34 34 33 33
34 36 41 45 48 48 49 50 50 48 48 49 49 47 47 48 51 54 54 53 52 50 49 48 47 45 43 43 42 41 39 37 36 36 35 35 35 35 35 35 35 35 34
29 34 39 40 41 43 44 48 49 48 46 45 46 47 47 48 49 51 52 52 52 52 51 50 48 47 45 44 43 41 40 38 37 37 37 37 36 36 36 36 36 35 34
25 28 34 36 35 37 39 41 43 45 46 44 44 45 46 47 48 49 49 50 51 52 52 50 49 48 46 44 44 43 42 39 38 37 37 37 37 37 36 36 35 35 34
19 22 26 30 31 34 34 35 38 40 40 41 43 42 42 43 44 46 46 45 45 47 48 49 49 48 47 46 44 43 42 40 39 38 37 37 37 37 37 36 36 36 36
14 17 20 23 27 29 31 33 36 36 37 37 39 41 40 39 41 42 43 43 44 45 46 48 48 47 47 45 44 43 42 41 41 39 40 39 38 39 38 37 36 35 35
11 13 15 16 19 22 26 28 29 28 30 34 36 38 38 37 39 40 41 43 44 44 45 46 46 45 45 44 44 43 42 41 41 41 41 40 40 39 39 37 36 35 35
8 9 9 10 12 14 17 20 23 23 24 27 31 34 36 36 36 37 39 41 42 42 43 43 44 45 45 44 44 44 43 43 44 44 43 42 40 39 38 37 37 36 36
8 7 7 9 11 11 12 13 15 20 21 21 23 29 33 35 36 37 37 38 39 40 41 41 42 42 43 43 44 44 44 44 45 44 43 42 40 39 38 37 37 37 38
10 8 6 7 9 9 10 10 12 14 16 17 18 22 27 30 33 35 36 36 37 39 42 43 42 42 42 42 44 44 43 43 44 44 43 41 40 39 38 39 40 40 40
11 9 7 6 6 7 7 9 10 12 14 15 15 17 21 24 27 30 30 31 32 33 35 37 38 40 42 43 43 42 41 42 43 43 42 41 40 40 40 41 41 42 42
11 9 6 5 4 6 7 7 8 9 11 12 13 15 18 21 24 26 29 31 33 34 35 36 37 38 40 40 41 41 41 41 43 44 43 42 43 43 43 43 44 45 45
9 7 5 3 2 3 6 6 7 8 11 13 15 16 17 19 23 26 29 30 32 33 34 35 36 37 38 39 39 40 40 41 42 43 44 44 44 44 45 45 46 47 47
6 5 3 2 2 4 6 8 9 11 13 15 17 19 20 22 23 25 27 30 31 32 34 35 36 38 39 40 41 43 44 44 44 45 46 46 46 46 46 46 47 47 47
3 2 2 3 5 7 9 11 13 15 17 19 21 23 25 26 28 30 32 33 34 36 37 38 40 41 42 44 45 46 47 48 48 48 48 48 48 47 48 48 47 47 47
3 4 6 7 10 12 14 15 17 19 21 24 26 27 29 31 33 35 36 38 39 41 43 44 44 45 46 48 49 49 50 50 49 49 49 50 50 49 48 48 47 46 46
6 8 9 11 13 15 17 19 21 23 26 28 30 32 34 36 39 40 42 43 44 45 46 47 48 49 50 50 51 51 51 51 51 50 50 50 49 49 48 47 47 46 46
9 11 13 15 16 18 21 23 25 27 30 32 34 37 39 41 43 45 46 47 49 50 50 51 51 52 52 53 53 52 52 51 51 51 50 49 49 49 49 47 47 46 46
12 14 16 18 20 23 25 27 30 32 34 37 40 42 45 47 48 50 51 52 52 53 53 54 54 54 54 54 54 53 53 52 51 51 51 51 50 49 49 48 48 47 46
15 17 19 22 24 26 29 31 33 36 39 41 44 47 49 51 52 54 55 55 56 56 56 55 54 54 54 54 54 53 53 52 52 52 51 51 50 50 49 48 48 48 46
18 20 22 24 27 30 32 35 38 40 43 46 48 50 52 54 56 57 57 58 58 57 56 56 55 55 54 54 53 53 53 53 53 53 52 51 50 50 49 49 48 47 46
21 23 25 28 31 34 36 39 42 45 47 49 52 54 56 58 59 59 60 60 59 59 58 56 55 54 54 53 53 53 52 53 53 53 52 52 51 50 49 49 47 46 45
24 27 29 32 36 39 41 44 47 50 52 53 55 57 59 61 62 62 62 61 60 58 57 56 55 54 53 53 53 53 53 53 53 52 53 52 52 51 49 49 47 46 45
29 31 34 37 40 43 46 49 51 53 55 57 58 60 61 62 63 63 62 61 60 59 57 56 54 54 53 53 53 53 53 54 53 52 52 51 51 51 49 48 47 46 45
32 35 38 41 44 47 50 52 55 56 58 60 61 61 61 62 62 61 60 59 58 58 56 55 54 52 51 51 52 52 52 52 52 52 51 50 49 48 48 47 47 45 44
36 39 42 45 48 50 53 55 57 59 60 60 60 61 61 61 60 59 58 57 56 55 55 54 52 50 50 50 50 51 51 51 51 51 50 50 49 48 47 46 45 44 43

GEFSMW_500_meanwind_102.txt.gz
Wind_Speed
40 46 50 53 55 57 58 59 58 57 58 57 54 53 52 52 53 55 55 56 55 55 54 53 53 51 49 48 46 45 44 43 42 41 40 39 38 37 36 36 36 36 35
34 38 42 45 50 54 55 57 58 58 57 56 54 54 52 53 51 52 52 53 54 55 53 53 53 52 51 50 50 48 47 46 44 43 42 41 39 38 38 38 37 38 37
24 30 35 39 42 47 50 53 55 57 57 57 53 53 52 52 51 51 50 50 50 52 52 52 53 54 54 52 51 51 49 48 46 44 43 42 41 41 41 39 39 38 38
16 21 25 28 33 39 43 46 50 52 54 54 53 53 52 51 49 48 48 50 49 49 50 50 52 53 54 54 52 52 50 49 47 45 44 43 42 41 40 39 38 38 38
11 15 20 20 25 31 36 38 42 46 48 49 50 51 51 50 48 47 48 49 49 50 52 50 50 50 51 51 51 50 49 49 48 47 45 44 43 43 42 40 40 39 39
7 11 14 15 18 23 28 33 38 39 42 42 45 49 49 49 49 47 46 48 48 48 51 52 50 49 49 49 49 48 47 48 47 46 46 45 44 44 43 41 41 41 40
10 11 12 13 15 18 22 25 30 33 36 37 40 44 46 44 45 45 43 43 45 45 47 49 49 49 50 49 49 47 47 47 46 46 46 46 45 43 41 41 41 42 42
13 11 12 13 16 18 19 19 22 26 29 32 36 40 41 40 40 41 41 41 42 44 44 47 47 46 45 46 46 47 47 48 48 47 47 46 45 44 43 42 43 43 44
15 15 15 15 15 15 15 16 19 20 23 27 31 33 35 36 35 37 38 38 39 42 43 44 42 42 42 42 44 45 45 46 45 46 46 45 45 46 46 46 46 46 46
16 16 15 14 13 13 12 12 14 15 18 21 24 27 30 33 34 33 33 36 36 37 39 42 42 42 42 42 43 44 45 46 46 47 47 48 48 47 48 48 48 49 49
18 18 16 15 13 13 13 12 12 13 15 16 19 23 25 27 29 30 31 32 32 33 34 36 38 40 41 44 45 46 46 47 48 48 48 48 48 48 49 50 50 51 51
16 17 16 15 13 12 12 12 12 12 13 14 15 19 22 23 24 26 28 29 31 32 34 35 37 39 41 43 44 46 47 47 47 48 48 48 49 50 51 52 51 50 50
15 14 13 12 12 11 11 11 11 10 11 12 14 15 17 20 22 23 25 28 29 31 33 35 37 39 40 41 43 45 47 48 50 51 51 52 53 53 53 53 51 51 50
12 12 11 10 10 9 8 8 9 9 9 9 10 11 13 15 18 19 21 24 28 30 33 36 38 40 42 43 45 47 48 49 50 52 53 52 52 52 53 53 52 52 52
9 9 8 8 8 7 6 5 5 6 6 6 7 8 10 13 15 17 20 23 26 29 32 35 37 39 41 44 45 47 47 48 49 50 51 52 53 53 53 54 54 54 54
7 7 7 6 6 6 4 3 1 3 4 6 7 9 11 13 16 19 21 23 26 29 32 35 38 40 42 44 46 48 49 50 51 52 54 54 55 56 56 57 57 57 56
6 6 5 4 3 2 1 1 2 4 5 7 10 12 15 17 20 23 25 27 30 32 35 38 41 44 45 47 48 50 52 53 54 54 55 55 57 58 58 59 60 59 59
4 3 3 3 3 4 5 6 8 10 12 14 16 18 21 24 26 29 31 33 35 37 39 42 45 47 49 51 51 52 54 54 55 56 57 57 58 60 60 61 61 60 60
2 3 4 6 7 9 11 12 14 16 18 20 22 25 27 30 32 35 37 40 42 44 46 48 50 52 54 56 56 57 57 58 58 59 59 60 60 61 62 62 62 62 61
4 6 8 10 12 13 16 18 19 21 23 25 27 30 32 35 38 41 43 46 49 51 53 54 55 57 58 58 59 60 61 60 60 60 60 61 62 63 63 63 62 62 61
8 10 12 14 16 18 20 22 24 26 28 30 32 35 38 41 43 46 49 52 54 57 59 60 60 60 61 61 62 62 63 62 62 61 61 61 62 63 63 62 61 61 60
12 14 16 17 19 21 23 25 27 30 32 35 37 40 43 46 49 52 55 57 60 62 63 64 64 64 64 64 64 64 63 63 63 61 61 60 61 62 62 62 61 60 59
14 16 18 21 23 25 27 29 31 33 36 39 42 45 48 51 54 57 60 62 64 65 65 66 66 65 65 65 65 64 62 62 62 61 60 60 60 60 60 61 61 60 58
17 20 22 24 26 29 31 33 36 38 41 44 46 49 52 55 58 61 63 65 66 66 66 66 66 65 64 63 63 62 61 61 61 60 60 59 59 58 58 59 59 59 58
22 24 26 29 31 33 36 38 41 44 46 49 52 54 57 59 61 63 64 64 64 65 65 64 64 63 61 60 60 60 59 59 60 59 59 58 57 57 57 57 57 56 55
26 28 31 33 35 38 41 43 46 49 51 54 56 59 61 62 63 63 62 62 61 61 62 61 61 60 59 58 58 57 57 56 56 56 55 55 55 54 54 55 55 54 52

GEFSMW_500_meanwind_108.txt.gz
Wind_Speed
43 46 49 51 52 54 56 59 62 64 64 63 63 63 62 60 58 56 54 52 50 49 50 50 51 50 50 50 50 49 48 47 46 45 43 43 42 40 40 40 40 39 39
38 41 45 48 49 51 53 55 58 60 62 62 62 62 62 62 60 60 57 53 51 50 50 50 50 50 51 51 52 51 50 49 48 47 46 45 44 43 42 42 41 41 41
30 33 38 42 44 46 49 52 54 57 59 60 60 60 61 61 61 60 58 56 53 51 50 50 50 50 50 50 51 51 50 50 50 49 48 47 46 45 44 43 43 43 42
25 27 29 33 37 40 43 47 49 52 56 58 58 59 59 59 60 59 57 57 55 52 51 51 51 50 49 49 49 49 49 50 50 49 49 48 48 47 47 45 45 45 45
18 19 20 23 28 33 37 40 43 47 51 54 55 57 57 57 58 59 58 58 56 54 53 52 51 51 50 50 50 49 49 49 50 50 49 50 50 50 49 47 46 46 45
13 14 14 15 18 23 28 33 37 40 45 48 50 53 55 55 56 57 57 56 55 54 53 51 50 50 49 49 50 50 50 51 51 52 51 51 51 49 49 48 47 46 45
8 9 8 8 10 14 18 23 29 34 38 42 45 48 50 51 52 53 56 56 54 53 51 50 50 50 50 49 50 51 50 51 52 52 51 51 51 50 50 49 48 48 47
5 3 3 3 6 9 13 16 20 25 29 33 37 41 44 46 48 49 51 52 52 50 49 48 48 49 49 49 50 50 51 51 52 51 50 50 50 49 49 50 50 49 48
7 6 3 2 2 4 7 11 14 17 21 26 29 32 37 40 42 44 46 48 49 48 46 45 45 45 47 47 47 47 50 51 51 52 51 50 48 47 48 50 50 49 49
9 9 8 7 5 4 3 6 10 14 16 21 24 27 31 34 36 40 42 45 47 47 45 44 44 44 44 44 46 47 49 49 49 50 50 50 49 50 50 50 51 51 51
11 12 11 10 7 5 4 5 6 8 11 15 19 22 25 27 31 35 37 39 41 43 43 43 43 44 44 45 46 47 48 47 47 48 50 51 51 51 51 52 53 52 52
12 12 12 11 10 9 8 6 6 6 9 12 15 17 19 21 24 29 31 34 37 38 40 40 40 41 42 44 45 46 46 46 47 48 49 51 51 52 53 55 55 54 53
12 12 12 12 12 11 10 9 8 6 6 7 9 11 13 15 17 21 26 30 32 33 33 34 35 37 39 41 42 43 45 46 47 48 50 51 52 53 54 55 55 55 54
13 12 12 11 11 10 10 9 7 6 5 5 7 8 10 12 14 17 20 23 26 28 29 31 33 35 36 39 41 43 45 45 46 48 51 52 53 54 55 56 56 56 56
8 9 8 8 9 8 8 8 6 4 3 4 5 7 9 12 14 16 18 20 23 26 27 29 31 34 36 38 40 42 44 45 47 50 52 53 53 55 56 57 58 58 59
6 6 6 6 6 5 5 5 4 3 2 2 4 7 9 11 14 16 18 20 23 25 28 30 32 35 37 39 42 44 46 47 49 51 53 54 56 58 58 60 60 61 60
5 5 6 6 5 5 5 4 3 2 2 2 4 6 9 11 14 17 20 22 24 26 28 30 33 35 38 41 43 45 47 49 51 54 56 57 59 61 61 62 62 63 63
4 5 5 4 4 4 5 5 5 5 5 5 6 8 10 13 15 18 21 24 26 28 30 33 35 38 41 44 46 48 50 52 55 57 59 61 62 63 64 64 65 65 65
5 5 5 6 6 6 6 7 8 9 10 11 12 14 16 18 20 22 25 28 31 34 36 37 40 42 45 48 50 53 55 57 60 62 64 65 66 67 68 68 69 68 69
8 8 8 8 9 10 11 12 13 14 15 17 18 20 22 24 26 28 30 33 36 39 42 44 46 48 50 53 56 58 60 62 63 64 65 66 67 68 69 70 70 69 69
11 11 12 12 13 15 16 17 18 20 20 22 23 24 26 28 30 32 34 37 40 43 46 49 51 54 56 58 59 62 63 65 66 66 67 68 69 69 69 69 69 69 70
14 15 15 16 17 18 19 21 22 23 25 26 27 29 30 32 35 37 39 42 45 48 51 54 56 59 61 62 62 64 65 67 67 67 68 68 68 69 68 68 68 69 70
17 18 18 19 20 21 22 24 25 26 28 29 31 33 35 38 40 43 45 48 50 53 55 58 60 62 63 65 66 66 66 67 66 65 65 65 65 65 65 65 66 67 67
20 20 21 22 23 25 26 27 29 30 32 34 36 38 41 43 45 48 50 52 54 56 57 59 61 63 65 66 67 67 66 65 64 64 63 62 62 61 61 61 63 64 64
22 23 24 25 26 28 30 32 33 35 37 39 40 42 45 47 49 52 54 55 56 58 59 61 63 64 64 65 65 64 64 63 63 62 61 59 58 58 58 58 59 59 59
25 26 27 29 30 32 34 36 37 39 41 42 44 46 49 51 53 54 55 57 58 60 61 62 63 63 63 62 61 61 61 61 61 60 58 57 56 55 55 55 54 54 53

GEFSMW_500_meanwind_114.txt.gz
Wind_Speed
44 46 47 49 50 50 52 53 54 55 57 58 59 60 60 61 62 62 61 60 59 58 57 57 55 53 51 50 48 47 47 47 47 47 47 46 45 44 42 42 41 41 40
42 44 46 48 49 50 51 52 54 55 57 58 58 59 60 60 61 62 62 63 62 61 60 59 57 55 53 52 50 49 49 47 47 47 47 47 46 45 45 44 43 42 42
35 37 39 42 44 46 47 48 50 53 55 57 59 59 60 61 61 61 62 62 62 62 61 60 58 56 55 54 52 51 50 49 48 48 47 46 45 45 46 45 44 43 42
30 32 34 36 38 39 41 43 45 48 50 53 55 57 59 60 60 60 60 61 61 61 61 61 60 58 56 55 53 52 51 50 48 48 48 47 47 46 45 44 44 44 43
25 26 28 30 32 33 35 37 40 43 45 48 50 52 54 56 58 59 59 59 60 60 60 60 60 60 58 56 54 53 53 51 50 49 48 47 47 46 47 46 46 46 46
20 21 21 22 25 26 29 33 35 38 40 42 44 46 48 51 54 56 57 57 57 59 59 59 59 60 59 57 55 55 54 51 50 50 49 50 50 49 49 48 47 48 48
15 16 17 18 19 21 23 26 29 30 32 35 38 41 43 46 49 51 53 54 55 56 57 58 58 59 60 59 58 58 56 52 51 51 50 50 50 51 51 50 50 50 50
10 11 13 13 14 15 16 18 21 24 27 29 32 34 37 40 43 46 49 50 52 53 55 56 57 57 59 60 59 58 56 54 52 51 52 52 51 51 51 52 51 51 50
8 9 9 8 8 9 11 12 15 17 21 23 26 29 32 34 36 40 43 45 46 49 51 53 54 54 56 57 58 58 56 56 54 53 53 53 54 52 52 52 52 51 51
6 6 5 4 4 3 3 4 7 9 11 15 19 22 26 28 31 35 38 41 43 45 46 48 50 51 52 55 57 58 56 55 55 54 54 54 54 54 53 53 53 53 53
6 6 7 6 5 5 4 3 3 4 7 8 11 15 19 21 24 28 32 36 39 41 43 44 46 48 49 51 54 55 56 55 53 53 53 55 54 54 53 53 55 55 55
9 9 9 8 7 7 6 5 3 3 5 7 8 10 13 15 18 21 25 30 34 36 39 41 43 45 46 48 50 52 53 54 52 51 51 52 52 52 52 54 56 57 58
10 11 11 11 10 8 8 6 5 4 3 4 6 8 10 12 14 17 19 23 27 31 34 37 39 41 44 45 47 48 50 51 51 50 50 51 52 53 54 56 57 58 59
10 10 12 12 12 11 10 8 5 4 4 3 4 5 6 9 10 14 16 19 23 25 28 32 35 37 39 42 44 45 46 47 48 49 51 52 54 55 55 56 57 58 57
11 12 12 13 13 13 13 12 10 8 7 5 3 3 3 4 6 9 12 15 19 23 25 28 31 33 36 38 40 41 43 46 47 49 51 53 54 55 56 57 58 58 59
10 11 12 13 13 13 12 12 11 10 9 7 6 6 5 5 6 7 9 12 16 19 22 25 29 31 34 36 38 41 43 46 48 50 51 52 53 55 55 56 58 59 60
10 11 11 12 12 13 12 12 11 10 9 9 8 8 8 8 9 9 11 13 15 18 20 23 27 29 32 34 37 39 42 45 48 49 51 53 54 55 57 58 60 60 61
11 11 11 12 12 11 11 11 11 11 10 11 11 11 11 12 13 14 15 17 18 20 23 26 29 32 35 37 39 41 43 45 47 50 52 54 56 58 59 61 62 62 63
11 12 12 13 13 13 12 12 12 12 13 13 13 14 15 16 16 17 18 20 22 23 26 29 32 35 37 39 41 43 45 47 49 51 54 56 58 60 62 64 65 66 67
12 13 13 14 14 14 14 14 14 14 15 16 16 17 18 20 21 21 22 24 25 27 29 32 34 36 39 41 43 46 48 50 52 54 55 58 60 62 64 65 66 67 67
15 15 16 16 16 17 17 17 17 17 18 19 20 21 22 23 24 25 26 27 29 31 34 35 37 39 41 43 46 48 51 53 55 56 58 60 62 64 66 67 67 67 67
17 18 18 19 19 19 20 20 20 21 21 22 23 24 25 26 28 29 31 32 34 36 37 39 41 42 44 46 48 50 53 56 58 59 60 61 63 65 66 67 68 67 67
19 20 20 21 21 22 22 22 23 24 25 26 27 28 30 31 32 34 35 37 38 40 42 43 45 46 48 49 51 53 54 56 58 60 61 62 63 64 65 66 67 67 67
21 22 23 23 24 24 24 25 26 27 29 30 31 32 33 35 37 38 40 41 43 44 45 47 48 49 50 51 52 53 55 56 58 59 60 61 62 63 64 64 65 65 65
23 24 25 25 26 27 28 28 29 30 31 33 34 35 37 39 41 42 44 45 46 47 48 49 50 51 52 52 53 53 54 55 56 58 59 60 60 61 61 61 61 60 60
26 27 28 28 29 30 31 32 33 34 35 36 38 39 41 43 44 45 47 48 50 50 51 51 52 52 53 52 52 53 54 55 56 57 58 58 57 57 57 57 57 56 56

GEFSMW_500_meanwind_120.txt.gz
Wind_Speed
42 43 44 45 46 47 48 48 49 50 50 51 51 51 51 51 51 51 52 54 54 53 53 53 54 54 54 54 53 52 50 48 48 47 46 45 44 43 43 42 41 41 41
40 41 42 44 45 46 47 48 49 49 50 50 51 51 51 51 51 52 51 53 54 54 54 54 54 54 55 55 55 55 52 51 49 49 48 48 46 45 45 43 42 41 41
38 39 40 41 42 43 45 46 47 49 50 51 51 51 52 52 52 53 53 53 54 56 56 57 57 56 55 56 56 55 55 54 53 52 51 50 50 48 47 45 44 43 43
34 35 36 37 38 39 41 42 43 45 46 47 49 50 51 51 52 53 54 54 54 55 56 57 58 58 58 57 56 57 57 55 54 54 52 51 50 51 49 48 47 45 44
30 31 31 32 34 35 37 39 40 41 43 44 45 47 48 49 50 50 51 52 53 53 54 56 58 59 58 57 56 56 57 56 55 55 53 53 52 51 50 48 47 46 45
24 25 27 28 29 31 33 34 36 37 39 40 42 43 45 46 47 48 49 50 50 51 52 53 55 57 58 57 56 56 56 56 56 56 55 54 52 51 50 49 48 47 46
20 21 22 24 25 26 27 28 29 32 35 37 39 40 42 44 46 47 47 48 48 47 48 50 51 52 54 55 57 57 55 56 57 56 56 55 54 53 53 51 49 49 48
18 18 18 19 20 22 23 24 25 27 30 32 35 37 38 39 40 42 43 44 45 45 46 47 49 49 50 52 55 57 57 57 57 57 56 56 55 53 52 53 52 52 51
15 15 15 16 17 18 20 21 22 23 24 26 28 30 32 34 35 36 38 39 40 41 43 44 44 45 46 48 51 53 55 55 56 56 57 56 56 56 55 55 55 54 53
12 13 13 14 15 15 15 16 16 18 19 21 23 25 27 29 30 33 34 35 37 38 39 40 42 43 44 45 47 49 51 52 53 54 56 56 55 56 56 57 56 55 54
10 11 12 12 13 14 13 13 13 13 13 14 16 20 22 24 26 27 29 30 32 34 36 38 38 40 41 42 43 45 48 50 52 52 53 55 54 54 55 55 56 57 56
9 10 12 12 12 12 12 12 12 11 11 11 11 11 13 15 18 21 23 25 27 30 32 33 35 37 38 39 41 42 45 48 50 51 51 52 54 54 54 55 56 56 56
9 10 12 12 12 13 12 13 12 12 12 11 11 10 10 11 12 14 16 18 21 23 26 28 30 32 34 36 37 39 42 44 46 48 49 51 52 54 54 54 56 57 56
9 10 11 12 12 13 13 13 13 12 12 12 11 11 11 10 10 11 12 14 17 19 21 23 26 28 31 33 35 36 38 40 42 44 46 49 51 52 54 55 56 56 56
10 10 11 12 13 13 13 14 14 13 13 12 12 11 11 10 9 10 11 12 14 16 18 20 22 24 26 29 31 32 34 36 39 42 45 48 51 52 53 54 55 55 56
10 11 12 13 14 14 14 14 14 14 14 13 12 11 11 10 10 11 11 12 14 15 16 17 19 21 24 27 29 30 32 35 37 39 42 44 46 48 50 52 54 55 56
11 12 13 13 14 14 14 14 14 13 13 13 12 12 12 12 11 12 13 13 14 16 18 18 20 22 23 25 27 29 32 34 36 38 40 42 44 46 48 51 53 55 57
13 13 14 14 14 14 15 15 14 14 14 14 13 13 13 14 14 14 14 15 17 18 19 20 21 23 24 26 28 30 32 34 37 39 42 44 47 49 51 52 53 55 58
14 14 15 15 15 15 15 15 16 16 16 16 15 15 15 15 16 17 17 18 19 20 21 22 24 25 27 29 31 33 34 37 39 42 45 47 49 51 53 54 54 55 57
15 15 16 16 17 17 17 17 17 18 17 17 17 18 18 19 19 20 20 22 23 23 24 25 27 29 31 33 34 36 37 39 41 43 46 48 50 51 52 54 56 57 57
16 16 17 17 18 18 19 19 19 19 19 20 20 20 21 21 22 23 24 25 26 27 28 29 31 32 34 35 37 39 40 42 43 45 46 47 49 51 53 54 55 55 56
18 19 19 19 20 20 20 21 21 22 22 23 23 24 24 25 26 27 27 28 29 31 32 33 35 36 37 39 40 42 43 45 46 46 47 49 50 51 52 53 54 55 56
20 21 22 22 22 23 23 24 24 25 25 26 26 27 28 28 29 30 31 32 34 35 35 37 38 40 41 42 44 45 46 47 48 48 48 49 50 51 51 52 53 55 56
23 24 24 24 25 25 26 27 27 28 29 29 30 31 31 32 33 33 35 36 37 38 39 40 41 43 44 45 46 48 48 48 48 48 48 48 49 50 51 52 52 54 55
25 25 26 27 27 27 28 29 30 31 31 32 33 34 34 35 36 37 38 39 40 41 42 43 44 45 46 47 48 49 49 49 48 48 48 49 49 50 51 52 53 54 55
26 27 27 28 29 29 31 32 33 34 34 35 36 37 37 38 39 40 41 42 43 44 45 45 46 47 49 49 50 50 49 49 49 48 48 49 50 50 51 52 53 53 52

GEFSMW_500_meanwind_126.txt.gz
Wind_Speed
39 40 41 41 42 42 43 44 44 44 45 45 46 47 47 48 48 48 49 50 50 51 51 51 51 51 51 50 50 50 50 49 49 50 50 51 50 48 47 45 44 43 43
38 38 40 41 42 42 43 44 45 45 46 47 48 48 49 49 49 49 50 51 51 52 52 51 52 52 52 53 52 53 52 52 51 51 51 52 52 51 49 48 47 46 46
37 38 39 40 41 42 43 44 45 45 46 47 48 48 49 49 50 50 51 51 51 52 52 53 53 54 54 54 54 53 53 53 53 54 54 55 52 52 53 52 49 48 47
35 36 36 37 38 39 40 41 42 43 44 44 45 46 47 48 49 50 51 51 52 52 52 53 54 54 55 56 55 55 55 55 55 56 55 55 54 55 54 54 53 51 50
31 32 33 34 35 36 36 37 38 40 40 41 43 44 45 46 47 48 49 50 51 52 52 53 53 54 55 56 56 56 56 55 55 55 55 56 56 56 57 56 56 56 54
26 27 29 31 32 32 33 35 36 37 39 40 41 42 42 43 44 45 46 47 49 50 51 52 52 53 54 55 55 56 56 56 55 55 55 55 56 56 56 56 56 55 55
24 25 25 26 27 28 30 31 32 33 35 36 37 38 39 40 41 43 44 46 47 49 50 50 52 53 54 55 54 54 54 54 54 54 54 54 54 54 55 57 57 56 54
21 22 23 23 24 25 26 27 28 30 31 32 33 34 36 38 39 41 42 43 43 44 45 47 48 50 51 52 53 52 51 51 52 52 52 52 52 53 55 56 57 57 56
17 18 20 21 21 22 23 24 25 26 27 27 29 30 32 34 35 36 37 38 39 41 42 43 44 45 47 49 50 50 49 49 49 49 50 50 51 52 54 55 56 56 57
12 13 15 16 17 18 20 21 22 22 23 24 25 26 27 28 29 30 33 34 35 36 37 38 39 41 42 44 46 46 47 48 47 48 49 50 51 52 53 54 55 56 57
11 12 12 13 14 15 16 17 17 18 19 20 21 22 23 24 25 26 28 29 31 32 32 34 35 37 37 39 41 43 44 45 46 47 47 48 50 51 52 52 54 55 57
10 10 11 12 12 13 13 14 15 16 16 17 17 17 18 20 21 23 24 25 27 28 29 30 32 33 34 35 37 39 41 43 44 46 46 47 48 49 51 52 54 55 57
9 10 10 11 12 12 13 13 13 14 14 14 15 15 16 16 18 19 20 21 23 24 25 26 27 28 30 32 34 35 37 39 41 43 45 46 46 48 49 51 53 53 55
9 10 11 11 12 12 12 12 12 12 12 13 13 14 15 16 17 17 17 18 19 20 21 22 23 25 27 29 32 34 36 37 39 41 43 44 46 47 49 50 51 52 53
8 9 10 11 11 12 11 11 11 11 12 13 13 15 16 16 17 16 17 17 17 18 19 20 21 23 24 26 29 31 34 36 38 40 42 43 45 46 47 48 50 51 52
8 9 10 10 11 11 11 11 11 12 12 13 14 15 16 17 17 17 17 18 18 18 19 20 21 23 24 26 28 31 33 35 37 38 40 41 42 44 45 47 49 50 52
8 9 10 10 11 11 11 12 13 13 14 15 16 16 17 17 17 17 18 18 19 19 20 22 23 24 25 26 28 30 32 34 36 38 39 40 41 43 44 45 47 49 50
10 10 11 12 12 13 14 14 14 15 15 16 17 17 18 18 19 19 19 20 20 21 22 23 24 25 27 28 29 31 32 34 35 37 39 40 42 43 44 46 47 48 49
12 12 13 13 14 15 15 16 16 16 17 18 19 20 20 21 21 21 22 22 23 23 24 25 25 26 28 29 30 31 32 33 35 36 38 40 42 43 45 46 47 48 50
15 15 15 15 15 16 17 17 18 18 19 19 20 21 22 22 23 23 24 25 25 26 27 27 28 29 30 30 31 32 33 35 36 37 39 41 42 43 44 46 48 50 51
18 18 18 18 18 18 19 19 20 21 21 22 23 23 24 24 25 26 27 27 28 29 30 29 30 30 31 32 33 34 35 36 37 38 40 41 43 44 45 47 48 49 51
19 19 19 20 20 21 21 22 22 23 24 25 25 26 26 27 28 29 30 31 31 32 32 32 32 32 33 34 35 36 37 38 39 40 41 42 43 44 45 46 47 48 49
22 22 22 22 22 23 24 24 25 25 26 27 27 28 28 29 30 31 32 33 33 34 34 34 34 35 36 37 38 39 40 41 42 42 43 44 44 45 46 46 47 48 49
25 25 25 25 25 25 26 26 27 28 29 30 30 31 31 32 33 34 34 35 35 36 36 36 37 37 38 39 40 41 42 43 43 43 44 45 45 46 46 46 47 48 49
27 28 28 27 28 28 29 29 30 31 31 32 33 33 34 34 35 36 36 37 37 37 37 38 38 40 40 42 43 43 44 44 44 45 45 46 46 46 47 47 48 48 49
29 29 29 29 30 30 30 31 31 32 33 33 34 35 35 36 36 37 37 38 39 39 39 40 41 42 43 44 45 45 46 46 46 46 46 46 46 46 47 47 48 48 49

GEFSMW_500_meanwind_132.txt.gz
Wind_Speed
35 36 37 38 39 40 40 40 41 41 41 41 42 42 42 43 44 45 45 46 47 48 48 48 49 50 49 49 49 50 50 51 51 52 51 51 51 50 48 48 49 49 49
36 37 37 38 39 40 41 41 41 41 42 42 42 43 43 44 45 46 47 47 48 48 48 49 49 48 48 49 49 49 49 50 52 53 54 54 53 52 52 51 51 51 51
35 36 37 38 39 40 40 41 41 41 42 42 42 43 43 44 45 46 47 47 47 47 47 47 47 47 47 48 49 49 50 50 51 53 55 56 56 54 53 53 53 52 52
33 34 35 36 37 38 38 39 40 40 41 42 42 43 44 44 45 46 46 46 47 47 47 48 48 48 48 48 48 49 50 50 51 52 53 55 55 55 54 54 54 54 54
31 32 33 34 35 36 38 38 39 39 40 41 42 43 43 44 45 46 46 46 47 47 46 46 47 47 47 48 48 49 50 50 51 52 52 52 53 54 55 55 55 55 55
30 31 32 32 33 34 35 36 37 37 38 39 40 41 42 43 43 44 44 45 45 46 46 46 46 46 46 46 46 48 49 49 50 51 52 52 52 54 55 56 55 54 54
29 29 29 30 31 31 32 34 35 36 37 37 38 39 40 40 41 41 42 42 43 44 44 45 45 45 45 45 46 46 47 48 49 49 50 52 53 53 54 54 54 54 54
26 27 27 28 29 30 31 32 33 34 35 36 37 38 38 39 39 39 40 41 42 42 42 43 43 44 44 44 44 45 45 46 47 49 50 51 53 54 54 54 54 54 54
24 25 26 27 28 28 29 30 31 32 33 34 35 35 36 36 36 37 38 38 38 39 40 41 42 43 43 43 44 44 45 45 46 47 48 50 51 51 52 54 55 54 53
22 23 24 25 25 26 26 27 28 29 29 30 31 31 31 32 32 33 34 34 35 35 36 37 37 38 40 41 42 43 44 44 45 46 46 47 49 49 51 52 52 53 54
19 21 21 22 22 23 24 25 26 26 27 27 28 28 29 29 30 30 31 31 32 33 33 34 34 35 36 38 39 40 41 42 42 43 43 44 46 48 49 50 50 51 51
18 18 18 19 20 21 21 22 23 24 25 26 26 27 28 28 29 29 29 29 30 31 31 32 32 33 34 35 36 38 38 39 40 41 41 42 43 44 45 47 49 50 51
17 18 18 18 19 20 20 21 22 22 23 23 24 25 26 26 27 27 28 28 29 30 30 30 31 32 32 33 35 36 36 37 38 39 40 41 42 42 43 45 46 48 50
17 17 18 18 18 19 20 20 20 20 21 21 22 23 23 24 25 26 27 27 28 28 28 28 29 30 30 32 33 34 35 36 37 38 39 40 41 42 44 45 47 49 50
18 18 19 19 19 20 20 20 21 21 21 21 22 22 23 24 25 26 26 27 26 26 27 27 28 29 30 31 33 34 35 35 36 37 38 40 41 42 44 45 46 48 49
19 19 20 20 19 19 20 20 20 21 22 22 22 23 24 25 25 26 26 26 27 27 28 29 29 30 31 32 33 34 34 34 35 36 37 39 40 41 43 44 46 47 47
19 19 20 20 20 20 20 20 21 22 22 22 23 24 24 25 26 26 27 27 27 28 29 30 31 32 33 34 34 35 35 35 36 37 38 40 41 43 44 45 46 47 48
18 19 19 20 20 20 21 21 21 22 22 22 23 23 24 24 25 26 27 28 29 30 31 32 32 33 34 35 36 36 36 37 37 38 39 40 41 42 44 45 45 46 47
18 19 19 19 20 21 22 22 22 23 23 24 24 24 25 26 26 27 28 29 30 31 32 32 33 34 35 36 37 37 37 37 38 39 39 40 41 42 43 43 44 45 46
20 21 21 21 22 22 23 23 24 25 25 26 27 27 27 28 28 28 29 30 31 32 33 34 35 36 36 37 37 38 38 38 38 39 40 41 42 43 43 44 44 45 46
23 23 24 25 25 25 25 26 26 27 28 28 29 29 29 29 30 30 31 32 33 33 34 35 36 37 37 38 38 38 38 38 39 40 41 42 43 44 44 44 45 46 46
26 27 27 27 28 28 28 29 29 30 30 31 31 31 32 32 32 33 33 34 34 35 35 36 37 38 38 38 39 39 39 40 41 41 42 43 43 43 43 44 45 46 46
29 30 30 30 30 31 31 31 32 33 33 33 33 34 34 34 34 35 35 35 35 36 37 38 39 39 39 40 40 40 41 41 42 42 43 43 43 43 44 45 45 46 47
32 33 32 32 33 33 33 33 34 35 35 35 35 36 36 36 36 36 36 37 37 38 38 39 39 40 40 41 41 41 42 42 43 43 43 44 44 44 45 46 46 47 48
35 35 34 34 35 35 35 36 36 36 36 36 36 37 37 37 37 37 38 38 39 39 40 40 41 41 42 42 42 42 43 43 43 43 43 44 44 45 46 46 47 48 48
37 37 36 37 37 37 37 37 37 37 36 37 37 37 37 37 37 38 39 39 39 40 41 41 42 43 43 43 43 43 43 43 43 44 44 45 45 45 45 45 46 46 46

GEFSMW_500_meanwind_138.txt.gz
Wind_Speed
36 36 36 36 37 37 37 37 37 37 37 36 36 36 36 37 38 39 39 39 39 40 41 41 42 43 43 44 44 45 45 45 45 45 46 46 46 47 48 49 49 50 51
34 35 35 35 35 35 36 36 36 35 35 35 36 36 36 37 38 39 40 40 40 41 41 42 43 44 44 44 44 44 45 45 45 45 46 46 46 46 47 48 50 51 52
34 34 34 35 35 35 35 35 36 36 36 37 37 37 38 38 39 39 40 41 41 41 42 43 43 43 44 45 45 45 45 44 45 45 45 45 45 46 46 48 49 51 53
32 33 33 34 34 35 35 36 36 37 37 38 39 39 39 39 40 40 41 41 42 42 43 42 42 43 43 43 44 44 43 43 44 44 45 45 46 46 46 47 49 50 51
31 31 32 33 33 34 35 36 36 37 38 38 39 39 39 40 40 40 40 41 42 42 42 42 42 42 42 42 42 42 43 43 43 44 45 45 46 47 47 47 48 49 50
29 29 30 31 32 33 34 34 35 35 35 36 36 37 37 38 38 39 39 40 40 40 40 40 41 41 41 41 41 42 42 43 44 44 45 45 46 47 47 47 47 48 48
28 29 29 30 30 31 32 32 32 33 33 34 35 35 36 36 37 37 38 38 39 39 39 40 39 39 39 40 40 41 42 42 43 44 45 46 46 47 47 48 48 48 48
27 28 28 28 28 28 29 30 30 31 32 33 33 34 36 36 37 37 37 38 39 39 39 39 39 39 39 39 40 40 41 41 42 43 44 45 46 47 47 48 49 50 50
25 25 26 26 26 27 28 29 29 30 31 32 32 33 34 34 34 35 36 37 37 38 38 38 38 38 38 39 39 39 40 40 41 42 43 44 45 46 47 48 49 50 50
23 24 24 25 26 27 27 28 29 30 30 30 31 31 32 32 32 33 34 35 36 36 36 37 37 37 38 39 39 39 40 40 41 41 42 43 44 45 46 48 48 49 49
21 22 23 25 25 26 27 27 28 29 29 30 30 30 30 31 31 32 32 32 33 34 35 35 36 36 37 37 38 38 39 40 40 41 41 42 42 43 44 45 46 47 48
19 21 22 24 24 25 25 26 26 27 28 28 28 28 29 29 30 30 31 31 31 32 33 34 35 36 36 37 37 38 39 39 40 40 41 41 42 42 43 43 44 46 46
19 20 21 22 23 23 24 24 25 26 27 27 27 28 28 29 30 30 30 31 31 32 33 34 35 36 36 37 37 38 38 39 39 40 40 41 41 42 42 42 43 44 45
19 19 20 20 21 22 23 23 24 25 26 26 27 28 28 29 29 30 30 31 32 32 33 34 35 36 36 36 37 37 37 38 39 40 40 41 41 41 42 42 43 43 44
20 20 20 21 21 22 23 24 24 25 25 26 27 27 27 28 28 29 30 31 32 33 33 34 35 35 36 36 37 37 37 38 39 40 40 41 41 41 42 42 42 42 43
20 21 22 22 23 23 24 24 25 26 26 27 27 27 27 27 28 29 29 30 31 33 34 35 35 36 36 37 37 38 38 39 40 41 41 41 42 42 42 42 42 43 44
21 22 23 24 24 25 25 25 26 27 27 27 27 28 28 28 29 30 30 31 32 32 33 34 35 36 36 36 37 38 39 40 41 42 42 42 42 42 42 42 43 44 45
22 23 23 24 24 25 26 27 27 28 28 28 28 29 29 30 30 30 31 32 33 34 34 35 35 36 36 36 37 38 39 41 41 42 42 42 42 43 43 44 45 46 47
23 24 24 25 25 26 26 27 27 28 29 29 30 30 31 31 31 31 32 33 34 35 35 36 36 36 37 37 38 39 40 41 41 41 42 42 43 43 44 45 46 47 47
24 25 25 25 26 26 27 27 28 28 29 30 31 31 32 32 33 33 34 35 35 35 36 36 36 37 38 38 39 40 41 42 42 43 43 44 44 44 45 46 47 47 47
27 28 28 28 28 29 29 30 30 31 31 31 31 32 32 33 34 34 35 36 36 36 36 37 37 38 38 39 40 41 42 43 43 43 43 44 45 45 46 47 47 47 46
31 31 31 31 31 32 32 32 32 33 33 33 33 33 34 34 35 36 37 37 37 37 37 38 38 38 39 39 39 40 41 42 43 43 44 44 44 45 45 46 46 45 45
33 33 33 34 34 34 34 34 34 35 35 35 35 35 35 36 36 37 37 38 37 38 38 39 38 38 38 38 39 40 41 42 43 43 43 43 43 44 44 44 43 43 43
36 36 36 36 36 36 36 37 37 37 37 37 37 37 37 38 38 38 38 38 38 38 38 38 38 39 39 39 40 41 42 43 43 42 42 42 43 43 43 43 42 42 43
39 39 39 39 38 38 38 38 38 38 38 38 38 38 39 39 38 38 38 39 39 39 38 38 38 39 39 40 41 42 42 43 42 41 41 41 42 42 42 42 42 42 42
40 40 40 40 40 39 39 39 39 38 38 38 38 38 38 38 38 38 38 38 38 38 37 38 38 39 40 41 42 42 42 41 41 41 40 41 41 41 41 41 41 40 40

GEFSMW_500_meanwind_144.txt.gz
Wind_Speed
33 34 34 34 34 33 33 33 34 35 35 35 35 36 36 36 35 35 35 35 35 35 36 36 36 36 36 36 37 37 38 39 40 40 40 40 41 41 42 42 42 42 43
32 33 34 35 35 35 35 35 35 35 36 37 37 37 38 37 37 36 36 36 36 36 36 36 36 36 36 37 38 38 38 39 39 40 41 40 40 41 41 41 42 42 43
32 33 34 35 35 35 35 35 35 36 37 38 38 38 38 38 38 37 36 36 36 36 37 37 36 36 37 37 37 37 37 38 39 40 40 40 39 40 40 40 41 41 41
32 32 34 35 35 35 35 35 35 35 36 36 36 37 37 37 37 37 37 37 36 36 36 36 36 37 37 38 38 38 38 39 39 40 40 40 40 40 39 39 40 41 42
31 32 32 33 34 34 35 35 35 36 36 36 36 36 36 36 36 37 37 37 38 37 37 37 37 37 37 38 38 39 39 40 40 40 40 40 41 41 41 41 42 42 43
29 30 31 32 33 34 34 34 35 35 35 35 35 35 35 35 36 36 36 37 37 37 37 37 37 37 37 38 39 40 40 40 40 40 40 40 41 41 42 42 42 42 43
29 29 30 31 32 32 33 34 34 34 34 35 35 35 35 35 35 35 35 35 35 35 36 36 37 37 38 38 39 39 39 39 40 40 40 40 40 41 41 42 42 42 43
28 29 30 31 31 32 33 33 34 34 34 35 35 35 35 35 35 35 35 35 35 35 36 36 37 37 38 39 39 39 39 39 39 39 39 40 40 41 42 42 42 42 42
27 28 29 30 31 31 32 32 33 34 34 35 35 35 35 35 35 35 35 35 35 35 36 36 37 37 37 38 38 39 40 40 40 40 40 40 41 41 42 42 42 42 42
27 28 29 29 30 31 31 32 32 33 33 34 34 35 35 36 36 35 35 35 35 36 37 37 38 38 38 39 39 40 40 40 40 41 41 41 41 42 42 42 43 43 43
25 26 27 28 29 30 31 31 32 33 33 33 34 34 35 35 36 36 37 37 37 37 37 38 38 39 39 39 39 39 40 40 40 40 40 40 41 41 42 42 43 44 44
24 26 26 27 28 29 30 31 31 32 33 34 34 35 35 36 36 37 37 38 38 38 38 38 39 39 39 39 39 39 39 40 40 40 40 41 41 42 42 43 44 44 45
25 26 27 27 28 29 29 30 31 32 33 33 34 35 35 36 37 37 38 38 38 39 39 39 39 39 39 39 39 39 40 40 41 41 42 42 42 43 43 44 45 46 47
24 25 26 27 28 28 29 29 30 31 32 33 34 35 35 36 37 37 38 38 38 38 38 39 38 39 39 39 40 40 41 41 41 42 42 43 43 44 45 46 47 47 48
23 25 26 27 28 28 29 30 31 32 32 33 34 34 35 36 36 37 37 37 38 38 38 38 38 39 39 40 41 41 42 42 43 43 43 44 45 45 46 47 48 49 49
24 25 26 27 28 29 29 30 31 32 32 33 33 34 34 35 35 36 36 37 37 38 38 38 39 39 40 41 42 42 43 43 44 44 45 45 46 47 47 48 48 48 48
24 25 26 28 29 30 30 31 32 32 33 33 33 34 35 35 35 36 36 37 38 38 38 39 40 40 41 42 43 44 44 44 44 44 45 46 47 47 47 48 49 49 48
26 27 28 29 30 30 31 31 32 33 33 34 35 36 36 36 36 37 38 38 38 38 39 40 40 41 41 42 43 44 44 44 45 45 45 46 47 47 48 49 49 48 48
29 29 29 30 31 31 32 32 32 33 34 34 35 36 36 37 37 37 38 38 38 39 40 40 41 41 42 42 43 43 44 44 45 45 45 46 47 47 48 48 48 48 48
30 31 31 32 33 34 34 34 34 34 35 35 36 37 37 37 37 37 38 38 38 39 40 41 41 42 42 42 43 43 44 44 44 44 45 45 46 46 46 46 46 46 46
33 33 34 34 35 35 36 36 37 37 37 37 37 37 37 38 38 38 38 39 39 39 40 41 41 42 42 43 43 44 44 43 44 44 44 45 45 45 45 45 45 45 46
36 37 37 37 38 38 38 38 38 38 38 38 38 38 38 39 39 39 39 39 40 40 40 41 41 41 42 43 44 44 44 44 44 44 44 44 44 44 44 45 45 45 45
40 40 41 40 40 40 41 40 40 40 40 39 38 38 39 39 39 40 40 40 41 41 41 41 41 42 42 43 44 44 44 43 43 43 43 43 43 43 43 43 43 43 43
42 42 43 43 42 42 42 42 42 42 41 41 40 40 40 40 40 40 40 41 41 41 41 41 41 41 42 42 42 42 42 43 42 42 42 41 42 42 42 42 42 42 42
43 43 43 43 43 43 43 42 42 42 42 41 41 40 40 40 41 41 41 41 41 41 41 41 41 40 40 40 40 40 41 41 40 40 40 41 41 41 40 41 41 41 42
45 44 44 43 43 43 42 42 42 42 41 41 41 41 41 41 41 41 41 41 41 40 40 39 39 39 39 39 39 39 39 38 39 39 39 40 40 40 40 41 41 41 41

GEFSMW_500_meanwind_150.txt.gz
Wind_Speed
28 28 29 29 30 30 31 31 32 32 32 33 33 33 34 34 34 34 33 33 33 33 33 33 34 33 33 33 33 33 33 34 34 34 35 35 36 36 36 37 37 38 38
28 28 29 29 30 30 31 31 32 32 33 33 34 35 35 35 35 35 35 35 35 35 35 34 34 34 34 34 34 34 35 34 34 35 35 36 36 37 37 37 38 38 38
28 28 29 30 31 31 32 32 33 33 34 34 35 35 36 37 37 37 36 36 36 36 36 35 35 35 35 35 35 35 36 36 36 36 36 37 37 38 38 38 38 39 39
28 28 30 31 32 32 33 34 34 34 34 35 35 36 36 36 37 37 37 37 37 36 36 36 36 36 36 36 36 36 36 37 37 38 38 38 38 38 38 39 39 40 40
27 28 29 31 32 32 33 34 35 35 35 35 36 37 38 38 38 37 38 38 38 36 35 36 36 37 37 37 37 38 38 38 39 39 39 38 38 38 38 38 39 40 40
28 29 29 30 31 33 34 34 35 36 36 36 36 37 37 38 38 38 38 38 38 38 37 35 35 36 37 38 38 38 39 39 38 38 38 38 38 39 39 40 40 40 41
27 28 29 31 32 33 34 35 35 36 36 37 37 37 37 37 37 38 38 38 38 37 38 38 37 37 37 38 38 38 38 39 39 39 40 40 40 41 41 41 41 41 42
27 28 30 31 32 33 34 35 36 37 37 38 38 38 37 37 37 37 38 39 38 38 38 39 40 39 39 38 38 39 39 40 40 41 41 41 42 42 42 42 42 42 42
26 28 29 30 31 32 33 34 35 36 37 38 38 38 38 38 38 38 38 38 39 39 39 39 40 40 41 40 39 39 40 41 42 42 42 42 42 42 42 42 42 42 42
26 28 29 29 30 31 32 33 34 35 36 37 38 39 39 39 39 39 39 39 39 39 40 40 40 41 42 42 42 42 41 42 42 42 42 43 43 43 43 43 43 43 43
24 26 28 29 29 30 31 31 32 33 35 36 37 38 39 39 40 40 40 40 40 40 40 41 41 42 43 43 44 44 44 43 43 43 44 44 44 44 44 44 45 45 45
24 25 26 28 29 30 31 31 32 33 34 35 36 37 38 39 40 40 41 41 42 42 42 43 43 43 44 44 44 44 44 44 44 44 45 45 46 46 45 46 46 46 46
24 25 26 28 29 30 31 32 32 33 34 35 36 37 38 39 40 41 42 43 43 44 44 44 44 44 44 44 44 45 45 45 45 46 46 46 46 46 46 46 46 47 47
24 25 27 28 29 29 30 31 32 33 34 35 36 37 38 39 40 41 42 42 42 43 43 43 44 44 45 45 46 46 46 46 46 47 47 47 47 47 47 47 47 48 48
25 25 26 27 28 29 30 31 32 33 34 36 36 37 37 38 39 40 41 42 43 43 43 44 44 44 45 46 47 47 47 46 47 47 47 48 48 48 48 49 49 49 49
26 26 26 27 28 29 30 31 32 33 34 35 37 37 37 38 39 40 41 42 43 44 44 45 46 46 46 46 46 47 46 47 47 47 47 48 48 48 49 49 49 50 50
26 27 28 29 30 30 31 32 33 34 34 35 36 37 38 39 40 40 41 42 43 44 45 45 46 46 46 46 46 46 46 47 47 48 48 48 48 48 49 49 50 50 49
28 29 30 30 31 31 32 33 34 34 35 36 38 39 39 40 41 41 42 43 43 43 44 44 45 45 45 45 45 46 46 47 47 48 48 48 48 49 49 49 49 49 49
29 30 31 32 32 33 34 34 36 37 37 38 38 39 40 41 42 43 43 43 43 43 43 44 44 44 44 45 45 46 46 47 47 47 48 48 48 48 49 49 49 49 49
32 32 33 34 34 35 36 36 37 38 39 39 40 41 42 43 43 43 43 43 44 43 44 44 44 45 45 45 45 46 46 47 47 47 48 48 48 48 49 49 48 48 48
34 34 35 35 36 37 38 38 39 40 41 41 42 43 44 44 44 44 44 43 43 43 44 44 44 45 45 45 45 46 46 46 46 46 47 47 47 48 48 48 47 47 47
36 37 37 37 38 39 40 40 41 42 43 44 44 44 45 45 44 44 44 44 43 43 43 43 44 44 44 44 44 45 45 45 46 46 46 47 47 47 47 46 45 45 45
38 39 39 40 41 41 42 42 43 44 45 45 45 45 44 44 44 44 44 44 44 43 43 43 43 43 43 43 43 44 44 44 44 45 45 45 45 45 45 44 44 44 43
40 41 41 42 42 43 43 44 45 45 45 45 45 45 44 44 43 43 43 43 43 43 43 43 43 43 43 43 43 43 43 43 43 43 43 43 42 42 42 42 42 41 41
42 42 43 43 43 44 44 45 45 45 44 44 44 44 44 44 43 43 43 43 43 43 43 43 43 43 43 43 42 42 42 42 41 41 41 41 40 40 40 40 39 39 39
42 43 43 43 44 44 44 45 45 44 44 43 43 44 43 43 43 43 43 43 43 43 43 43 42 42 42 42 42 41 41 40 40 39 39 39 38 38 38 37 38 38 38

GEFSMW_500_meanwind_156.txt.gz
Wind_Speed
29 29 29 30 31 31 31 31 31 31 31 31 31 32 33 33 33 32 32 32 32 32 33 34 34 34 34 35 35 35 35 35 35 35 35 35 35 35 35 35 35 35 35
28 29 29 29 30 31 32 32 32 32 32 32 32 33 34 35 35 35 35 35 34 33 34 35 37 37 36 36 36 36 36 36 36 36 35 35 36 36 37 37 37 37 37
27 28 28 29 30 31 32 33 32 32 33 33 33 34 35 36 37 37 37 37 37 36 36 36 36 37 37 37 37 37 37 37 37 37 37 36 36 37 37 38 38 39 39
28 29 29 29 30 30 31 32 32 33 33 34 34 35 37 37 38 38 39 40 39 39 38 38 38 38 38 38 38 38 38 37 37 38 38 38 38 38 38 39 40 40 40
28 29 29 30 30 31 32 32 33 33 33 33 35 37 38 38 39 40 40 41 41 41 40 40 39 39 38 38 38 38 38 38 38 39 39 39 40 40 40 40 40 41 41
27 29 29 30 30 31 32 32 33 34 35 35 36 37 38 39 40 40 40 40 40 40 41 41 41 40 39 39 38 38 39 39 39 40 40 40 41 41 41 41 41 41 42
26 28 29 30 30 30 31 33 34 34 35 36 37 37 38 39 40 40 40 40 40 40 41 42 42 41 40 39 39 39 40 40 41 41 42 42 42 42 42 43 43 43 43
25 27 29 30 30 31 32 33 35 35 36 37 38 38 38 39 39 40 40 40 41 41 41 41 42 42 42 42 41 42 42 43 43 44 44 44 45 45 45 45 45 44 44
26 27 28 30 31 33 33 34 34 35 36 37 37 38 39 39 39 39 40 41 41 42 43 43 43 43 44 45 44 44 45 45 45 46 47 47 47 47 47 48 48 48 47
26 27 29 30 31 33 33 34 35 36 37 37 38 38 39 39 40 40 41 42 43 43 43 44 44 45 46 46 47 46 46 46 47 48 49 49 49 49 50 50 50 50 50
26 28 29 31 32 33 34 35 35 36 37 38 38 39 39 40 41 42 42 42 43 44 45 45 45 46 46 47 47 48 48 48 49 48 49 50 51 51 51 52 52 52 52
25 27 28 29 31 32 33 35 35 36 37 37 38 38 39 41 41 42 42 43 44 45 45 46 46 47 47 47 48 49 49 50 51 50 49 50 50 51 52 53 53 53 53
26 27 28 30 31 32 33 33 34 35 35 36 37 38 39 39 40 41 42 43 44 44 45 45 46 47 47 47 47 48 49 50 50 51 51 51 51 52 52 52 53 52 52
27 28 29 30 30 31 32 32 33 34 34 35 35 36 37 38 39 40 42 43 43 44 45 45 46 46 47 48 48 48 49 49 50 51 51 51 52 52 52 52 52 51 51
27 27 28 29 29 30 31 32 33 33 34 35 36 36 37 38 39 41 41 42 43 44 45 46 46 47 47 48 49 49 50 50 50 51 51 51 51 51 51 51 51 51 51
27 28 28 29 30 32 33 33 34 35 35 36 37 38 39 40 41 42 42 43 43 44 45 46 47 47 48 49 49 50 50 51 51 51 51 51 51 51 51 51 51 51 51
30 30 31 31 32 33 33 34 35 37 37 38 39 40 40 41 41 42 43 43 44 44 45 46 46 47 48 49 50 50 50 50 51 52 52 51 51 51 51 51 51 51 51
32 33 33 33 34 35 35 36 37 38 38 39 40 40 41 41 42 42 43 44 44 45 45 46 47 47 48 49 49 49 49 49 50 50 51 51 51 51 51 51 50 51 51
34 35 35 35 35 36 37 38 38 39 39 40 41 42 42 42 43 43 43 44 44 45 46 46 46 47 47 48 49 49 49 49 49 49 50 50 50 50 50 49 49 50 50
37 37 37 37 38 38 39 39 40 40 41 42 42 43 43 43 44 44 45 45 45 46 46 46 47 47 48 48 48 48 48 48 48 49 49 49 49 48 48 48 48 48 48
39 39 39 40 40 40 40 41 41 42 42 42 43 43 44 44 45 45 46 47 47 47 47 47 47 47 48 48 48 48 47 47 47 47 47 48 48 47 48 47 47 47 47
40 40 40 41 41 42 42 43 43 43 44 44 44 44 45 45 46 46 47 47 48 48 47 47 47 48 48 48 48 48 47 47 47 46 47 47 47 47 47 46 46 46 46
40 41 41 42 43 43 44 44 44 45 45 45 45 45 45 46 47 47 48 48 48 48 47 47 47 47 47 48 48 47 47 47 46 46 46 46 45 45 45 44 44 44 44
41 42 43 43 44 44 45 45 46 46 45 45 45 46 46 47 48 48 48 48 48 48 48 47 47 47 47 47 47 46 46 46 45 45 44 44 44 43 42 42 42 42 42
42 42 43 43 44 45 45 46 46 46 46 46 46 46 47 48 48 48 48 48 48 48 48 48 47 47 46 46 46 45 45 45 45 43 42 42 42 41 40 40 40 40 40
43 43 44 44 44 45 46 46 46 46 46 46 46 47 47 48 48 48 48 48 48 48 48 47 47 46 45 45 44 44 44 43 43 42 41 41 41 40 39 39 39 39 39

GEFSMW_500_meanwind_162.txt.gz
Wind_Speed
29 30 29 30 31 32 33 33 32 32 32 32 32 32 32 32 31 32 32 32 31 30 31 32 32 33 34 33 33 34 34 34 34 34 34 34 34 34 34 34 34 34 34
27 27 28 28 30 32 32 32 33 32 32 32 32 32 31 31 31 32 33 33 33 32 32 33 34 34 34 34 34 34 35 35 35 36 36 36 36 36 36 36 36 36 36
25 26 26 27 28 30 31 31 31 32 33 33 33 32 32 32 33 33 34 35 35 35 35 34 35 36 36 35 35 36 36 36 36 37 37 37 37 37 37 37 37 38 38
23 24 25 27 28 28 30 31 30 31 32 33 33 34 34 33 33 35 35 36 36 37 37 36 36 35 35 35 36 37 37 37 37 37 37 38 38 38 38 38 39 40 40
23 24 25 26 28 28 28 29 30 31 31 32 32 33 34 34 35 35 36 36 37 38 38 38 37 37 36 36 37 37 38 38 38 38 38 39 39 40 41 41 41 42 42
22 24 25 26 27 28 29 29 29 30 31 31 32 32 33 35 36 36 37 37 37 38 39 40 40 39 39 38 38 39 39 39 40 41 41 42 42 43 44 44 45 45 45
22 24 25 26 27 28 29 29 29 30 30 31 32 33 34 35 36 37 37 37 38 39 40 41 42 42 42 42 41 41 41 41 42 43 43 44 45 46 46 47 47 47 47
23 24 25 26 27 28 29 29 30 30 31 32 33 34 35 36 37 38 39 39 40 40 41 42 43 43 43 44 44 43 43 43 43 44 45 46 47 48 48 48 49 49 49
23 24 25 25 26 26 28 29 31 31 32 33 34 34 35 36 37 38 39 40 41 41 42 43 44 44 45 45 45 45 45 45 45 46 47 48 49 49 50 50 51 51 51
22 23 24 25 26 27 28 30 31 32 33 34 35 35 35 36 38 39 39 40 41 42 42 43 44 45 46 46 46 47 47 47 47 47 48 49 50 50 51 51 51 52 52
22 24 25 26 27 28 29 30 31 32 33 34 35 36 36 37 38 39 40 41 42 42 43 43 44 45 46 47 47 48 48 49 50 50 49 49 49 50 50 51 52 52 52
23 24 26 27 28 29 30 31 32 33 34 35 36 36 37 38 38 39 40 41 41 42 43 44 44 46 47 47 48 49 50 50 51 51 51 51 50 50 51 51 51 51 52
24 25 26 27 29 30 31 32 32 33 34 35 36 36 37 37 38 38 40 41 41 42 43 44 45 45 46 47 48 49 50 50 51 51 52 51 51 51 51 51 52 52 53
25 26 27 28 29 31 32 33 33 34 34 35 35 36 37 37 38 39 40 41 42 43 44 44 44 44 45 46 46 47 48 49 50 51 51 52 52 51 52 52 53 53 53
27 28 29 29 30 31 32 33 34 34 34 35 35 36 37 38 39 39 40 41 42 42 43 43 44 45 45 46 46 47 47 48 49 50 50 51 51 52 52 52 52 53 53
29 30 31 31 32 32 33 34 35 36 36 36 37 37 38 39 40 40 41 41 42 43 44 44 44 45 46 46 47 46 46 47 48 48 49 49 50 51 51 51 52 52 52
31 32 32 33 34 34 35 36 36 37 38 38 39 39 40 41 41 42 42 43 43 44 45 45 45 45 45 46 46 46 46 46 47 47 48 48 49 49 50 50 50 50 51
33 34 35 35 36 36 37 38 38 38 39 39 40 40 41 42 43 44 44 44 44 44 44 44 45 45 46 46 47 47 47 47 47 48 48 48 48 49 49 49 49 50 50
34 35 36 37 38 38 39 39 40 40 40 41 41 42 42 43 44 44 44 44 44 44 44 44 44 45 45 46 47 47 47 47 48 47 48 48 49 49 49 48 49 49 49
36 37 38 39 39 39 40 40 40 40 41 41 42 42 43 43 44 44 44 44 44 44 45 44 44 45 46 46 47 47 47 48 48 48 49 49 50 49 49 48 48 48 48
39 39 39 39 40 40 41 41 41 41 42 42 43 43 44 44 44 44 44 44 45 45 45 45 46 46 46 47 47 48 49 49 49 49 49 49 49 49 48 48 47 47 47
40 40 40 40 40 41 41 41 41 42 42 42 43 44 44 45 45 45 45 45 46 46 46 46 46 47 47 48 48 49 49 50 49 49 49 49 49 48 48 47 46 46 46
41 41 41 41 41 41 41 41 41 42 42 43 43 44 45 45 46 46 46 46 46 47 47 47 47 47 48 49 49 49 49 50 49 49 48 48 48 47 47 46 46 46 46
42 42 42 42 42 42 42 42 42 43 43 43 44 44 45 45 46 46 46 47 47 47 47 47 48 48 48 49 49 49 49 49 48 47 46 46 46 46 45 45 45 45 44
42 43 43 42 42 42 42 43 43 43 43 44 45 45 45 46 46 46 47 47 47 48 48 48 48 49 49 49 49 49 49 48 47 46 45 45 45 44 44 44 44 43 42
43 43 43 43 43 43 43 44 44 44 45 45 45 46 46 46 47 47 47 47 47 48 48 49 49 49 49 49 49 48 48 47 46 45 44 43 43 43 42 42 41 41 40

GEFSMW_500_meanwind_168.txt.gz
Wind_Speed
31 34 34 34 35 35 35 34 33 32 32 32 33 34 35 35 35 34 33 33 34 34 34 32 33 33 33 33 33 33 33 33 32 32 32 33 32 32 33 33 33 33 33
30 31 32 33 33 34 34 34 33 32 32 32 33 35 35 35 36 35 35 35 34 34 36 35 34 33 33 33 32 32 32 32 31 31 32 33 34 34 34 35 35 35 36
28 28 29 30 32 32 31 31 32 32 32 33 33 34 35 35 36 36 35 34 34 35 36 38 35 34 35 34 33 32 32 32 33 33 33 34 35 35 36 36 37 38 38
27 28 28 28 30 31 31 31 31 32 32 33 34 34 34 35 35 35 35 34 35 36 37 38 37 35 35 35 34 35 35 35 35 36 36 36 36 37 37 38 39 40 41
24 24 26 26 27 28 29 29 30 31 31 32 32 33 34 34 35 35 36 36 36 36 36 37 39 37 36 36 36 36 36 37 37 38 38 39 39 40 40 40 41 42 43
22 22 23 24 25 27 28 28 29 29 29 30 31 32 33 34 34 35 36 37 37 37 37 38 39 39 39 38 37 37 37 38 39 40 40 40 41 41 42 42 42 43 44
20 20 21 22 24 25 26 28 29 30 31 32 32 33 33 33 34 34 35 36 37 37 38 39 39 39 40 40 40 39 40 41 41 41 41 42 42 43 44 44 45 45 45
21 21 21 22 23 25 26 28 29 30 32 32 33 33 33 33 34 35 35 36 37 37 38 38 38 38 39 40 40 41 42 42 42 42 43 43 45 45 46 46 47 47 48
21 23 24 24 25 26 27 29 30 31 32 32 32 33 33 34 35 35 36 36 37 38 39 39 39 39 39 40 41 42 42 43 43 44 45 46 47 47 48 49 49 50 50
21 23 24 26 26 27 28 30 31 31 32 32 33 34 35 35 36 36 36 37 37 38 38 39 40 41 41 41 42 43 43 44 45 46 47 48 48 49 50 51 51 52 52
21 23 25 26 27 29 29 30 31 32 32 33 34 35 36 36 37 37 37 38 38 38 39 39 40 41 41 42 43 44 45 45 46 47 48 49 49 50 51 52 52 53 53
22 24 26 27 28 29 30 31 31 32 33 34 35 35 36 37 38 38 38 39 39 40 40 41 41 42 43 43 44 45 46 46 47 48 48 49 50 50 51 52 52 53 53
23 25 27 28 29 30 31 32 32 33 35 36 36 37 38 38 38 38 39 40 40 41 42 42 43 43 44 44 45 46 47 48 49 49 49 49 49 50 50 51 51 52 52
25 27 28 30 31 32 33 34 35 36 37 37 38 38 38 38 39 39 39 40 41 42 42 43 43 44 44 44 45 46 47 48 49 49 49 49 49 50 50 50 51 51 51
28 29 30 32 33 34 35 36 37 38 38 39 39 39 39 40 40 40 41 41 42 42 43 43 43 44 44 44 45 45 46 47 48 48 49 49 50 51 50 50 50 51 51
30 31 33 34 35 36 37 38 39 39 39 40 40 40 41 41 41 42 42 42 43 43 43 44 44 44 45 46 46 46 46 46 47 47 48 49 50 50 50 50 51 50 50
33 34 35 36 37 38 39 39 40 40 41 41 41 41 42 42 42 43 43 44 44 44 44 45 45 45 46 46 47 47 46 46 46 47 48 49 49 49 50 50 50 50 50
35 36 37 38 39 39 39 40 41 41 41 42 42 42 42 42 43 43 44 44 44 45 45 45 45 46 46 47 47 47 47 47 47 48 48 49 49 49 49 50 50 50 50
37 37 38 39 39 40 41 42 42 42 42 42 43 43 43 43 43 43 44 44 45 45 46 46 46 46 47 47 48 48 48 48 48 49 49 50 50 50 51 51 50 50 50
38 39 40 41 41 42 43 43 43 44 44 44 44 44 44 44 44 44 44 45 45 45 46 46 46 47 47 48 49 49 49 49 50 50 50 50 51 51 51 51 51 51 51
41 41 42 42 43 43 44 44 45 45 45 45 45 45 45 45 45 45 45 46 46 46 47 47 47 48 49 49 49 49 49 50 50 51 51 51 51 51 51 51 51 51 51
42 43 43 43 44 45 46 46 46 46 45 45 45 45 45 46 46 46 46 46 47 47 47 48 48 48 49 49 49 50 50 50 50 50 51 51 51 51 51 51 51 51 50
44 45 45 45 45 46 47 47 46 47 46 46 46 46 46 46 46 46 47 47 48 48 48 47 48 48 48 49 50 50 50 50 50 51 51 51 51 51 51 51 50 50 49
46 46 46 47 47 47 47 47 47 47 47 47 47 47 47 47 47 47 47 47 47 47 47 48 48 48 48 49 50 49 49 50 50 51 51 51 51 50 50 49 49 48 48
47 47 48 48 48 48 48 48 48 48 48 48 47 47 47 47 47 46 46 47 47 47 47 48 48 49 49 49 49 49 49 50 50 50 50 49 49 49 48 48 47 47 46
47 47 48 48 49 48 48 47 48 48 48 47 47 47 47 46 46 46 46 46 47 47 47 48 48 49 49 49 49 49 50 50 50 50 49 49 48 48 47 46 46 45 44

GEFSMW_500_meanwind_174.txt.gz
Wind_Speed
29 31 33 36 38 37 36 35 34 33 32 31 31 32 33 32 32 32 32 32 32 32 33 34 34 34 33 33 34 34 34 34 33 33 33 34 34 34 34 34 34 34 34
28 28 30 33 36 35 35 35 34 32 32 31 30 31 32 33 34 34 34 34 34 33 34 34 35 36 36 36 36 35 35 35 35 35 35 36 35 35 35 35 35 36 36
26 27 28 32 33 32 33 33 33 33 33 32 31 31 32 32 33 34 34 34 34 33 34 34 35 36 37 37 37 36 36 36 36 36 36 36 36 36 36 36 37 37 38
25 27 27 29 31 30 31 32 32 32 33 32 30 30 30 32 33 33 33 35 35 35 35 36 37 37 37 38 38 38 38 37 37 37 37 37 37 37 37 38 38 39 39
24 25 26 27 29 30 31 31 31 31 32 32 31 31 32 32 32 33 33 34 35 35 36 37 38 38 38 39 38 38 38 38 38 37 37 38 38 39 39 40 40 40 41
24 24 25 26 28 29 30 30 30 31 32 31 31 31 32 32 33 33 34 35 36 37 38 38 38 38 38 38 38 38 38 38 38 38 38 38 39 40 41 41 40 40 41
22 23 23 24 26 27 28 28 28 29 31 31 31 32 33 33 33 34 35 36 36 37 37 37 38 38 39 39 39 39 38 38 38 39 39 40 40 41 41 42 42 41 42
20 22 23 23 24 27 27 27 28 29 30 31 31 32 33 33 34 34 35 36 36 37 36 36 37 38 38 39 40 40 39 39 40 40 40 41 41 41 41 42 43 43 44
18 20 22 23 24 25 26 27 27 28 29 30 32 32 32 33 34 35 36 36 36 36 36 36 37 38 39 40 40 40 41 41 41 42 42 41 41 42 43 44 44 45 46
17 19 20 22 23 25 26 27 27 28 29 30 31 32 32 33 34 35 36 36 37 37 37 38 39 39 39 40 41 42 42 42 43 43 44 44 44 44 44 45 46 47 48
17 19 20 21 22 23 25 26 27 28 29 30 31 32 33 34 35 36 37 38 38 39 39 40 40 40 40 41 41 43 43 44 44 45 45 45 46 47 47 48 48 48 49
17 19 20 21 23 24 25 26 27 28 29 30 32 33 34 35 36 37 39 40 40 41 41 42 42 42 42 43 43 44 45 45 46 46 46 47 47 48 49 49 49 50 50
18 20 21 23 24 25 27 28 29 30 31 32 33 34 36 38 39 40 41 42 42 42 43 43 43 44 44 44 45 45 46 46 46 47 47 48 48 48 49 49 50 50 50
20 22 23 24 25 27 28 29 30 31 32 34 35 37 38 40 41 42 42 42 43 43 44 44 45 45 45 46 46 46 46 47 47 48 48 49 49 49 49 50 50 50 51
22 24 25 26 27 28 29 30 32 33 35 36 38 39 41 41 42 43 43 43 43 44 44 45 45 46 47 47 47 47 47 48 48 48 49 49 50 49 50 50 50 50 51
25 26 28 29 30 31 32 33 34 36 38 39 40 42 43 43 44 44 44 44 44 45 45 45 46 46 47 47 48 48 48 48 49 49 49 49 50 50 50 51 51 51 52
29 29 30 31 32 33 34 35 36 38 39 40 42 43 44 44 44 44 45 45 45 45 46 46 46 46 47 48 48 48 49 49 50 50 50 50 50 50 51 51 52 52 52
32 33 33 34 34 35 36 36 37 39 40 42 42 43 44 44 44 45 45 46 46 46 47 47 47 47 48 49 49 49 49 50 50 50 50 50 50 51 52 52 53 53 53
35 35 36 37 37 37 38 39 40 41 42 43 43 44 45 45 45 45 45 46 46 47 47 47 47 48 48 49 49 50 50 50 51 51 51 51 51 52 53 53 54 54 54
37 38 39 39 39 40 40 41 42 43 44 44 45 45 46 46 46 46 46 47 47 47 47 47 48 49 49 50 50 50 50 50 50 50 51 51 52 52 53 53 54 54 54
40 40 40 41 41 42 42 43 44 44 45 46 46 46 46 46 47 47 48 48 48 48 48 48 49 49 50 50 50 50 50 50 50 50 51 51 51 52 53 53 53 53 53
42 42 42 42 43 43 44 44 45 46 47 47 47 47 47 48 48 48 49 49 50 50 50 49 49 50 50 50 50 50 50 50 50 50 50 51 51 51 52 52 52 52 53
43 44 44 44 45 46 46 46 47 47 47 47 47 48 48 48 49 49 49 50 50 51 50 50 50 50 50 50 50 51 51 51 51 51 50 51 51 51 51 51 51 51 51
45 45 45 46 46 47 47 48 48 48 47 47 48 48 49 49 48 48 49 49 50 50 50 50 50 50 50 50 50 50 51 51 51 51 51 51 51 51 51 51 50 50 50
46 46 47 46 46 47 47 48 48 48 48 48 48 48 48 48 48 48 48 49 49 49 49 49 50 49 49 49 49 49 49 49 49 50 50 50 50 50 50 50 49 48 48
46 46 47 47 47 47 47 48 48 48 48 48 48 48 48 48 48 48 48 48 48 48 48 48 48 48 48 48 48 48 48 48 48 49 49 49 49 49 48 48 47 47 46

GEFSMW_500_meanwind_180.txt.gz
Wind_Speed
26 30 31 32 34 35 37 37 36 35 35 35 34 34 33 32 32 32 32 33 33 33 33 32 32 31 31 32 33 33 33 33 33 33 33 33 34 34 34 34 34 34 34
24 27 31 32 33 34 36 38 36 36 36 35 33 33 32 32 32 33 34 34 34 34 34 34 32 32 33 33 34 34 34 35 35 34 34 34 34 35 35 35 35 36 36
25 26 28 30 31 33 33 36 36 34 34 36 35 34 32 30 31 33 34 35 35 34 35 34 33 33 33 34 35 35 36 36 36 36 36 36 36 36 36 36 36 37 37
24 25 25 27 28 31 32 34 35 35 33 34 35 35 31 31 32 33 34 34 35 34 34 34 34 34 35 36 36 37 37 37 37 38 37 37 36 36 36 37 37 38 38
23 25 24 26 27 28 30 32 32 33 32 31 32 32 31 32 32 32 32 33 33 33 33 34 35 35 36 36 36 37 38 38 38 38 38 38 38 37 37 37 38 40 40
22 24 24 24 27 28 28 29 30 31 32 32 31 30 30 31 31 32 32 33 34 34 34 33 34 35 36 37 37 37 39 39 39 39 39 40 40 40 40 40 40 40 41
19 23 25 24 26 28 27 29 30 31 31 31 31 31 31 32 32 33 33 34 34 34 34 34 34 36 38 39 39 39 39 39 39 40 40 40 41 42 42 42 42 42 42
18 20 23 25 26 28 27 28 29 30 31 31 32 33 34 34 34 34 34 35 35 35 35 35 36 37 38 39 40 40 40 41 41 41 41 42 42 43 44 44 44 44 44
17 19 22 25 26 27 27 27 29 30 30 31 32 33 34 34 35 35 36 36 36 36 36 37 37 38 39 39 40 41 41 42 43 43 44 45 45 45 45 46 46 47 46
16 18 21 24 26 27 28 28 29 29 30 31 31 32 32 33 34 36 37 37 38 38 38 39 40 40 41 41 42 42 43 44 44 45 46 46 46 46 47 48 49 49 50
15 18 20 23 25 27 29 29 30 30 31 32 33 33 33 33 34 35 36 37 38 39 40 41 42 42 42 43 43 43 44 44 45 46 47 48 48 47 48 49 50 51 52
15 17 19 21 23 26 28 29 30 31 32 33 34 35 35 35 35 36 36 37 39 40 41 42 43 43 43 44 44 44 45 45 46 47 48 49 50 50 50 51 51 52 52
16 17 19 21 22 24 26 29 31 31 32 33 35 36 36 37 37 38 38 39 39 41 42 43 44 44 44 44 45 46 46 47 47 48 49 49 50 51 51 52 52 53 53
18 20 22 23 24 25 26 28 31 32 33 34 36 37 37 38 39 39 39 40 41 43 44 45 45 46 46 46 46 47 47 48 49 49 49 50 51 52 52 52 52 53 53
21 22 24 25 26 27 28 31 33 34 35 36 37 38 39 40 41 42 42 43 44 45 46 46 47 47 47 47 47 48 49 49 49 50 50 51 52 52 53 53 53 53 53
23 25 26 27 28 29 31 32 34 35 36 37 38 39 40 42 43 44 45 46 46 47 47 48 48 48 48 48 49 49 49 50 50 50 51 51 52 53 53 53 54 54 54
27 28 29 29 30 32 33 34 35 36 37 38 39 41 42 43 44 45 46 46 47 48 48 49 49 49 49 49 49 49 49 50 50 51 52 52 53 53 53 53 53 54 53
30 31 32 33 34 35 36 36 37 38 40 40 41 42 43 44 45 46 47 47 48 49 49 49 49 49 50 50 50 50 51 51 52 52 52 53 53 54 54 53 53 53 54
34 35 35 36 37 38 39 40 40 41 42 43 44 45 45 46 46 47 48 49 49 50 50 50 50 50 50 51 51 52 52 52 52 52 52 53 54 54 55 55 54 54 55
37 38 39 39 40 41 42 42 43 44 44 45 46 47 47 48 48 49 49 50 50 51 51 51 51 51 52 52 53 53 53 53 53 53 53 54 54 54 55 55 54 55 54
40 41 41 42 43 43 44 44 44 45 47 48 48 49 50 50 51 51 52 52 52 52 52 52 52 52 53 53 53 53 53 53 53 53 53 53 54 54 54 54 55 54 55
43 44 45 45 45 45 46 46 46 47 48 49 50 50 51 52 52 52 53 53 52 53 53 53 53 53 53 54 54 53 53 53 53 52 53 53 53 53 53 53 53 53 54
46 46 46 45 45 46 47 47 47 47 48 49 49 50 51 52 53 53 53 53 53 53 53 54 53 54 54 53 53 53 53 52 52 52 52 52 52 52 53 52 52 52 52
46 46 45 45 45 46 46 47 47 47 48 49 49 50 51 51 52 52 53 53 53 53 53 53 53 53 53 53 53 52 52 52 52 51 51 51 52 52 51 51 51 51 51
46 46 46 46 46 46 47 47 48 48 48 48 49 50 51 51 51 51 51 52 52 52 52 53 53 52 52 53 52 51 51 50 51 51 51 50 50 50 50 50 50 50 50
47 47 47 47 47 47 48 48 48 49 49 49 49 50 50 50 50 50 50 50 51 51 51 52 52 52 52 51 51 50 49 49 50 50 49 49 49 49 49 49 49 49 49

GEFSMW_500_meanwind_186.txt.gz
Wind_Speed
21 23 25 26 30 33 37 39 39 39 39 40 39 37 38 39 37 36 35 34 33 32 32 31 31 31 32 33 33 33 32 32 31 31 31 30 30 30 32 32 33 33 34
20 22 24 26 27 29 33 36 36 38 39 40 39 37 37 38 38 37 36 34 33 33 32 32 31 32 32 33 34 35 35 34 33 33 32 32 33 32 32 33 34 34 35
17 20 23 24 25 28 31 32 33 34 36 38 38 38 36 37 38 36 35 34 33 33 33 34 34 33 33 34 35 35 36 35 35 34 34 34 34 35 35 34 35 36 36
14 18 21 21 23 26 29 30 31 32 33 35 36 35 35 36 37 36 34 32 32 32 34 34 35 35 34 34 35 36 37 37 37 37 37 38 37 37 37 37 37 38 38
11 15 19 21 23 25 27 28 30 32 33 33 33 34 33 35 36 37 35 33 33 33 34 34 35 36 36 35 35 35 37 37 37 38 39 39 39 39 38 39 39 40 39
9 13 16 20 22 24 25 26 26 28 30 31 30 31 31 33 34 35 36 35 35 35 34 35 35 36 37 38 38 38 38 38 39 39 40 40 40 40 40 39 40 40 41
9 12 16 18 21 22 22 24 25 26 27 28 29 29 29 30 32 32 34 35 35 35 36 35 35 36 37 38 39 39 39 39 40 41 41 42 43 42 42 42 42 42 42
8 11 14 16 18 20 21 23 25 26 28 28 29 29 28 29 30 31 33 33 34 34 36 36 36 37 37 39 40 40 40 41 41 42 43 44 44 45 44 44 44 44 44
7 9 11 13 16 19 19 22 24 26 28 29 30 30 29 30 31 32 32 32 32 33 34 35 37 38 38 39 40 41 41 41 42 42 43 44 45 46 47 47 46 46 46
7 7 10 12 15 17 19 21 23 26 28 30 31 32 33 32 32 33 34 34 34 34 35 34 36 38 39 40 41 41 41 42 42 43 44 45 47 48 49 49 48 48 49
7 8 9 12 15 17 20 21 23 25 27 30 31 32 32 34 34 34 35 36 36 36 37 38 38 39 40 40 41 42 43 44 45 46 47 48 49 50 50 50 50 51 52
10 10 11 13 15 17 19 22 24 26 28 30 33 33 34 35 36 36 36 37 38 39 40 40 39 39 40 41 42 43 44 45 46 47 48 49 50 51 51 52 52 53 54
13 13 14 15 17 19 21 23 25 28 30 31 33 35 35 36 38 39 38 39 40 40 41 41 41 41 42 42 44 45 46 47 47 48 48 49 50 51 52 53 53 54 55
15 15 16 17 19 21 23 25 27 28 31 32 33 35 37 37 38 40 41 41 41 41 42 43 44 44 45 45 45 46 47 48 48 48 49 50 51 51 52 52 53 54 54
17 18 19 21 22 23 25 27 28 29 30 32 33 34 37 37 39 40 41 43 43 43 44 44 45 45 46 47 47 48 48 49 49 51 51 51 51 51 52 52 53 53 54
19 20 21 23 24 25 26 28 29 31 32 32 34 35 36 38 40 41 42 43 43 44 45 46 46 46 47 47 48 49 50 50 51 51 51 51 51 52 52 52 53 54 54
24 24 24 25 26 26 28 29 31 32 32 33 35 36 37 39 41 42 42 43 44 45 46 46 47 47 48 49 49 50 51 51 51 52 52 52 52 52 52 53 53 54 55
27 28 28 29 29 29 30 31 33 34 35 36 37 37 39 40 41 42 43 44 45 47 47 48 49 49 50 51 51 52 53 53 53 53 53 53 53 54 54 54 55 55 56
30 30 30 31 31 32 33 33 34 35 37 38 39 39 41 42 43 44 45 46 47 48 49 50 51 51 52 52 53 53 53 53 52 52 53 53 54 54 55 56 56 56 56
33 33 33 34 34 34 35 36 36 37 38 39 40 41 42 44 45 46 47 48 49 49 50 51 51 51 52 52 53 53 53 52 52 52 53 54 54 55 56 56 56 55 55
35 36 36 36 36 37 37 38 38 39 40 41 41 42 44 45 46 47 48 48 49 50 50 51 51 52 52 52 52 52 53 52 52 53 53 54 55 55 55 55 55 54 55
38 38 38 38 38 38 39 39 40 40 41 42 43 43 44 45 46 47 47 48 49 50 50 50 51 51 51 51 52 52 53 53 53 53 54 54 54 55 55 54 54 54 54
39 39 39 39 39 40 40 41 41 41 41 42 42 43 44 45 46 47 48 48 48 49 50 50 50 50 50 50 51 51 52 52 53 53 54 54 54 54 54 53 53 54 53
39 39 40 40 40 40 40 41 41 41 42 42 43 44 44 45 46 47 47 47 47 48 48 49 49 49 49 49 50 51 51 52 52 53 53 53 52 52 52 52 52 52 52
40 40 41 41 41 41 41 42 42 42 42 43 43 44 44 45 46 46 46 46 46 47 48 48 49 49 49 49 50 50 50 51 51 51 51 51 51 50 50 50 50 51 51
41 41 42 42 43 43 42 42 43 43 43 43 43 44 44 45 45 45 46 47 47 47 47 48 49 48 49 49 49 49 50 50 50 51 50 50 49 49 49 49 49 49 49

GEFSMW_500_meanwind_192.txt.gz
Wind_Speed
18 19 20 21 23 24 26 27 29 30 34 38 39 39 40 40 41 41 40 40 39 38 36 35 35 34 34 34 33 33 34 34 34 33 32 31 30 30 30 30 30 29 30
17 17 18 19 20 21 24 25 27 29 33 36 37 36 38 39 41 41 39 39 39 37 36 35 35 34 34 33 34 35 35 35 35 35 34 33 32 32 32 32 32 32 32
16 17 17 18 18 18 20 23 25 28 31 35 36 34 37 39 39 40 40 38 39 39 38 37 37 36 35 35 35 35 35 35 36 36 36 35 34 34 34 35 35 35 36
15 16 15 15 16 17 19 21 23 27 30 32 34 35 36 38 38 39 39 39 38 38 38 37 36 36 36 36 35 36 36 35 36 36 36 37 36 36 36 37 37 38 38
14 14 14 14 15 16 18 20 22 25 28 31 32 33 34 35 37 38 38 39 39 38 38 38 38 38 37 37 36 37 36 36 36 37 37 37 38 39 38 38 38 39 39
14 13 13 13 15 16 18 20 21 22 25 28 29 31 33 35 36 36 36 37 37 37 38 39 39 38 37 37 37 38 38 38 38 38 39 39 41 42 42 41 40 40 41
14 13 12 13 15 16 19 20 21 22 24 26 25 28 30 32 34 35 35 36 36 37 37 37 37 37 37 36 37 37 38 39 40 40 40 40 41 42 43 43 42 42 42
13 13 12 13 15 17 18 19 20 22 24 25 23 25 28 31 32 33 35 36 36 37 37 36 37 37 37 38 38 38 39 40 40 41 41 42 42 43 44 44 44 44 44
13 13 13 13 14 15 17 18 19 22 23 24 22 24 25 27 28 30 33 35 35 36 37 38 38 39 38 38 38 38 39 41 42 42 43 44 44 44 44 45 45 45 46
14 13 14 14 14 14 15 17 19 19 21 24 23 23 24 26 27 29 31 34 36 36 36 37 38 38 38 39 39 39 41 42 42 43 44 44 45 45 45 45 46 47 48
15 14 14 14 14 15 16 18 18 19 22 23 24 23 25 27 29 29 31 33 35 35 35 36 37 38 38 38 38 38 39 41 42 43 44 44 45 46 46 47 48 49 50
16 16 15 15 15 15 16 18 19 20 22 23 24 26 26 28 29 30 31 33 34 35 34 35 37 38 37 38 38 39 40 40 42 43 43 44 46 47 48 49 50 51 51
17 17 17 16 16 16 17 18 19 21 23 23 24 26 28 29 30 31 32 33 35 36 36 37 38 39 39 40 40 41 42 42 43 44 45 46 47 47 48 49 50 51 51
18 18 18 19 19 19 19 19 20 22 24 25 25 28 29 30 31 32 34 35 37 38 39 39 40 40 41 42 42 43 43 44 45 46 47 48 49 49 50 50 50 51 52
21 20 20 20 21 21 22 22 22 24 25 26 27 28 29 32 34 35 36 37 38 39 40 40 41 41 42 43 44 44 45 46 47 48 49 50 50 51 52 52 52 53 53
23 22 22 22 23 23 24 24 25 25 27 28 29 30 31 32 34 36 38 38 39 40 41 41 42 42 43 44 45 46 47 48 49 50 51 51 51 52 52 53 53 52 52
25 25 25 25 25 25 26 27 27 28 29 30 31 32 33 33 34 36 37 38 39 40 41 43 44 44 44 45 46 47 49 50 51 51 51 51 52 52 52 53 53 52 53
28 27 28 28 28 28 28 28 29 30 30 32 33 33 34 35 36 37 38 39 41 42 43 44 46 47 47 48 48 49 50 51 51 52 52 52 52 52 52 52 52 52 52
30 30 29 30 30 31 31 31 31 32 32 33 34 35 35 36 38 38 39 40 41 43 44 45 46 47 48 49 50 51 52 52 52 53 53 53 53 53 52 52 52 52 52
32 32 32 32 32 32 33 33 33 33 34 34 34 35 37 38 39 40 41 41 42 43 45 46 47 47 48 49 51 51 51 51 51 52 52 53 53 53 53 54 54 53 53
33 33 33 34 34 34 35 35 35 35 35 35 36 36 37 39 40 41 42 42 42 43 44 46 46 47 48 49 50 51 51 51 51 51 51 52 52 53 53 54 54 54 54
34 34 34 35 35 35 36 36 35 35 36 36 36 37 38 39 40 41 42 43 43 44 44 45 46 46 47 48 49 49 50 50 50 51 51 51 52 52 53 53 54 54 54
36 36 36 36 36 37 37 36 36 37 37 38 38 39 40 40 40 41 41 42 43 43 44 45 45 46 47 47 48 48 48 49 49 49 50 51 51 51 52 53 53 53 53
37 37 37 38 38 38 38 38 38 38 39 39 40 40 40 40 41 41 42 42 43 43 44 45 45 46 47 46 46 46 47 48 48 48 50 50 51 51 51 52 52 53 53
38 38 38 38 38 38 39 39 40 40 40 41 41 41 41 41 42 42 42 43 43 44 44 44 44 45 45 45 45 46 46 47 49 49 50 50 50 51 51 51 51 52 52
39 39 39 38 38 39 39 40 41 41 41 41 41 42 42 43 43 43 43 44 44 44 43 43 44 44 45 45 45 46 47 48 48 49 50 50 51 50 50 50 50 51 51

GEFSMW_500_meanwind_198.txt.gz
Wind_Speed
18 19 19 18 19 21 23 23 26 29 31 31 32 34 36 38 40 41 40 42 44 43 42 43 41 40 40 40 38 37 38 38 38 37 36 36 35 34 33 34 33 33 33
18 18 18 18 18 19 20 22 24 27 29 30 31 32 34 36 37 40 38 40 42 43 42 42 42 40 40 40 40 38 38 37 38 39 39 38 37 36 36 36 36 36 35
17 17 17 18 17 17 18 19 23 25 26 28 29 30 32 35 37 38 37 37 39 41 42 42 43 43 41 40 40 39 39 38 39 40 41 41 40 39 38 38 38 37 37
16 16 16 16 16 16 17 18 21 23 24 27 29 28 29 31 35 38 38 37 38 40 42 42 42 42 42 41 40 40 40 40 40 40 40 40 40 40 39 39 40 40 39
15 15 16 16 16 17 18 18 20 22 23 25 27 28 28 30 33 36 38 38 39 40 42 44 43 41 40 41 41 41 41 41 41 41 41 41 40 40 41 40 40 40 41
15 15 15 16 17 17 18 19 21 21 22 22 25 27 28 29 31 34 37 38 37 38 40 43 44 42 40 40 41 41 42 42 41 41 41 41 41 41 41 41 41 41 42
15 15 15 16 16 17 17 18 20 21 22 22 24 25 27 29 32 33 36 37 37 37 39 41 44 44 42 41 40 41 40 40 41 40 40 42 42 42 42 42 42 42 42
16 16 16 16 17 17 17 18 19 21 22 22 23 24 26 28 30 32 35 36 37 37 38 40 42 43 43 44 43 42 42 42 43 43 42 43 44 44 44 44 44 44 44
18 18 17 17 17 18 18 18 20 21 22 23 24 24 25 25 28 30 33 35 38 36 36 38 40 41 41 41 41 42 42 43 44 44 44 45 45 45 46 46 46 46 47
19 19 18 18 18 18 18 18 19 20 21 22 23 24 25 25 25 27 28 31 35 35 35 38 38 38 38 39 40 41 43 43 43 42 43 44 45 45 45 46 46 46 47
20 20 19 19 19 19 19 18 19 20 20 21 23 24 25 26 26 28 28 29 32 34 35 36 36 37 38 39 40 41 43 43 42 42 43 44 44 44 45 46 46 47 47
20 19 19 19 20 20 20 19 19 20 20 20 21 23 24 26 27 27 28 30 33 35 35 36 37 38 38 39 40 40 41 42 42 43 44 45 44 44 45 45 46 47 48
20 20 20 20 20 20 20 20 20 20 20 20 20 21 23 24 26 27 29 31 33 35 35 36 37 39 39 39 40 40 41 42 43 44 44 44 45 45 46 46 47 48 48
22 21 21 21 21 21 21 20 21 21 21 21 21 21 23 24 25 27 30 31 33 35 36 37 38 39 39 39 39 40 42 43 44 44 45 45 46 46 47 47 48 49 49
24 23 22 22 21 22 22 21 21 22 22 22 22 23 23 24 25 27 29 31 33 34 35 36 37 38 39 39 39 40 41 43 44 45 45 45 46 46 47 48 48 49 50
26 25 24 24 23 23 23 23 22 23 23 23 24 25 25 25 26 28 29 32 33 35 36 36 36 38 39 39 40 41 41 42 43 44 45 45 46 47 48 49 50 51 52
27 26 26 26 25 25 25 25 25 25 25 25 25 25 25 25 26 28 30 32 34 35 36 36 37 38 39 40 41 41 42 43 43 44 45 46 48 49 50 51 52 53 54
28 28 27 27 27 27 27 27 27 28 28 28 28 28 28 28 28 29 30 31 32 33 34 35 37 38 39 41 42 43 44 44 45 46 47 48 49 51 52 52 53 53 54
28 28 28 28 28 28 28 29 28 29 29 30 30 30 30 29 29 29 29 30 32 34 36 36 37 38 40 42 44 44 45 46 47 49 49 49 50 50 51 52 53 53 53
30 30 30 29 29 29 29 29 29 30 30 31 31 31 31 31 31 31 31 32 33 35 37 38 39 40 41 43 44 44 45 47 48 50 51 51 51 51 51 52 53 53 53
31 31 31 31 30 30 30 30 30 30 31 32 33 33 32 33 33 33 33 34 35 36 37 39 40 41 42 43 44 44 45 46 47 48 49 50 51 51 52 53 54 54 54
33 33 32 32 32 32 32 32 32 32 32 33 33 34 34 35 35 35 35 36 37 38 39 39 40 41 41 42 42 44 45 45 46 47 49 50 51 52 52 52 53 54 54
34 34 34 33 33 33 33 33 33 33 33 34 34 35 35 36 37 37 37 37 37 38 39 40 40 40 41 42 43 44 45 46 47 48 49 50 51 51 52 52 53 53 53
35 35 34 34 35 34 34 33 33 34 34 34 34 35 36 37 37 38 38 38 38 38 38 39 40 41 42 43 44 45 45 46 46 47 47 48 49 50 50 51 52 52 52
35 35 35 35 35 35 35 35 35 35 35 35 35 36 36 37 37 38 38 38 38 39 40 41 41 42 43 43 44 45 44 44 44 45 45 46 46 47 48 49 50 51 51
35 35 36 35 35 35 35 35 35 35 35 36 37 37 37 38 38 38 38 38 39 40 41 42 42 42 42 42 42 42 43 43 43 44 44 44 45 46 46 47 48 49 49

GEFSMW_500_meanwind_204.txt.gz
Wind_Speed
26 26 26 26 26 25 25 25 26 27 27 28 31 34 34 33 34 35 37 38 39 40 39 41 41 42 42 42 41 41 41 41 40 40 41 39 39 38 38 37 36 35 34
25 25 25 25 24 23 22 22 23 24 25 27 29 31 32 32 32 34 36 38 40 41 40 40 41 42 42 43 43 42 42 42 41 40 40 39 39 39 39 39 37 36 36
24 24 24 23 23 22 21 20 21 23 24 25 26 28 31 31 30 32 34 36 39 41 42 40 42 42 43 42 42 41 42 42 42 42 41 40 40 40 40 40 39 38 37
23 23 23 23 22 21 21 21 21 22 24 25 26 27 29 31 31 32 34 36 37 40 43 41 42 43 43 43 43 42 42 42 42 41 41 41 41 42 42 41 41 40 39
23 23 22 22 21 21 21 21 21 22 23 24 25 26 28 30 31 31 32 34 36 39 41 42 43 44 44 45 45 44 43 43 43 42 42 42 42 43 43 42 41 41 42
23 23 22 22 22 22 22 22 22 23 24 24 25 26 27 29 31 31 32 33 34 37 39 40 41 43 44 45 45 45 45 43 43 43 43 43 42 42 42 43 42 42 42
23 23 23 22 21 21 22 22 22 23 24 24 25 26 27 29 30 30 31 32 34 35 36 39 41 43 44 45 46 45 46 46 45 44 44 44 43 44 43 43 43 43 43
22 22 22 22 21 21 21 22 23 23 24 25 26 26 27 28 30 31 32 32 33 34 35 37 40 42 44 45 45 46 46 47 48 47 45 45 44 44 44 43 43 43 43
23 23 22 23 23 23 22 23 22 23 25 26 28 28 28 28 30 31 33 33 32 34 37 37 38 41 42 44 46 46 47 47 48 48 47 46 45 45 45 45 44 44 44
24 24 24 24 24 23 23 23 23 24 25 27 27 28 27 27 28 30 32 32 33 33 36 38 39 40 42 43 44 46 47 47 48 48 48 47 47 47 47 47 46 46 46
25 25 25 25 25 24 23 23 24 25 26 27 28 28 27 26 27 30 32 32 33 33 34 36 38 39 40 42 43 45 46 46 47 48 48 49 48 47 48 48 47 46 46
27 26 26 26 26 25 25 25 25 26 26 27 27 27 27 27 27 29 31 32 33 34 35 36 36 37 39 41 42 43 43 45 46 47 48 48 47 48 49 49 48 47 46
28 28 27 27 27 26 26 26 26 25 26 26 26 26 27 28 29 29 30 30 31 33 35 37 38 38 38 39 39 40 42 44 45 45 46 46 47 47 47 48 48 48 47
29 29 28 28 27 27 26 26 26 26 25 25 26 27 27 28 29 30 29 29 30 31 34 35 36 38 38 38 38 39 40 41 42 43 44 44 45 46 47 48 49 49 49
29 29 29 28 28 27 27 26 26 26 26 26 26 27 28 28 29 30 29 29 30 31 32 33 34 35 36 36 37 38 38 40 41 43 44 44 45 45 46 48 48 49 50
30 30 29 29 29 28 27 27 26 26 26 27 27 28 28 29 30 31 30 31 31 32 33 33 33 34 35 36 37 38 39 40 41 43 45 45 44 45 46 47 48 49 50
30 30 30 29 29 29 28 27 27 28 28 27 27 28 28 28 29 30 30 31 31 31 32 33 34 35 36 37 38 39 39 40 42 43 43 44 44 45 46 48 49 50 51
30 29 28 28 28 29 28 27 27 28 27 27 27 27 27 27 28 29 30 31 31 31 32 33 34 35 37 38 39 39 39 39 40 41 43 44 44 45 46 48 49 50 51
30 29 28 28 28 28 28 27 27 28 28 28 28 28 28 28 29 29 30 30 30 31 32 33 33 34 35 37 37 38 38 39 39 40 41 42 43 45 46 48 49 49 50
31 29 29 29 29 29 29 28 28 28 29 29 28 27 28 29 29 29 30 31 31 32 33 33 33 33 34 35 36 37 37 38 39 41 43 44 45 46 47 47 48 48 49
32 31 30 29 30 30 29 29 29 29 29 29 29 28 28 28 29 29 29 30 30 30 31 32 32 33 33 35 36 37 37 38 40 41 42 43 44 46 47 47 48 49 50
33 32 32 31 31 31 30 30 30 30 30 30 30 29 29 29 29 30 30 30 30 29 30 30 31 33 34 35 36 37 38 39 40 41 42 43 43 44 46 47 48 49 50
34 33 33 33 33 32 32 32 31 30 29 30 30 31 31 30 30 30 30 30 30 31 31 31 32 33 35 36 37 38 39 40 40 41 42 42 43 44 45 46 47 48 49
34 34 33 33 33 33 33 33 32 31 31 31 31 31 32 32 31 31 31 31 32 32 33 33 33 33 35 36 37 37 38 39 39 40 41 41 42 42 43 44 45 46 47
34 35 34 34 33 33 34 33 33 33 33 32 33 33 33 33 33 33 32 32 33 34 34 34 35 35 36 36 37 38 38 38 38 39 40 40 41 42 43 44 44 45 46
35 35 35 35 34 34 33 33 33 33 33 33 34 34 34 34 34 34 34 34 35 35 36 36 37 37 37 37 38 38 38 38 39 39 39 40 41 42 42 43 44 44 45

GEFSMW_500_meanwind_210.txt.gz
Wind_Speed
28 28 28 28 28 27 26 26 27 29 30 31 31 32 32 33 33 34 35 36 37 39 39 40 42 42 41 42 43 42 42 43 43 43 43 42 42 41 41 40 40 40 39
27 27 27 27 27 27 27 27 27 27 28 29 31 32 33 32 33 34 35 36 37 39 40 40 41 42 42 43 43 42 42 43 43 43 44 43 43 43 43 41 41 41 40
27 27 27 27 27 27 27 27 27 28 29 29 30 32 33 34 34 34 35 36 37 38 39 40 42 42 43 43 43 42 42 42 42 42 43 44 44 43 42 42 41 40 40
26 27 27 28 27 27 27 28 28 29 30 30 30 30 31 32 33 33 34 35 36 37 39 40 41 42 42 43 43 43 43 43 44 44 45 45 44 44 43 43 42 41 41
25 26 27 27 27 28 28 27 28 29 29 29 29 30 31 31 32 33 33 33 34 35 37 38 40 41 42 44 44 43 44 45 45 45 44 45 45 46 46 45 44 44 44
25 26 26 27 27 27 27 27 28 28 29 29 29 30 30 30 31 31 32 33 33 34 35 36 37 39 41 43 43 44 45 45 46 46 46 46 46 46 46 46 46 45 44
26 26 26 26 27 27 27 28 28 28 29 29 29 29 29 30 31 31 32 32 32 34 36 37 37 38 40 41 42 43 44 45 46 47 47 48 48 48 48 47 47 46 46
26 27 26 26 27 27 28 27 27 27 27 28 29 29 29 30 30 31 32 32 32 34 36 36 38 38 39 41 42 42 45 46 47 47 48 49 48 48 48 49 49 48 47
27 27 27 26 26 26 27 27 27 27 27 28 29 30 29 29 29 30 31 32 33 33 35 36 38 38 40 40 41 43 44 45 46 47 49 50 50 49 48 48 49 49 48
27 27 27 27 27 26 27 27 28 28 28 28 29 30 30 29 29 30 31 31 32 33 35 36 37 38 39 39 41 42 43 46 46 47 48 49 49 50 49 49 49 49 49
28 28 28 28 28 27 27 28 28 28 28 29 30 30 31 30 30 30 30 31 32 33 34 36 37 37 38 39 41 42 44 45 46 46 48 48 48 49 49 49 48 49 50
29 29 28 28 28 28 28 28 28 28 29 30 30 31 31 31 31 31 31 31 32 33 34 36 37 38 38 39 40 42 43 45 45 46 48 48 48 48 49 49 48 48 49
30 30 29 29 29 29 29 29 29 29 30 30 30 30 30 30 31 31 32 32 33 33 35 36 37 37 38 38 39 40 42 44 44 45 46 47 47 47 48 48 48 48 49
30 30 30 30 30 30 30 30 30 30 30 30 30 30 30 30 31 31 33 34 34 34 34 35 35 36 37 38 38 39 41 42 43 44 45 46 46 46 47 47 48 49 50
31 31 31 31 31 31 31 32 31 31 31 30 30 30 30 30 30 31 32 34 34 33 33 34 34 35 36 36 37 39 39 40 41 42 44 45 45 45 46 47 48 49 50
31 31 31 30 31 31 32 32 32 31 31 31 30 30 30 30 30 31 31 31 31 33 33 33 34 34 34 34 35 37 38 38 39 39 41 42 44 44 46 46 47 48 49
32 31 31 31 31 31 31 32 32 31 31 31 31 30 30 29 29 29 30 30 30 31 32 32 32 32 32 33 34 34 35 37 38 38 39 40 42 43 44 46 46 47 47
32 32 32 32 31 31 31 31 31 30 30 31 30 30 29 29 29 28 29 30 30 30 31 30 30 31 31 32 34 34 35 36 38 38 39 40 41 42 44 45 45 46 47
32 32 32 32 32 31 31 30 30 30 29 29 29 29 29 29 29 29 28 28 29 30 29 29 30 30 30 31 32 33 35 35 36 37 38 40 41 42 43 44 45 45 46
32 32 32 31 31 30 30 30 30 29 29 29 28 28 28 28 28 29 29 28 28 28 29 29 29 29 30 31 32 33 34 34 36 38 39 40 41 42 43 43 44 45 45
31 31 31 30 30 30 30 30 30 29 28 28 28 28 27 27 27 27 28 28 28 29 29 29 29 30 31 32 33 34 34 34 35 37 39 40 41 42 43 43 43 44 45
31 31 31 30 30 31 31 31 31 30 29 28 28 28 27 26 27 27 27 27 27 28 29 29 29 30 31 32 33 34 35 34 35 36 37 37 38 40 41 42 43 44 45
33 32 31 31 30 30 30 31 31 30 29 29 29 29 28 28 28 28 28 28 28 28 28 28 28 29 30 31 33 34 34 35 35 36 37 38 38 39 40 41 42 43 43
32 32 32 31 31 31 31 31 30 30 30 29 29 29 28 28 29 28 28 29 29 29 30 30 31 31 32 32 33 33 34 34 35 35 35 36 37 38 39 41 41 41 41
32 32 31 31 31 31 31 31 31 30 29 29 28 28 29 29 30 30 29 29 30 30 30 31 32 32 33 33 34 34 34 34 35 35 35 36 37 38 39 39 39 39 39
29 30 31 31 30 30 30 31 31 30 30 30 29 29 29 29 30 30 30 30 31 31 32 32 33 34 33 34 34 34 34 35 35 36 36 37 37 37 37 37 37 38 39

GEFSMW_500_meanwind_216.txt.gz
Wind_Speed
29 29 28 28 28 29 29 29 30 30 30 30 31 32 33 33 34 35 35 34 35 36 37 37 37 37 38 39 41 41 42 42 43 43 43 43 44 43 43 42 42 41 41
30 30 29 29 29 29 29 29 29 30 30 30 31 32 33 34 34 35 35 36 36 36 37 37 36 37 38 39 41 41 42 43 43 43 44 45 45 45 43 43 42 42 42
30 30 30 30 29 29 29 29 29 30 30 30 31 32 33 34 34 35 35 36 36 36 37 36 36 37 38 39 41 42 42 43 43 45 46 46 46 45 45 44 45 44 43
30 30 29 29 29 29 29 29 30 30 31 31 32 32 32 33 33 34 34 35 35 36 37 36 36 37 38 39 41 42 43 43 43 45 46 46 46 46 46 46 46 45 43
30 30 29 29 29 29 29 29 30 31 31 31 31 31 31 32 33 33 34 35 35 36 37 36 36 37 38 39 40 42 43 44 45 46 46 46 47 47 46 45 44 45 45
30 30 30 30 29 29 29 29 30 30 31 31 31 30 31 32 32 33 33 34 35 36 36 35 35 36 38 39 41 41 42 43 44 44 45 45 46 46 46 46 45 45 45
31 31 30 30 30 29 29 29 29 30 31 31 30 30 30 31 32 33 33 34 35 35 36 36 36 36 38 39 40 40 40 41 42 43 44 44 44 45 46 46 45 46 45
32 32 31 30 30 30 29 29 29 30 31 31 30 31 31 31 31 32 33 34 34 35 36 36 36 36 36 37 38 39 39 39 40 42 43 44 44 45 47 47 47 46 46
32 32 31 30 30 30 30 29 29 30 30 31 30 31 31 31 32 32 33 33 34 35 36 37 36 35 35 36 37 38 39 39 40 40 41 43 44 45 46 47 48 48 48
34 33 32 31 30 30 30 29 29 30 30 31 31 32 32 32 32 33 33 34 35 36 36 37 37 37 36 37 38 39 39 39 40 40 41 42 44 44 46 47 48 48 48
34 33 33 32 32 32 31 30 31 31 31 31 32 33 33 32 33 33 33 34 35 36 36 36 37 37 37 37 38 39 38 39 39 41 42 44 44 45 45 47 48 48 48
35 34 33 32 32 32 32 32 32 32 32 32 32 33 33 33 33 33 34 34 35 35 36 37 37 37 37 37 37 38 38 39 40 41 42 42 43 43 45 46 47 47 47
36 35 34 33 32 33 33 33 32 33 33 33 33 33 33 34 34 34 34 34 34 34 35 36 36 37 36 37 37 38 39 40 40 40 41 41 42 42 42 43 45 45 46
37 35 35 34 34 34 34 34 33 33 33 33 33 33 33 34 34 34 34 35 35 35 35 35 35 36 36 36 37 38 39 40 40 40 41 42 41 42 42 42 43 44 45
37 36 35 34 34 34 34 35 34 34 34 33 34 34 34 34 34 34 35 35 35 35 36 36 36 36 36 36 37 37 38 39 40 41 41 42 42 41 42 42 43 44 44
37 36 35 35 35 34 34 35 34 34 34 33 34 34 35 35 35 35 35 35 35 35 35 35 35 35 36 36 36 36 37 38 39 40 40 41 42 42 42 42 42 43 43
39 38 37 35 35 34 34 34 34 34 34 34 35 35 35 35 35 35 35 35 34 34 34 34 33 33 34 34 35 36 36 37 38 38 39 40 41 42 42 42 42 42 42
39 38 37 36 35 35 34 33 33 34 34 34 34 34 34 34 34 34 34 34 33 32 32 32 32 32 32 34 34 35 35 36 36 37 38 39 40 40 41 41 41 41 41
39 38 37 36 35 35 35 34 33 33 33 33 33 33 33 33 33 32 32 32 32 31 31 31 31 31 32 32 33 35 35 35 36 36 37 38 38 39 39 40 40 40 41
39 38 37 36 36 36 35 35 34 34 33 33 32 32 32 32 31 31 31 31 30 31 31 31 31 32 32 32 33 34 34 34 34 35 36 36 37 38 39 40 41 41 42
37 37 36 36 35 36 35 35 34 34 33 32 31 31 31 30 30 30 30 30 30 30 30 30 31 31 32 32 32 33 34 34 34 35 35 36 37 38 39 40 41 41 42
36 36 35 35 35 35 35 35 34 33 33 32 32 31 30 30 30 30 29 29 30 30 30 29 29 30 30 31 31 32 33 34 34 34 35 36 36 37 38 39 40 40 40
34 35 35 35 35 35 35 34 33 33 32 32 31 31 30 29 29 29 29 29 29 30 29 29 30 30 30 31 31 31 32 33 34 34 34 35 35 36 36 37 37 38 38
33 33 34 34 34 34 34 34 33 33 32 31 31 31 30 29 29 29 28 28 28 28 29 29 29 29 30 30 31 31 32 32 33 34 34 34 35 35 35 36 37 37 38
31 32 32 32 32 32 32 32 32 32 31 30 30 30 29 28 28 28 28 28 28 28 28 29 29 29 29 29 30 31 31 32 32 32 33 33 34 35 35 35 36 37 38
30 30 30 31 31 31 31 30 30 30 30 29 29 29 29 28 28 27 27 27 27 27 28 29 29 29 29 30 30 31 31 31 32 32 32 33 33 34 35 36 36 37 37

GEFSMW_500_meanwind_222.txt.gz
Wind_Speed
28 28 29 29 29 29 29 28 28 28 28 29 30 31 32 33 34 36 36 36 36 37 38 38 37 38 38 38 39 39 40 40 40 42 42 42 41 41 41 41 42 42 43
29 30 30 30 30 29 29 29 29 29 29 29 30 31 32 33 34 35 35 36 36 36 37 37 38 38 38 38 39 39 40 40 40 42 43 44 44 43 43 43 44 44 45
29 30 31 31 31 30 30 30 30 30 30 29 30 31 31 33 34 34 35 35 35 35 35 36 36 37 37 38 38 39 40 40 41 42 43 45 45 44 45 45 45 46 46
31 31 31 31 31 31 30 30 31 31 31 31 30 30 31 31 32 33 34 34 34 34 34 35 35 36 37 37 37 38 40 41 42 43 44 45 46 47 47 47 47 47 47
31 31 31 31 31 31 31 31 31 32 32 31 32 31 31 31 32 33 33 33 34 34 35 35 35 36 36 37 37 38 39 40 42 43 44 45 46 47 48 48 48 48 48
32 31 31 31 30 30 31 31 31 31 32 32 32 32 32 33 33 33 33 33 34 34 35 36 36 36 37 37 38 38 39 40 42 43 44 45 46 47 48 49 49 49 49
32 32 32 32 31 31 30 31 31 31 31 32 33 33 33 33 34 34 34 34 34 35 35 35 36 36 37 38 39 39 40 40 42 43 44 45 46 47 47 47 48 48 48
33 33 33 33 33 32 31 31 30 30 31 32 33 33 34 34 35 35 35 35 35 35 36 36 36 37 37 38 39 39 40 41 42 43 43 44 44 46 47 46 46 47 47
34 34 34 34 33 33 32 32 31 31 31 32 32 33 33 34 35 35 35 35 36 36 36 37 37 37 37 38 38 39 40 41 42 43 44 44 44 44 44 44 44 45 45
35 35 35 35 35 35 34 34 33 33 33 33 33 33 34 35 35 35 36 36 37 37 37 37 37 38 39 38 39 39 40 41 41 41 42 42 42 42 43 43 44 44 45
36 36 36 36 37 37 36 35 35 34 34 34 35 34 34 35 36 36 36 36 37 37 37 38 38 39 39 39 40 40 40 40 40 40 41 41 41 41 42 43 44 44 44
37 37 37 37 38 38 37 37 36 36 36 36 36 36 35 35 36 36 36 37 37 38 38 38 39 40 40 40 40 39 39 39 38 38 39 40 40 41 41 42 43 43 44
38 38 38 38 39 39 38 38 37 37 37 37 37 37 37 37 37 37 37 37 37 37 38 38 38 39 40 40 41 40 39 39 38 38 38 39 40 41 41 42 43 43 44
39 40 40 40 40 40 40 39 38 38 38 38 37 37 37 37 38 38 38 38 37 38 38 39 39 39 39 40 40 41 39 38 38 38 38 39 40 40 41 42 43 44 45
39 39 40 40 40 40 40 40 39 39 39 38 38 38 38 38 38 38 38 38 38 38 39 39 39 39 40 40 40 40 40 39 38 38 38 39 39 40 41 42 42 43 44
38 39 40 40 39 40 40 40 40 40 39 39 39 39 39 38 38 38 38 39 39 38 38 38 38 38 38 38 39 38 38 38 38 38 38 39 39 39 40 41 42 42 42
39 40 40 40 40 39 39 40 40 40 39 39 39 39 39 39 38 38 38 38 38 38 38 38 38 38 37 37 37 37 37 37 37 38 39 39 38 38 39 40 40 40 41
38 39 39 39 38 38 38 39 39 39 39 39 39 39 38 38 38 38 37 37 37 37 37 37 37 36 36 36 36 35 36 36 36 37 37 38 38 39 39 39 39 40 40
37 37 38 38 38 38 38 38 38 38 38 38 38 38 38 38 37 37 36 36 36 36 36 36 35 35 35 35 35 34 35 35 35 35 35 35 36 37 38 38 38 38 38
37 38 38 38 38 38 38 38 38 38 38 38 37 37 37 37 37 36 35 35 35 35 35 34 34 34 34 34 34 34 34 34 35 35 35 35 36 36 36 37 37 38 38
35 36 37 37 37 37 37 37 38 38 38 37 37 37 36 36 36 36 35 35 34 34 34 33 33 33 33 34 34 34 34 34 35 35 35 36 37 37 37 37 38 38 39
33 34 35 35 36 36 37 36 37 37 37 37 37 37 36 36 35 35 35 34 34 34 33 33 33 33 33 33 33 34 34 35 35 35 35 35 36 37 37 37 38 38 39
33 34 34 33 33 34 35 35 34 35 36 36 36 36 36 35 34 34 33 33 32 33 33 33 33 33 32 32 33 33 33 34 35 34 34 34 35 36 37 38 38 39 39
33 33 33 33 33 33 33 34 33 33 33 34 34 34 34 34 33 33 33 33 33 33 32 32 32 32 32 32 32 32 32 33 33 33 33 34 34 35 36 37 37 37 38
33 33 32 31 31 31 32 32 32 32 31 31 31 32 32 31 32 31 32 32 32 32 31 31 31 31 31 32 32 32 32 31 31 32 32 32 33 33 34 35 36 36 37
31 31 31 30 29 29 30 30 30 31 31 30 29 29 29 29 29 29 29 29 29 29 29 29 29 29 30 31 31 32 32 32 32 32 31 31 32 33 33 34 36 36 37

GEFSMW_500_meanwind_228.txt.gz
Wind_Speed
35 36 36 35 35 34 33 33 33 33 33 32 33 33 33 33 33 34 35 35 36 36 36 36 36 37 37 37 37 37 37 38 38 38 37 38 37 37 37 37 37 38 38
37 37 37 36 35 35 34 34 34 33 33 34 34 34 34 34 35 35 35 35 36 36 37 37 36 36 37 37 38 38 38 39 39 39 39 39 39 39 39 39 39 39 40
36 37 37 37 36 35 35 35 34 34 34 34 35 35 34 34 35 35 35 36 37 37 37 36 36 36 37 37 38 38 38 38 38 38 39 40 40 40 41 41 41 41 42
37 37 37 37 37 36 36 35 35 34 34 35 35 35 35 35 35 36 36 37 37 37 36 36 37 37 38 38 38 39 39 39 39 39 39 39 39 41 42 42 42 43 44
37 37 37 37 37 37 36 36 36 35 35 35 35 35 35 36 36 36 37 38 38 38 37 37 38 38 38 38 39 40 39 39 40 40 40 40 40 40 42 42 43 44 44
37 37 37 37 38 37 37 36 36 36 36 36 36 36 35 35 36 36 37 38 38 39 40 39 39 38 38 38 39 40 40 40 40 41 41 41 42 41 41 41 42 44 45
37 37 37 37 38 38 37 37 37 37 37 37 36 36 36 36 36 37 37 38 39 39 40 40 39 39 39 39 39 39 39 39 39 40 41 42 42 42 43 43 43 44 45
38 38 38 38 38 38 38 38 38 38 38 38 38 37 37 37 38 38 38 39 39 39 39 39 39 39 39 39 39 39 39 39 40 41 41 42 42 43 43 44 44 44 45
39 38 39 39 38 38 38 38 38 38 39 39 39 39 38 38 38 38 39 39 40 40 40 40 40 39 39 39 39 40 40 40 40 41 41 42 42 43 44 44 44 44 44
39 39 39 39 40 40 40 39 40 39 39 40 40 40 40 39 39 39 39 39 40 40 40 40 40 41 41 41 41 41 41 41 41 42 42 43 44 43 43 43 43 43 44
40 41 41 41 41 41 40 41 41 41 41 40 40 40 40 41 40 40 40 40 41 41 42 42 42 42 42 43 43 43 42 42 42 43 43 44 44 45 44 44 44 44 44
39 41 42 42 42 42 42 42 42 42 42 42 41 40 40 40 40 41 41 41 41 42 42 43 43 43 43 43 42 42 42 43 43 43 44 44 45 45 44 44 43 44 44
40 41 42 43 44 44 43 43 43 44 44 44 43 42 41 41 41 41 41 42 42 42 43 43 43 43 42 42 43 43 43 43 43 43 43 44 44 44 44 43 44 43 43
40 41 43 43 44 44 44 45 44 44 45 44 44 43 43 42 42 42 42 42 42 43 43 43 43 43 43 43 43 43 43 43 43 43 43 42 43 43 43 44 44 44 45
40 40 42 42 43 43 43 44 45 45 44 44 43 43 43 43 43 43 43 43 43 42 43 43 43 43 43 43 43 43 43 42 42 42 42 42 42 43 43 44 44 44 45
39 40 41 41 41 42 43 43 43 43 43 44 44 43 44 44 44 44 44 43 43 43 43 44 44 44 44 44 44 44 43 43 42 42 42 42 42 42 42 42 44 44 44
39 40 40 41 41 42 41 41 42 43 43 44 44 44 44 44 44 44 43 43 43 43 44 44 44 44 44 44 45 44 44 43 42 42 41 41 42 42 42 42 43 43 44
37 38 38 38 39 40 41 41 42 42 42 43 43 44 45 44 44 44 44 44 44 44 44 44 44 44 44 44 44 44 43 43 42 42 41 41 40 41 42 41 42 42 42
37 37 37 37 37 38 38 39 40 41 41 42 43 44 44 44 44 44 44 43 43 44 43 43 43 43 43 43 42 42 42 41 41 41 41 41 40 40 41 41 41 40 40
37 38 38 37 37 36 36 37 38 39 40 41 42 42 42 43 43 43 43 43 43 42 42 42 41 41 41 41 41 41 40 40 40 39 39 39 39 39 40 40 40 40 40
37 37 37 37 36 36 36 37 37 38 39 40 41 41 41 40 41 41 41 41 41 41 40 40 40 40 40 40 39 39 38 38 38 37 37 37 37 38 38 38 38 38 39
35 35 36 36 36 37 37 36 36 37 38 39 39 39 39 39 39 39 39 39 39 38 38 38 38 38 38 37 38 37 37 37 37 37 36 36 36 37 37 37 37 37 37
35 35 36 37 36 37 37 37 37 37 36 37 37 37 37 37 37 37 36 36 36 36 36 36 36 37 37 37 37 36 36 36 36 36 36 36 36 36 37 37 37 37 38
34 35 36 36 36 37 37 36 36 36 36 36 35 35 35 35 35 34 34 34 33 33 34 34 34 34 35 35 36 36 35 35 36 36 35 35 35 35 35 36 36 37 37
33 34 34 35 35 36 36 36 34 33 33 33 33 33 32 32 33 33 32 32 32 32 32 33 33 33 33 33 34 35 35 36 35 35 35 35 34 35 35 35 36 37 37
30 31 32 32 33 34 34 34 33 32 32 31 30 30 30 30 31 31 31 31 31 30 30 31 32 32 32 32 32 33 34 34 35 35 35 34 34 34 34 34 34 34 34

GEFSMW_500_meanwind_234.txt.gz
Wind_Speed
37 36 36 36 37 37 38 39 40 40 39 39 38 37 37 37 37 37 37 37 37 36 36 36 37 36 36 36 36 36 36 36 36 36 36 36 36 35 35 35 36 36 36
37 37 37 37 37 38 39 39 40 41 40 39 39 39 38 37 37 37 37 37 37 37 37 37 38 37 37 37 37 37 37 37 38 38 37 38 37 37 37 37 37 38 38
37 37 37 37 38 39 39 40 40 41 41 40 40 40 39 38 37 37 37 37 38 37 37 37 38 38 37 38 38 38 38 38 38 38 38 38 38 38 38 39 39 39 40
38 37 37 38 38 39 39 40 40 41 41 41 41 41 40 39 37 36 37 38 38 37 38 38 38 38 39 39 39 39 39 38 39 39 39 39 39 39 39 39 40 41 41
39 38 38 39 39 39 39 39 40 41 41 41 42 41 41 40 39 38 38 38 38 38 38 38 38 39 39 39 39 39 40 40 40 40 40 40 41 40 40 40 40 41 41
39 39 39 39 39 39 39 39 40 41 41 41 42 42 42 42 41 40 40 39 39 39 39 39 39 39 39 39 40 40 40 40 41 41 42 41 41 41 42 41 41 42 42
39 39 39 40 39 39 39 40 40 41 41 42 42 42 43 42 42 42 42 41 40 40 40 40 40 40 40 40 41 41 41 42 42 42 42 43 43 43 43 43 43 43 43
39 40 40 41 41 40 41 41 41 41 42 42 43 42 42 43 43 43 43 43 42 41 41 42 41 41 41 41 42 42 43 43 44 43 44 44 44 44 45 45 44 44 44
39 40 41 41 41 41 42 41 42 42 43 43 44 43 43 43 43 43 43 43 43 43 43 43 42 42 42 43 43 43 44 44 44 44 44 45 45 44 45 45 45 45 45
39 40 41 42 42 43 43 43 43 43 43 44 44 44 44 44 44 44 44 44 44 44 43 43 43 43 43 44 44 44 45 45 44 44 45 45 45 44 45 45 45 45 45
38 39 40 42 43 44 44 45 44 45 45 45 45 45 45 45 45 44 44 44 43 43 43 44 44 44 44 44 44 44 44 44 44 44 44 44 44 44 44 45 45 45 45
38 39 40 42 42 43 43 44 45 46 45 46 46 46 46 45 45 45 44 43 43 42 42 42 43 43 44 44 45 45 45 45 45 44 44 44 44 45 45 46 46 45 45
38 39 40 41 42 42 42 43 44 45 45 46 46 47 47 46 45 45 44 44 44 44 43 43 42 43 43 44 45 45 45 45 44 44 44 44 44 44 44 44 44 44 44
38 39 40 40 41 42 42 43 44 45 45 46 46 47 47 47 46 45 45 45 45 45 44 44 44 43 43 44 44 45 45 44 44 43 43 43 43 43 43 43 43 43 43
36 37 39 39 39 40 42 43 44 45 45 45 45 46 46 47 47 46 45 45 46 46 46 46 45 45 45 45 45 45 45 45 44 44 43 43 43 43 43 43 43 43 43
36 37 37 38 38 39 40 41 42 43 43 43 44 45 45 46 46 46 46 45 45 46 46 46 46 46 46 46 46 46 46 45 45 44 44 44 44 44 44 44 44 44 44
37 37 38 38 38 38 39 40 41 41 41 41 42 42 43 44 44 45 46 45 45 45 46 47 47 47 46 46 46 46 46 46 46 46 45 45 45 45 45 45 45 45 45
36 37 37 38 38 38 38 38 39 40 40 39 39 40 41 42 43 44 45 45 45 45 46 46 46 46 47 47 47 47 47 47 46 46 46 45 45 45 45 46 46 46 46
36 36 37 37 37 38 38 38 38 38 38 39 39 39 40 41 41 43 44 45 45 45 45 46 46 46 46 46 46 46 46 46 46 45 46 45 45 45 45 45 45 45 45
35 36 36 37 38 38 38 38 38 38 38 39 39 39 39 39 40 41 42 43 43 43 44 44 44 44 45 45 45 45 45 45 45 45 45 45 45 45 44 44 44 44 44
33 35 35 36 37 38 38 38 38 39 39 39 39 38 38 38 39 39 40 40 41 41 42 42 42 42 42 43 44 44 43 43 43 43 44 44 43 43 43 42 42 42 42
31 32 33 35 36 37 37 38 39 39 40 40 39 39 38 38 38 38 39 39 39 39 39 40 40 41 41 41 41 42 42 42 42 42 41 41 41 40 40 40 40 40 40
29 30 31 32 34 36 37 37 38 39 40 40 40 40 40 39 39 40 39 39 38 37 37 38 38 38 39 39 40 40 40 40 39 39 38 38 38 39 39 39 38 38 38
28 29 29 30 31 32 34 35 36 37 38 39 40 40 41 41 40 39 39 38 37 36 36 35 35 36 36 36 37 37 36 36 37 37 37 37 37 37 38 38 38 37 37
27 27 28 28 29 30 32 33 34 35 36 36 37 37 38 38 38 38 38 37 36 35 35 34 34 34 34 34 34 35 35 35 35 35 35 35 36 36 36 37 36 36 35
25 26 26 26 27 28 30 32 33 33 34 34 34 34 35 35 36 36 36 36 35 35 34 33 33 32 33 33 33 34 34 34 34 34 34 35 35 35 35 35 35 35 35

GEFSMW_500_meanwind_240.txt.gz
Wind_Speed
40 41 40 40 39 39 39 39 39 40 40 40 39 40 40 40 39 38 37 37 37 37 37 37 37 36 36 36 36 35 34 34 34 34 34 34 33 33 33 33 33 33 33
41 41 41 40 40 40 40 40 40 41 42 42 41 41 41 41 40 39 38 39 38 38 38 38 38 38 38 38 37 37 36 36 35 35 35 35 35 35 34 34 34 34 34
42 41 41 41 41 41 41 41 42 42 43 43 42 42 41 42 42 41 40 40 40 39 39 39 39 39 38 38 38 37 37 37 37 37 36 36 36 36 36 36 36 36 36
41 41 42 42 42 42 42 42 42 43 44 44 44 44 43 42 42 42 41 42 41 40 41 40 40 40 40 39 39 38 38 38 38 38 37 37 37 38 37 37 36 36 37
41 41 41 41 42 42 42 43 44 44 45 45 45 45 44 44 44 44 43 43 43 42 42 41 41 41 41 40 40 40 39 39 39 39 39 38 38 38 38 38 38 38 38
42 41 41 42 42 43 43 44 44 45 45 46 46 46 45 45 45 45 44 43 43 43 43 43 43 42 41 40 41 41 41 40 41 40 40 40 39 39 39 38 38 39 39
42 42 42 42 43 43 43 44 44 45 46 46 46 46 46 46 46 46 46 45 45 44 44 44 44 44 42 41 42 42 42 41 41 41 41 41 41 40 40 40 39 39 39
42 42 42 43 43 43 43 44 44 45 45 45 45 46 47 47 47 47 47 46 46 46 45 45 45 44 42 42 42 42 42 42 42 42 42 42 42 42 41 42 42 41 41
42 43 43 43 43 43 43 44 44 45 45 45 46 47 47 47 47 47 46 47 47 47 46 47 45 44 44 43 43 43 42 42 42 42 42 43 43 43 43 44 44 43 42
42 42 42 43 44 45 45 45 45 45 46 46 46 45 46 47 47 48 47 46 47 48 47 47 46 45 44 44 45 44 43 43 43 44 44 44 45 45 44 44 44 45 44
40 42 43 43 44 45 45 46 45 44 45 45 45 46 47 47 47 47 47 47 47 48 47 45 45 45 45 45 46 45 45 45 45 46 46 44 45 45 45 45 45 45 45
39 40 41 43 44 44 44 44 45 44 44 45 44 45 44 45 46 46 46 46 47 47 46 47 45 45 45 46 46 45 46 46 45 46 46 46 47 46 46 46 46 45 45
39 40 40 42 43 43 42 42 43 43 43 43 43 44 44 45 45 46 45 46 46 46 46 46 46 46 46 46 46 46 46 46 46 46 46 47 46 46 46 46 46 45 45
38 39 40 41 43 43 42 42 42 43 44 43 43 43 43 45 45 45 46 46 47 46 46 45 46 46 46 46 46 46 46 46 46 46 45 45 46 46 45 45 45 45 45
38 38 38 39 41 42 42 42 42 44 44 43 43 43 43 44 45 45 45 46 46 46 45 45 44 45 45 45 46 46 46 45 45 45 45 44 45 46 45 45 44 45 45
37 37 38 39 40 41 42 43 43 43 44 43 43 44 44 43 44 44 44 45 45 44 44 44 43 43 44 45 45 46 46 45 45 45 45 44 44 44 44 44 44 44 44
37 37 38 38 39 40 42 43 43 43 43 44 44 44 44 44 45 45 44 44 44 44 44 43 43 43 44 45 45 45 45 45 45 45 45 45 44 44 44 44 44 44 44
37 37 37 38 39 39 40 41 42 42 42 42 42 43 44 45 45 45 45 45 45 44 44 44 43 43 43 44 44 45 45 44 44 44 44 44 44 45 45 44 44 45 45
37 37 37 37 38 39 40 40 41 41 42 42 42 42 43 43 43 44 44 44 44 44 43 44 44 44 44 44 44 44 44 43 43 43 43 44 44 45 45 45 45 45 45
34 35 36 37 37 38 39 40 41 41 41 41 41 41 42 42 42 42 42 43 43 42 43 43 43 43 43 43 43 43 43 43 43 42 43 44 45 45 45 45 45 44 44
32 33 33 34 36 36 37 38 38 38 39 40 40 40 40 40 41 41 41 41 42 43 43 42 42 42 42 42 42 42 43 43 42 41 42 43 43 44 44 44 44 44 44
31 31 31 31 32 34 35 35 36 36 37 38 38 39 39 39 39 39 39 40 40 41 42 42 41 41 40 41 41 41 41 41 41 41 41 41 42 42 42 43 43 43 43
30 29 29 29 29 30 31 33 33 35 36 37 37 37 38 36 37 37 37 38 38 39 40 40 40 40 40 40 40 40 40 40 40 40 40 41 41 41 41 41 41 41 41
28 28 28 27 28 28 29 30 31 32 33 35 36 36 37 36 35 35 36 36 37 37 38 39 39 39 39 39 39 40 40 40 40 40 40 40 40 40 39 39 39 39 39
27 27 27 27 27 27 28 28 30 31 32 33 34 36 36 36 35 35 35 35 35 36 37 38 38 38 38 38 38 38 38 38 38 38 38 37 37 37 37 37 37 37 37
27 27 26 27 27 27 27 28 29 30 31 32 33 34 35 35 35 35 35 35 35 35 35 36 36 37 36 36 36 36 36 36 37 37 36 36 35 35 35 35 36 36 36